<?xml version='1.0' encoding='UTF-8'?><gpx version="1.1" creator="JPX - https://github.com/jenetics/jpx" xmlns="http://www.topografix.com/GPX/1/1"><trk><trkseg><trkpt lat="45.87090397200286" lon="11.231898563086679"><ele>1539.1666666666667</ele><time>2026-05-02T12:55:19.999Z</time></trkpt><trkpt lat="45.87097256994863" lon="11.231973366242476"><ele>1539.3333333333335</ele><time>2026-05-02T12:55:21.998Z</time></trkpt><trkpt lat="45.871050995628444" lon="11.232030708550196"><ele>1539.5</ele><time>2026-05-02T12:55:23.998Z</time></trkpt><trkpt lat="45.871121905762905" lon="11.232093965278565"><ele>1539.6666666666667</ele><time>2026-05-02T12:55:25.998Z</time></trkpt><trkpt lat="45.87118688813171" lon="11.232127738846875"><ele>1539.8333333333335</ele><time>2026-05-02T12:55:27.998Z</time></trkpt><trkpt lat="45.871236874616905" lon="11.232200135631736"><ele>1540.0</ele><time>2026-05-02T12:55:29.998Z</time></trkpt><trkpt lat="45.87127790809454" lon="11.232288157304462"><ele>1541.1666666666667</ele><time>2026-05-02T12:55:32.998Z</time></trkpt><trkpt lat="45.871286604401085" lon="11.232395303789167"><ele>1542.3333333333335</ele><time>2026-05-02T12:55:35.998Z</time></trkpt><trkpt lat="45.87121171242292" lon="11.232493743909256"><ele>1543.5</ele><time>2026-05-02T12:55:37.998Z</time></trkpt><trkpt lat="45.871161938701384" lon="11.232553507506047"><ele>1544.6666666666665</ele><time>2026-05-02T12:55:38.998Z</time></trkpt><trkpt lat="45.87111153906098" lon="11.232620536134432"><ele>1545.8333333333333</ele><time>2026-05-02T12:55:39.998Z</time></trkpt><trkpt lat="45.87105144713695" lon="11.23270967000925"><ele>1547.0</ele><time>2026-05-02T12:55:40.998Z</time></trkpt><trkpt lat="45.87098703065272" lon="11.232799507517072"><ele>1545.1999999999998</ele><time>2026-05-02T12:55:41.998Z</time></trkpt><trkpt lat="45.87091828080438" lon="11.232904924830676"><ele>1543.4</ele><time>2026-05-02T12:55:42.998Z</time></trkpt><trkpt lat="45.87084348773296" lon="11.233017906145841"><ele>1541.6</ele><time>2026-05-02T12:55:43.998Z</time></trkpt><trkpt lat="45.870769804290106" lon="11.233141875405794"><ele>1539.8000000000002</ele><time>2026-05-02T12:55:44.998Z</time></trkpt><trkpt lat="45.87069834845011" lon="11.233283541129683"><ele>1538.0</ele><time>2026-05-02T12:55:45.998Z</time></trkpt><trkpt lat="45.87062434970237" lon="11.233430442323078"><ele>1538.0</ele><time>2026-05-02T12:55:46.998Z</time></trkpt><trkpt lat="45.87054812819083" lon="11.233589903455556"><ele>1538.0</ele><time>2026-05-02T12:55:47.998Z</time></trkpt><trkpt lat="45.87047378157609" lon="11.233736015448788"><ele>1538.0</ele><time>2026-05-02T12:55:48.998Z</time></trkpt><trkpt lat="45.870401113109125" lon="11.233880637514206"><ele>1538.0</ele><time>2026-05-02T12:55:49.998Z</time></trkpt><trkpt lat="45.87032523773784" lon="11.234018689749858"><ele>1540.2</ele><time>2026-05-02T12:55:50.998Z</time></trkpt><trkpt lat="45.87025475301185" lon="11.234152257748521"><ele>1542.4</ele><time>2026-05-02T12:55:51.998Z</time></trkpt><trkpt lat="45.87018772694733" lon="11.234273658902385"><ele>1544.6000000000001</ele><time>2026-05-02T12:55:52.998Z</time></trkpt><trkpt lat="45.870130399903275" lon="11.23438107792624"><ele>1546.8000000000002</ele><time>2026-05-02T12:55:53.998Z</time></trkpt><trkpt lat="45.870077355673175" lon="11.23449356743441"><ele>1549.0</ele><time>2026-05-02T12:55:54.998Z</time></trkpt><trkpt lat="45.87003930244911" lon="11.23460512829917"><ele>1546.8000000000002</ele><time>2026-05-02T12:55:55.998Z</time></trkpt><trkpt lat="45.87000497535187" lon="11.234720573975235"><ele>1544.6000000000001</ele><time>2026-05-02T12:55:56.998Z</time></trkpt><trkpt lat="45.86997848097575" lon="11.234843413051019"><ele>1542.4</ele><time>2026-05-02T12:55:57.998Z</time></trkpt><trkpt lat="45.86995511922011" lon="11.23497572566668"><ele>1540.2</ele><time>2026-05-02T12:55:58.998Z</time></trkpt><trkpt lat="45.869930911109535" lon="11.235104582688798"><ele>1538.0</ele><time>2026-05-02T12:55:59.998Z</time></trkpt><trkpt lat="45.869892969847314" lon="11.235236512478558"><ele>1538.0</ele><time>2026-05-02T12:56:00.998Z</time></trkpt><trkpt lat="45.86983355800091" lon="11.23537305184024"><ele>1538.0</ele><time>2026-05-02T12:56:01.998Z</time></trkpt><trkpt lat="45.86974986697987" lon="11.235503556048428"><ele>1538.0</ele><time>2026-05-02T12:56:02.998Z</time></trkpt><trkpt lat="45.86965550144054" lon="11.235631328005814"><ele>1538.0</ele><time>2026-05-02T12:56:03.997Z</time></trkpt><trkpt lat="45.86955301554244" lon="11.235764844245875"><ele>1539.75</ele><time>2026-05-02T12:56:04.997Z</time></trkpt><trkpt lat="45.869444729412784" lon="11.235902300867489"><ele>1541.5</ele><time>2026-05-02T12:56:05.997Z</time></trkpt><trkpt lat="45.8693306898015" lon="11.236052367606074"><ele>1543.25</ele><time>2026-05-02T12:56:07Z</time></trkpt><trkpt lat="45.86922311854884" lon="11.236203125588956"><ele>1545.0</ele><time>2026-05-02T12:56:08Z</time></trkpt><trkpt lat="45.86911638253041" lon="11.236351980097181"><ele>1543.0</ele><time>2026-05-02T12:56:09Z</time></trkpt><trkpt lat="45.86900581290787" lon="11.236489706006614"><ele>1541.0</ele><time>2026-05-02T12:56:10Z</time></trkpt><trkpt lat="45.868894727180596" lon="11.236606458079576"><ele>1539.0</ele><time>2026-05-02T12:56:11Z</time></trkpt><trkpt lat="45.86878144836887" lon="11.236705477617944"><ele>1537.0</ele><time>2026-05-02T12:56:12Z</time></trkpt><trkpt lat="45.86866168414272" lon="11.236752666571583"><ele>1537.0</ele><time>2026-05-02T12:56:13Z</time></trkpt><trkpt lat="45.86854838622336" lon="11.236800894131095"><ele>1537.0</ele><time>2026-05-02T12:56:14Z</time></trkpt><trkpt lat="45.86844276082311" lon="11.236868099353266"><ele>1537.0</ele><time>2026-05-02T12:56:15Z</time></trkpt><trkpt lat="45.86833985957441" lon="11.236929187883128"><ele>1537.0</ele><time>2026-05-02T12:56:16Z</time></trkpt><trkpt lat="45.8682382127013" lon="11.237026528703352"><ele>1537.8</ele><time>2026-05-02T12:56:17Z</time></trkpt><trkpt lat="45.868161559260265" lon="11.237154965134758"><ele>1538.6</ele><time>2026-05-02T12:56:18Z</time></trkpt><trkpt lat="45.868114641893214" lon="11.237286482225496"><ele>1539.3999999999999</ele><time>2026-05-02T12:56:19Z</time></trkpt><trkpt lat="45.868092742737275" lon="11.237418263287607"><ele>1540.1999999999998</ele><time>2026-05-02T12:56:20Z</time></trkpt><trkpt lat="45.868110090962716" lon="11.237549400531865"><ele>1541.0</ele><time>2026-05-02T12:56:21Z</time></trkpt><trkpt lat="45.86814672057225" lon="11.23768665265422"><ele>1541.0</ele><time>2026-05-02T12:56:22Z</time></trkpt><trkpt lat="45.86818040028345" lon="11.23783706273753"><ele>1541.0</ele><time>2026-05-02T12:56:23Z</time></trkpt><trkpt lat="45.8681924158889" lon="11.23801074613938"><ele>1541.0</ele><time>2026-05-02T12:56:24Z</time></trkpt><trkpt lat="45.86818527480079" lon="11.238196888143785"><ele>1541.0</ele><time>2026-05-02T12:56:25Z</time></trkpt><trkpt lat="45.86816832716888" lon="11.238388697447576"><ele>1542.5</ele><time>2026-05-02T12:56:26Z</time></trkpt><trkpt lat="45.868149208588974" lon="11.238589215198507"><ele>1544.0</ele><time>2026-05-02T12:56:27Z</time></trkpt><trkpt lat="45.86812470173639" lon="11.238786425139226"><ele>1545.5</ele><time>2026-05-02T12:56:28Z</time></trkpt><trkpt lat="45.86807687281026" lon="11.238980716837391"><ele>1547.0</ele><time>2026-05-02T12:56:29Z</time></trkpt><trkpt lat="45.868025402403816" lon="11.239151200597412"><ele>1547.1999999999998</ele><time>2026-05-02T12:56:30Z</time></trkpt><trkpt lat="45.86799215361862" lon="11.239301696948091"><ele>1547.4</ele><time>2026-05-02T12:56:31Z</time></trkpt><trkpt lat="45.86798009090414" lon="11.239459274209423"><ele>1547.6</ele><time>2026-05-02T12:56:32Z</time></trkpt><trkpt lat="45.867999458505665" lon="11.239611450172758"><ele>1547.8000000000002</ele><time>2026-05-02T12:56:33Z</time></trkpt><trkpt lat="45.868032141415085" lon="11.23975105618949"><ele>1548.0</ele><time>2026-05-02T12:56:34Z</time></trkpt><trkpt lat="45.868043706680794" lon="11.239897598885058"><ele>1549.75</ele><time>2026-05-02T12:56:35Z</time></trkpt><trkpt lat="45.86802223736583" lon="11.240045582565969"><ele>1551.5</ele><time>2026-05-02T12:56:36Z</time></trkpt><trkpt lat="45.867971932272745" lon="11.240186437377133"><ele>1553.25</ele><time>2026-05-02T12:56:37Z</time></trkpt><trkpt lat="45.867882048620736" lon="11.240295185969586"><ele>1555.0</ele><time>2026-05-02T12:56:38Z</time></trkpt><trkpt lat="45.86778198088361" lon="11.240393811763614"><ele>1555.0</ele><time>2026-05-02T12:56:39Z</time></trkpt><trkpt lat="45.86768202610661" lon="11.240518623732495"><ele>1555.0</ele><time>2026-05-02T12:56:40Z</time></trkpt><trkpt lat="45.86757609855248" lon="11.240614555251433"><ele>1555.0</ele><time>2026-05-02T12:56:41Z</time></trkpt><trkpt lat="45.86748257768527" lon="11.240749192853682"><ele>1555.0</ele><time>2026-05-02T12:56:42Z</time></trkpt><trkpt lat="45.86740436664213" lon="11.240914091882276"><ele>1554.0</ele><time>2026-05-02T12:56:42.999Z</time></trkpt><trkpt lat="45.867324636239914" lon="11.241055719498068"><ele>1553.0</ele><time>2026-05-02T12:56:43.999Z</time></trkpt><trkpt lat="45.867261155828054" lon="11.241196163497616"><ele>1552.0</ele><time>2026-05-02T12:56:44.999Z</time></trkpt><trkpt lat="45.867196938992876" lon="11.24131323272134"><ele>1551.0</ele><time>2026-05-02T12:56:45.999Z</time></trkpt><trkpt lat="45.86716539832452" lon="11.241436262215151"><ele>1550.0</ele><time>2026-05-02T12:56:46.999Z</time></trkpt><trkpt lat="45.86717625577447" lon="11.241576935289736"><ele>1549.4</ele><time>2026-05-02T12:56:47.999Z</time></trkpt><trkpt lat="45.867221789644" lon="11.241709609132023"><ele>1548.8</ele><time>2026-05-02T12:56:48.999Z</time></trkpt><trkpt lat="45.86729038249352" lon="11.241839956273324"><ele>1548.1999999999998</ele><time>2026-05-02T12:56:49.999Z</time></trkpt><trkpt lat="45.867375354455675" lon="11.241954537424101"><ele>1547.6</ele><time>2026-05-02T12:56:50.999Z</time></trkpt><trkpt lat="45.86744746287403" lon="11.242069711707101"><ele>1547.0</ele><time>2026-05-02T12:56:51.999Z</time></trkpt><trkpt lat="45.86751311505354" lon="11.242182058307826"><ele>1546.9999999999998</ele><time>2026-05-02T12:56:52.999Z</time></trkpt><trkpt lat="45.867561808017065" lon="11.242292223345427"><ele>1547.0</ele><time>2026-05-02T12:56:53.999Z</time></trkpt><trkpt lat="45.8675755497433" lon="11.242402959689084"><ele>1547.0</ele><time>2026-05-02T12:56:54.999Z</time></trkpt><trkpt lat="45.86755707456135" lon="11.242514248498459"><ele>1547.0</ele><time>2026-05-02T12:56:55.999Z</time></trkpt><trkpt lat="45.86750744504986" lon="11.242606460606217"><ele>1546.9999999999998</ele><time>2026-05-02T12:56:56.999Z</time></trkpt><trkpt lat="45.86748570353304" lon="11.242715979855575"><ele>1547.0</ele><time>2026-05-02T12:56:57.999Z</time></trkpt><trkpt lat="45.867447969051035" lon="11.242797949468319"><ele>1547.0</ele><time>2026-05-02T12:56:58.999Z</time></trkpt><trkpt lat="45.867409702030514" lon="11.242936903265718"><ele>1547.0</ele><time>2026-05-02T12:57:00.999Z</time></trkpt><trkpt lat="45.86738376700222" lon="11.243074595595942"><ele>1547.0</ele><time>2026-05-02T12:57:02.999Z</time></trkpt><trkpt lat="45.86741156489205" lon="11.243257722092558"><ele>1547.0</ele><time>2026-05-02T12:57:04.999Z</time></trkpt><trkpt lat="45.867437148147516" lon="11.243377851624263"><ele>1547.0</ele><time>2026-05-02T12:57:05.999Z</time></trkpt><trkpt lat="45.86751639639027" lon="11.24347782368403"><ele>1547.0</ele><time>2026-05-02T12:57:06.999Z</time></trkpt><trkpt lat="45.86758052485574" lon="11.243614104706829"><ele>1547.0</ele><time>2026-05-02T12:57:07.999Z</time></trkpt><trkpt lat="45.86767284692304" lon="11.243739497360712"><ele>1547.0</ele><time>2026-05-02T12:57:08.999Z</time></trkpt><trkpt lat="45.8677442824048" lon="11.243913130448586"><ele>1547.0</ele><time>2026-05-02T12:57:09.999Z</time></trkpt><trkpt lat="45.867797616661136" lon="11.244098943579454"><ele>1549.75</ele><time>2026-05-02T12:57:10.999Z</time></trkpt><trkpt lat="45.86783884937257" lon="11.244302906301064"><ele>1552.5</ele><time>2026-05-02T12:57:11.999Z</time></trkpt><trkpt lat="45.867871475430206" lon="11.244510137298766"><ele>1555.25</ele><time>2026-05-02T12:57:12.999Z</time></trkpt><trkpt lat="45.86789882825884" lon="11.244688458611218"><ele>1558.0</ele><time>2026-05-02T12:57:13.999Z</time></trkpt><trkpt lat="45.8679024566558" lon="11.244845802753728"><ele>1559.6000000000001</ele><time>2026-05-02T12:57:14.999Z</time></trkpt><trkpt lat="45.86788063887505" lon="11.244981621945366"><ele>1561.2</ele><time>2026-05-02T12:57:15.999Z</time></trkpt><trkpt lat="45.86781321859614" lon="11.245080889568658"><ele>1562.8</ele><time>2026-05-02T12:57:16.999Z</time></trkpt><trkpt lat="45.867739515370936" lon="11.245169274075167"><ele>1564.4</ele><time>2026-05-02T12:57:17.999Z</time></trkpt><trkpt lat="45.86763968451298" lon="11.245209443552282"><ele>1566.0</ele><time>2026-05-02T12:57:18.999Z</time></trkpt><trkpt lat="45.8675300627732" lon="11.245260360344188"><ele>1566.0</ele><time>2026-05-02T12:57:19.999Z</time></trkpt><trkpt lat="45.867412415833606" lon="11.245322959872645"><ele>1566.0</ele><time>2026-05-02T12:57:20.999Z</time></trkpt><trkpt lat="45.86728650437164" lon="11.245382427651885"><ele>1566.0</ele><time>2026-05-02T12:57:21.999Z</time></trkpt><trkpt lat="45.86716634318444" lon="11.24543712610958"><ele>1566.0</ele><time>2026-05-02T12:57:22.999Z</time></trkpt><trkpt lat="45.867058725969024" lon="11.245485190173811"><ele>1566.0</ele><time>2026-05-02T12:57:23.999Z</time></trkpt><trkpt lat="45.86696974415486" lon="11.245567230169666"><ele>1566.0</ele><time>2026-05-02T12:57:24.998Z</time></trkpt><trkpt lat="45.866889366455986" lon="11.245705483646297"><ele>1566.0</ele><time>2026-05-02T12:57:25.998Z</time></trkpt><trkpt lat="45.86683236618335" lon="11.245871665479239"><ele>1566.0</ele><time>2026-05-02T12:57:26.998Z</time></trkpt><trkpt lat="45.866754921701315" lon="11.24603617785255"><ele>1567.75</ele><time>2026-05-02T12:57:27.998Z</time></trkpt><trkpt lat="45.86663686399915" lon="11.246156343512306"><ele>1569.5</ele><time>2026-05-02T12:57:28.998Z</time></trkpt><trkpt lat="45.86652851900858" lon="11.246285941357046"><ele>1571.25</ele><time>2026-05-02T12:57:29.998Z</time></trkpt><trkpt lat="45.86640964373616" lon="11.246403976795584"><ele>1573.0</ele><time>2026-05-02T12:57:30.998Z</time></trkpt><trkpt lat="45.86631782320051" lon="11.246555862965293"><ele>1577.75</ele><time>2026-05-02T12:57:31.998Z</time></trkpt><trkpt lat="45.86624182978256" lon="11.246718586072234"><ele>1582.5</ele><time>2026-05-02T12:57:32.998Z</time></trkpt><trkpt lat="45.86618077356248" lon="11.246874516066622"><ele>1587.25</ele><time>2026-05-02T12:57:33.998Z</time></trkpt><trkpt lat="45.86614630813831" lon="11.247054587902031"><ele>1592.0</ele><time>2026-05-02T12:57:34.998Z</time></trkpt><trkpt lat="45.86613329371359" lon="11.247243962902084"><ele>1590.75</ele><time>2026-05-02T12:57:35.998Z</time></trkpt><trkpt lat="45.86608832613361" lon="11.24743591962093"><ele>1589.5</ele><time>2026-05-02T12:57:36.998Z</time></trkpt><trkpt lat="45.866018677526164" lon="11.247608277722845"><ele>1588.25</ele><time>2026-05-02T12:57:37.998Z</time></trkpt><trkpt lat="45.865949977887965" lon="11.247751555701845"><ele>1587.0</ele><time>2026-05-02T12:57:38.998Z</time></trkpt><trkpt lat="45.865900123000074" lon="11.247870550477602"><ele>1587.0</ele><time>2026-05-02T12:57:39.998Z</time></trkpt><trkpt lat="45.86583387963549" lon="11.247946068055544"><ele>1587.0</ele><time>2026-05-02T12:57:40.998Z</time></trkpt><trkpt lat="45.8657398085494" lon="11.247943936849447"><ele>1587.0</ele><time>2026-05-02T12:57:41.998Z</time></trkpt><trkpt lat="45.86565116039411" lon="11.247998928408723"><ele>1587.0</ele><time>2026-05-02T12:57:42.998Z</time></trkpt><trkpt lat="45.865552793291585" lon="11.248068185821985"><ele>1587.0</ele><time>2026-05-02T12:57:43.998Z</time></trkpt><trkpt lat="45.86546232918536" lon="11.248191790867487"><ele>1590.0</ele><time>2026-05-02T12:57:44.998Z</time></trkpt><trkpt lat="45.86538595117468" lon="11.248331869228698"><ele>1593.0</ele><time>2026-05-02T12:57:45.998Z</time></trkpt><trkpt lat="45.86531246577342" lon="11.248455186337937"><ele>1596.0</ele><time>2026-05-02T12:57:46.998Z</time></trkpt><trkpt lat="45.86525680004795" lon="11.248560055575838"><ele>1599.0</ele><time>2026-05-02T12:57:47.998Z</time></trkpt><trkpt lat="45.865219907797865" lon="11.248681043034924"><ele>1602.0</ele><time>2026-05-02T12:57:48.998Z</time></trkpt><trkpt lat="45.86521739799988" lon="11.248824612133253"><ele>1602.0</ele><time>2026-05-02T12:57:49.998Z</time></trkpt><trkpt lat="45.86526784064994" lon="11.248949043371645"><ele>1602.0</ele><time>2026-05-02T12:57:50.998Z</time></trkpt><trkpt lat="45.865353738130125" lon="11.249045685762795"><ele>1602.0</ele><time>2026-05-02T12:57:51.998Z</time></trkpt><trkpt lat="45.865466824083214" lon="11.249102227384295"><ele>1602.0</ele><time>2026-05-02T12:57:52.998Z</time></trkpt><trkpt lat="45.86559160358935" lon="11.249148723034242"><ele>1603.75</ele><time>2026-05-02T12:57:53.998Z</time></trkpt><trkpt lat="45.86571815632194" lon="11.24920781428795"><ele>1605.5</ele><time>2026-05-02T12:57:54.998Z</time></trkpt><trkpt lat="45.865831698962474" lon="11.249301853708404"><ele>1607.25</ele><time>2026-05-02T12:57:55.998Z</time></trkpt><trkpt lat="45.8659424598287" lon="11.24944004908972"><ele>1609.0</ele><time>2026-05-02T12:57:56.998Z</time></trkpt><trkpt lat="45.866048513662456" lon="11.249595736061456"><ele>1620.0</ele><time>2026-05-02T12:57:57.998Z</time></trkpt><trkpt lat="45.86615193425946" lon="11.24977142700456"><ele>1631.0</ele><time>2026-05-02T12:57:58.998Z</time></trkpt><trkpt lat="45.86626460917958" lon="11.24994294875986"><ele>1642.0</ele><time>2026-05-02T12:57:59.998Z</time></trkpt><trkpt lat="45.86637804430584" lon="11.25014021773193"><ele>1642.0</ele><time>2026-05-02T12:58:00.998Z</time></trkpt><trkpt lat="45.866497779695386" lon="11.25032447796905"><ele>1642.0</ele><time>2026-05-02T12:58:01.998Z</time></trkpt><trkpt lat="45.86661483606667" lon="11.250510523006271"><ele>1642.0</ele><time>2026-05-02T12:58:02.998Z</time></trkpt><trkpt lat="45.866732964977444" lon="11.250669817823814"><ele>1647.3333333333335</ele><time>2026-05-02T12:58:03.998Z</time></trkpt><trkpt lat="45.866848687614706" lon="11.250837499254658"><ele>1652.6666666666665</ele><time>2026-05-02T12:58:04.998Z</time></trkpt><trkpt lat="45.86695580246365" lon="11.25101487654587"><ele>1658.0</ele><time>2026-05-02T12:58:05.997Z</time></trkpt><trkpt lat="45.8670757677173" lon="11.251145728677917"><ele>1658.0</ele><time>2026-05-02T12:58:06.997Z</time></trkpt><trkpt lat="45.86720686952111" lon="11.251246388759492"><ele>1658.0</ele><time>2026-05-02T12:58:07.997Z</time></trkpt><trkpt lat="45.86736158659169" lon="11.251357400441739"><ele>1658.0</ele><time>2026-05-02T12:58:08.997Z</time></trkpt><trkpt lat="45.867507552187135" lon="11.251427901511002"><ele>1655.4</ele><time>2026-05-02T12:58:09.997Z</time></trkpt><trkpt lat="45.86760043878441" lon="11.251516083172607"><ele>1652.8000000000002</ele><time>2026-05-02T12:58:10.997Z</time></trkpt><trkpt lat="45.86771664677927" lon="11.251539840749011"><ele>1650.2</ele><time>2026-05-02T12:58:11.997Z</time></trkpt><trkpt lat="45.86781020480051" lon="11.251577065312306"><ele>1647.6</ele><time>2026-05-02T12:58:13Z</time></trkpt><trkpt lat="45.86791309985308" lon="11.251623605042854"><ele>1645.0</ele><time>2026-05-02T12:58:14Z</time></trkpt><trkpt lat="45.867976216904765" lon="11.251652209108551"><ele>1645.0</ele><time>2026-05-02T12:58:15Z</time></trkpt><trkpt lat="45.868318245936166" lon="11.251946479128003"><ele>1645.0</ele><time>2026-05-02T12:58:16Z</time></trkpt><trkpt lat="45.86841914369957" lon="11.252109758458428"><ele>1645.0</ele><time>2026-05-02T12:58:17Z</time></trkpt><trkpt lat="45.868513072050376" lon="11.252286929585086"><ele>1645.0</ele><time>2026-05-02T12:58:18Z</time></trkpt><trkpt lat="45.868598577906376" lon="11.252463530557765"><ele>1645.0</ele><time>2026-05-02T12:58:19Z</time></trkpt><trkpt lat="45.86868934443598" lon="11.25258992110778"><ele>1645.0</ele><time>2026-05-02T12:58:20Z</time></trkpt><trkpt lat="45.86879717038374" lon="11.252679156032245"><ele>1645.0</ele><time>2026-05-02T12:58:21Z</time></trkpt><trkpt lat="45.8689266637774" lon="11.252707905623636"><ele>1645.0</ele><time>2026-05-02T12:58:22Z</time></trkpt><trkpt lat="45.86904898247334" lon="11.252754471235443"><ele>1645.0</ele><time>2026-05-02T12:58:23Z</time></trkpt><trkpt lat="45.86913877160751" lon="11.252882789930007"><ele>1645.0</ele><time>2026-05-02T12:58:24Z</time></trkpt><trkpt lat="45.869232309810904" lon="11.253019073338699"><ele>1650.0</ele><time>2026-05-02T12:58:25Z</time></trkpt><trkpt lat="45.86933114080063" lon="11.253179951413516"><ele>1655.0</ele><time>2026-05-02T12:58:26Z</time></trkpt><trkpt lat="45.86944591247302" lon="11.25333094346523"><ele>1660.0</ele><time>2026-05-02T12:58:27Z</time></trkpt><trkpt lat="45.86955708079819" lon="11.253513731460695"><ele>1660.0</ele><time>2026-05-02T12:58:28Z</time></trkpt><trkpt lat="45.86967924271804" lon="11.253706272230854"><ele>1660.0</ele><time>2026-05-02T12:58:29Z</time></trkpt><trkpt lat="45.86980370412152" lon="11.253907419369781"><ele>1660.0</ele><time>2026-05-02T12:58:30Z</time></trkpt><trkpt lat="45.869931889833936" lon="11.254102486111185"><ele>1663.0</ele><time>2026-05-02T12:58:31Z</time></trkpt><trkpt lat="45.8700577152441" lon="11.254278723871172"><ele>1666.0</ele><time>2026-05-02T12:58:32Z</time></trkpt><trkpt lat="45.870183378137696" lon="11.2544452507948"><ele>1669.0</ele><time>2026-05-02T12:58:33Z</time></trkpt><trkpt lat="45.87029857009857" lon="11.254573362995998"><ele>1669.0</ele><time>2026-05-02T12:58:34Z</time></trkpt><trkpt lat="45.87043254057482" lon="11.254669713888529"><ele>1669.0</ele><time>2026-05-02T12:58:35Z</time></trkpt><trkpt lat="45.87057062151679" lon="11.25472854264286"><ele>1669.0</ele><time>2026-05-02T12:58:36Z</time></trkpt><trkpt lat="45.870711929241175" lon="11.25477919944849"><ele>1669.0</ele><time>2026-05-02T12:58:37Z</time></trkpt><trkpt lat="45.87087222961102" lon="11.25478254668103"><ele>1670.0</ele><time>2026-05-02T12:58:38Z</time></trkpt><trkpt lat="45.871022503301965" lon="11.254807683943584"><ele>1671.0</ele><time>2026-05-02T12:58:39Z</time></trkpt><trkpt lat="45.87116369847424" lon="11.25479059118124"><ele>1672.0</ele><time>2026-05-02T12:58:40Z</time></trkpt><trkpt lat="45.87130788694069" lon="11.254750470398815"><ele>1673.0</ele><time>2026-05-02T12:58:41Z</time></trkpt><trkpt lat="45.87144970122193" lon="11.254682091937878"><ele>1673.0</ele><time>2026-05-02T12:58:42Z</time></trkpt><trkpt lat="45.87159187760119" lon="11.254602513606415"><ele>1673.0</ele><time>2026-05-02T12:58:43Z</time></trkpt><trkpt lat="45.87173762521367" lon="11.254532481084365"><ele>1673.0</ele><time>2026-05-02T12:58:44Z</time></trkpt><trkpt lat="45.871876271591525" lon="11.2544626396619"><ele>1675.5</ele><time>2026-05-02T12:58:45Z</time></trkpt><trkpt lat="45.87201221697111" lon="11.254413656873252"><ele>1678.0</ele><time>2026-05-02T12:58:46Z</time></trkpt><trkpt lat="45.872150176762865" lon="11.25443296049779"><ele>1680.5</ele><time>2026-05-02T12:58:46.999Z</time></trkpt><trkpt lat="45.87227223143513" lon="11.25442197554654"><ele>1683.0</ele><time>2026-05-02T12:58:47.999Z</time></trkpt><trkpt lat="45.87237960140629" lon="11.254453178457439"><ele>1683.0</ele><time>2026-05-02T12:58:48.999Z</time></trkpt><trkpt lat="45.87246263956683" lon="11.254528806139604"><ele>1683.0</ele><time>2026-05-02T12:58:49.999Z</time></trkpt><trkpt lat="45.87256482513535" lon="11.25457272727269"><ele>1683.0</ele><time>2026-05-02T12:58:50.999Z</time></trkpt><trkpt lat="45.87265273483146" lon="11.254642045885731"><ele>1683.0</ele><time>2026-05-02T12:58:51.999Z</time></trkpt><trkpt lat="45.872749875118586" lon="11.254721545116146"><ele>1683.0</ele><time>2026-05-02T12:58:52.999Z</time></trkpt><trkpt lat="45.87282486461596" lon="11.254842041706219"><ele>1685.25</ele><time>2026-05-02T12:58:53.999Z</time></trkpt><trkpt lat="45.87283775993303" lon="11.255008463062339"><ele>1687.5</ele><time>2026-05-02T12:58:54.999Z</time></trkpt><trkpt lat="45.87286564640552" lon="11.255181123948807"><ele>1689.75</ele><time>2026-05-02T12:58:55.999Z</time></trkpt><trkpt lat="45.8728972250035" lon="11.255344690142518"><ele>1692.0</ele><time>2026-05-02T12:58:56.999Z</time></trkpt><trkpt lat="45.87289230770928" lon="11.2555240549539"><ele>1692.5</ele><time>2026-05-02T12:58:57.999Z</time></trkpt><trkpt lat="45.87283259438791" lon="11.255677658142707"><ele>1693.0</ele><time>2026-05-02T12:58:58.999Z</time></trkpt><trkpt lat="45.87277142764501" lon="11.255836030250627"><ele>1693.5</ele><time>2026-05-02T12:58:59.999Z</time></trkpt><trkpt lat="45.8727198468001" lon="11.255980515382179"><ele>1694.0</ele><time>2026-05-02T12:59:00.999Z</time></trkpt><trkpt lat="45.87270323710673" lon="11.256137882925275"><ele>1694.0</ele><time>2026-05-02T12:59:01.999Z</time></trkpt><trkpt lat="45.872710955171684" lon="11.256304212104888"><ele>1694.0</ele><time>2026-05-02T12:59:02.999Z</time></trkpt><trkpt lat="45.872745930188536" lon="11.256453194930215"><ele>1694.0</ele><time>2026-05-02T12:59:03.999Z</time></trkpt><trkpt lat="45.87275212401549" lon="11.256581874655943"><ele>1694.0</ele><time>2026-05-02T12:59:04.999Z</time></trkpt><trkpt lat="45.872753160021496" lon="11.256692179201417"><ele>1694.0</ele><time>2026-05-02T12:59:05.999Z</time></trkpt><trkpt lat="45.872725839810464" lon="11.256785305587954"><ele>1694.8000000000002</ele><time>2026-05-02T12:59:06.999Z</time></trkpt><trkpt lat="45.872672378711016" lon="11.256864590779344"><ele>1695.6000000000001</ele><time>2026-05-02T12:59:07.999Z</time></trkpt><trkpt lat="45.872627338511386" lon="11.256967381640381"><ele>1696.4</ele><time>2026-05-02T12:59:08.999Z</time></trkpt><trkpt lat="45.87260425330483" lon="11.25710073278284"><ele>1697.2</ele><time>2026-05-02T12:59:09.999Z</time></trkpt><trkpt lat="45.87260943314807" lon="11.257245697133502"><ele>1698.0</ele><time>2026-05-02T12:59:10.999Z</time></trkpt><trkpt lat="45.87263958794043" lon="11.257398214742864"><ele>1699.4</ele><time>2026-05-02T12:59:11.999Z</time></trkpt><trkpt lat="45.87267092391624" lon="11.257555076075121"><ele>1700.8000000000002</ele><time>2026-05-02T12:59:12.999Z</time></trkpt><trkpt lat="45.87268486765717" lon="11.25771822946497"><ele>1702.2</ele><time>2026-05-02T12:59:13.999Z</time></trkpt><trkpt lat="45.87264923104683" lon="11.257855944161134"><ele>1703.6</ele><time>2026-05-02T12:59:14.999Z</time></trkpt><trkpt lat="45.872620500741064" lon="11.257985875666423"><ele>1705.0</ele><time>2026-05-02T12:59:15.999Z</time></trkpt><trkpt lat="45.87256019061004" lon="11.258076891173177"><ele>1702.6</ele><time>2026-05-02T12:59:16.999Z</time></trkpt><trkpt lat="45.8724846913807" lon="11.25816453540449"><ele>1700.2</ele><time>2026-05-02T12:59:17.999Z</time></trkpt><trkpt lat="45.87239979195703" lon="11.258263947345455"><ele>1697.8000000000002</ele><time>2026-05-02T12:59:18.999Z</time></trkpt><trkpt lat="45.872316690935" lon="11.258378004521216"><ele>1695.4</ele><time>2026-05-02T12:59:19.999Z</time></trkpt><trkpt lat="45.87222016386015" lon="11.258487226425856"><ele>1693.0</ele><time>2026-05-02T12:59:20.999Z</time></trkpt><trkpt lat="45.87212703254552" lon="11.25862697284014"><ele>1693.0</ele><time>2026-05-02T12:59:21.999Z</time></trkpt><trkpt lat="45.87203828269723" lon="11.25879489812958"><ele>1693.0</ele><time>2026-05-02T12:59:22.999Z</time></trkpt><trkpt lat="45.8719489881689" lon="11.258975117789907"><ele>1693.0</ele><time>2026-05-02T12:59:23.999Z</time></trkpt><trkpt lat="45.87185410274769" lon="11.259145366770772"><ele>1692.3333333333335</ele><time>2026-05-02T12:59:24.999Z</time></trkpt><trkpt lat="45.87176095416854" lon="11.259324583922353"><ele>1691.6666666666665</ele><time>2026-05-02T12:59:25.999Z</time></trkpt><trkpt lat="45.87167408349229" lon="11.259498598358707"><ele>1691.0</ele><time>2026-05-02T12:59:26.999Z</time></trkpt><trkpt lat="45.871568964656234" lon="11.259689190184984"><ele>1692.5</ele><time>2026-05-02T12:59:27.999Z</time></trkpt><trkpt lat="45.871479497116795" lon="11.259854320097931"><ele>1694.0</ele><time>2026-05-02T12:59:28.998Z</time></trkpt><trkpt lat="45.87140276240425" lon="11.26000227630211"><ele>1695.5</ele><time>2026-05-02T12:59:29.998Z</time></trkpt><trkpt lat="45.871331748095876" lon="11.260139056723586"><ele>1697.0</ele><time>2026-05-02T12:59:30.998Z</time></trkpt><trkpt lat="45.87128798595456" lon="11.260268898080826"><ele>1697.0</ele><time>2026-05-02T12:59:31.998Z</time></trkpt><trkpt lat="45.87129042435217" lon="11.260391126180497"><ele>1697.0</ele><time>2026-05-02T12:59:32.998Z</time></trkpt><trkpt lat="45.87132204121861" lon="11.260517232550951"><ele>1697.0</ele><time>2026-05-02T12:59:33.998Z</time></trkpt><trkpt lat="45.871378691097576" lon="11.260637076362668"><ele>1697.0</ele><time>2026-05-02T12:59:34.998Z</time></trkpt><trkpt lat="45.871454752658416" lon="11.260735953228696"><ele>1697.0</ele><time>2026-05-02T12:59:35.998Z</time></trkpt><trkpt lat="45.87154771097" lon="11.260803852461306"><ele>1697.6666666666665</ele><time>2026-05-02T12:59:36.998Z</time></trkpt><trkpt lat="45.87163507220087" lon="11.260852579166814"><ele>1698.3333333333333</ele><time>2026-05-02T12:59:37.998Z</time></trkpt><trkpt lat="45.87172253394511" lon="11.260859276478262"><ele>1699.0</ele><time>2026-05-02T12:59:38.998Z</time></trkpt><trkpt lat="45.87178904497528" lon="11.26079912627675"><ele>1699.6666666666665</ele><time>2026-05-02T12:59:39.998Z</time></trkpt><trkpt lat="45.87184022002842" lon="11.260696536350054"><ele>1700.3333333333333</ele><time>2026-05-02T12:59:40.998Z</time></trkpt><trkpt lat="45.87188002159683" lon="11.260565667833061"><ele>1701.0</ele><time>2026-05-02T12:59:41.998Z</time></trkpt><trkpt lat="45.871908149144126" lon="11.260407966874865"><ele>1703.75</ele><time>2026-05-02T12:59:42.998Z</time></trkpt><trkpt lat="45.87193812793491" lon="11.260244509579906"><ele>1706.5</ele><time>2026-05-02T12:59:43.998Z</time></trkpt><trkpt lat="45.87197437567077" lon="11.260067414308775"><ele>1709.25</ele><time>2026-05-02T12:59:44.998Z</time></trkpt><trkpt lat="45.87199823794503" lon="11.259884683070522"><ele>1712.0</ele><time>2026-05-02T12:59:45.998Z</time></trkpt><trkpt lat="45.87202736389727" lon="11.259726189083898"><ele>1712.0</ele><time>2026-05-02T12:59:46.998Z</time></trkpt><trkpt lat="45.87207566829114" lon="11.259588752735304"><ele>1711.9999999999998</ele><time>2026-05-02T12:59:47.998Z</time></trkpt><trkpt lat="45.87212172007522" lon="11.259490928343304"><ele>1711.9999999999998</ele><time>2026-05-02T12:59:48.998Z</time></trkpt><trkpt lat="45.87221672526164" lon="11.259411788770546"><ele>1712.0</ele><time>2026-05-02T12:59:50.998Z</time></trkpt><trkpt lat="45.87233235493162" lon="11.259494699184618"><ele>1712.0</ele><time>2026-05-02T12:59:52.998Z</time></trkpt><trkpt lat="45.87235359277055" lon="11.259585635392407"><ele>1711.9999999999998</ele><time>2026-05-02T12:59:53.998Z</time></trkpt><trkpt lat="45.87233774657254" lon="11.259686294439703"><ele>1712.0</ele><time>2026-05-02T12:59:54.998Z</time></trkpt><trkpt lat="45.872290716762755" lon="11.259771949383403"><ele>1712.0</ele><time>2026-05-02T12:59:55.998Z</time></trkpt><trkpt lat="45.872218949932495" lon="11.25984027688228"><ele>1712.0</ele><time>2026-05-02T12:59:56.998Z</time></trkpt><trkpt lat="45.87215004588089" lon="11.259918803816237"><ele>1711.9999999999998</ele><time>2026-05-02T12:59:57.998Z</time></trkpt><trkpt lat="45.87210410465389" lon="11.260037375029796"><ele>1712.0</ele><time>2026-05-02T12:59:58.998Z</time></trkpt><trkpt lat="45.87209579335412" lon="11.260188233354448"><ele>1717.0</ele><time>2026-05-02T12:59:59.998Z</time></trkpt><trkpt lat="45.872121643223245" lon="11.26034986393759"><ele>1722.0</ele><time>2026-05-02T13:00:00.998Z</time></trkpt><trkpt lat="45.87215608681665" lon="11.260525579726036"><ele>1727.0</ele><time>2026-05-02T13:00:01.998Z</time></trkpt><trkpt lat="45.872184114082636" lon="11.260717508635421"><ele>1732.0</ele><time>2026-05-02T13:00:02.998Z</time></trkpt><trkpt lat="45.87219542461137" lon="11.26090886504031"><ele>1734.0</ele><time>2026-05-02T13:00:03.998Z</time></trkpt><trkpt lat="45.87220141647236" lon="11.261106388585322"><ele>1736.0</ele><time>2026-05-02T13:00:04.998Z</time></trkpt><trkpt lat="45.87219442682282" lon="11.261315257467938"><ele>1738.0</ele><time>2026-05-02T13:00:05.998Z</time></trkpt><trkpt lat="45.87217160826443" lon="11.26153451993064"><ele>1740.0</ele><time>2026-05-02T13:00:06.998Z</time></trkpt><trkpt lat="45.872143063492665" lon="11.26175099212189"><ele>1741.3333333333335</ele><time>2026-05-02T13:00:07.998Z</time></trkpt><trkpt lat="45.872110367867215" lon="11.261956569482814"><ele>1742.6666666666667</ele><time>2026-05-02T13:00:08.998Z</time></trkpt><trkpt lat="45.872071192264265" lon="11.262189087852054"><ele>1744.0</ele><time>2026-05-02T13:00:09.998Z</time></trkpt><trkpt lat="45.87202997771823" lon="11.26242022069369"><ele>1748.6666666666667</ele><time>2026-05-02T13:00:10.997Z</time></trkpt><trkpt lat="45.87196514994718" lon="11.262644615250645"><ele>1753.3333333333335</ele><time>2026-05-02T13:00:11.997Z</time></trkpt><trkpt lat="45.87190315929028" lon="11.262866905300841"><ele>1758.0</ele><time>2026-05-02T13:00:12.997Z</time></trkpt><trkpt lat="45.87184509090051" lon="11.263094008494148"><ele>1748.6666666666665</ele><time>2026-05-02T13:00:13.997Z</time></trkpt><trkpt lat="45.87176955575549" lon="11.263319749676835"><ele>1739.3333333333333</ele><time>2026-05-02T13:00:14.997Z</time></trkpt><trkpt lat="45.87168983400801" lon="11.263532447013592"><ele>1730.0</ele><time>2026-05-02T13:00:15.997Z</time></trkpt><trkpt lat="45.87160851504727" lon="11.263745038800819"><ele>1736.6666666666665</ele><time>2026-05-02T13:00:16.997Z</time></trkpt><trkpt lat="45.871539515208504" lon="11.263961688230939"><ele>1743.3333333333335</ele><time>2026-05-02T13:00:17.997Z</time></trkpt><trkpt lat="45.87147249904674" lon="11.264179206767208"><ele>1750.0</ele><time>2026-05-02T13:00:19Z</time></trkpt><trkpt lat="45.87140735909992" lon="11.264403410671733"><ele>1750.0</ele><time>2026-05-02T13:00:20Z</time></trkpt><trkpt lat="45.87135778146619" lon="11.26462241059085"><ele>1750.0</ele><time>2026-05-02T13:00:21Z</time></trkpt><trkpt lat="45.87132108560001" lon="11.26483858122534"><ele>1750.0</ele><time>2026-05-02T13:00:22Z</time></trkpt><trkpt lat="45.871285861937324" lon="11.265044034125996"><ele>1754.5</ele><time>2026-05-02T13:00:23Z</time></trkpt><trkpt lat="45.871271736647074" lon="11.265256107903395"><ele>1759.0</ele><time>2026-05-02T13:00:24Z</time></trkpt><trkpt lat="45.871279345152765" lon="11.265469498788198"><ele>1763.5</ele><time>2026-05-02T13:00:25Z</time></trkpt><trkpt lat="45.871295848999345" lon="11.265684692256855"><ele>1768.0</ele><time>2026-05-02T13:00:26Z</time></trkpt><trkpt lat="45.871291966623104" lon="11.265908550760972"><ele>1769.6666666666667</ele><time>2026-05-02T13:00:27Z</time></trkpt><trkpt lat="45.87127726603721" lon="11.266138610823653"><ele>1771.3333333333335</ele><time>2026-05-02T13:00:28Z</time></trkpt><trkpt lat="45.871262271735745" lon="11.266369651536289"><ele>1773.0</ele><time>2026-05-02T13:00:29Z</time></trkpt><trkpt lat="45.87124790919036" lon="11.266606899082968"><ele>1773.0</ele><time>2026-05-02T13:00:30Z</time></trkpt><trkpt lat="45.87121913272101" lon="11.266837990730163"><ele>1773.0</ele><time>2026-05-02T13:00:31Z</time></trkpt><trkpt lat="45.87119709126795" lon="11.26706408971133"><ele>1773.0</ele><time>2026-05-02T13:00:32Z</time></trkpt><trkpt lat="45.871171280835014" lon="11.267293511184903"><ele>1771.6666666666665</ele><time>2026-05-02T13:00:33Z</time></trkpt><trkpt lat="45.87115841721278" lon="11.267529283807894"><ele>1770.3333333333333</ele><time>2026-05-02T13:00:34Z</time></trkpt><trkpt lat="45.871136322840115" lon="11.267764377750716"><ele>1769.0</ele><time>2026-05-02T13:00:35Z</time></trkpt><trkpt lat="45.87109285040901" lon="11.267994048440876"><ele>1768.3333333333333</ele><time>2026-05-02T13:00:36Z</time></trkpt><trkpt lat="45.87102731008092" lon="11.26821744844684"><ele>1767.6666666666665</ele><time>2026-05-02T13:00:37Z</time></trkpt><trkpt lat="45.87096322700807" lon="11.268433482088069"><ele>1767.0</ele><time>2026-05-02T13:00:38Z</time></trkpt><trkpt lat="45.87090102222341" lon="11.268641308263817"><ele>1764.0</ele><time>2026-05-02T13:00:39Z</time></trkpt><trkpt lat="45.87083686381024" lon="11.26881895474623"><ele>1761.0</ele><time>2026-05-02T13:00:40Z</time></trkpt><trkpt lat="45.87074568121617" lon="11.268963241649722"><ele>1758.0</ele><time>2026-05-02T13:00:41Z</time></trkpt><trkpt lat="45.870634076627" lon="11.269091884286798"><ele>1755.0</ele><time>2026-05-02T13:00:42Z</time></trkpt><trkpt lat="45.87050631909868" lon="11.269208892515028"><ele>1753.0</ele><time>2026-05-02T13:00:43Z</time></trkpt><trkpt lat="45.87036667110097" lon="11.269314577013274"><ele>1751.0</ele><time>2026-05-02T13:00:44Z</time></trkpt><trkpt lat="45.87023170747054" lon="11.26942701775711"><ele>1749.0</ele><time>2026-05-02T13:00:45Z</time></trkpt><trkpt lat="45.87008666927845" lon="11.269560288894317"><ele>1749.0</ele><time>2026-05-02T13:00:46Z</time></trkpt><trkpt lat="45.869944031130174" lon="11.269701962911013"><ele>1749.0</ele><time>2026-05-02T13:00:47Z</time></trkpt><trkpt lat="45.86981872964847" lon="11.269864075268988"><ele>1749.0</ele><time>2026-05-02T13:00:48Z</time></trkpt><trkpt lat="45.86969346544154" lon="11.270050086460502"><ele>1760.3333333333335</ele><time>2026-05-02T13:00:49Z</time></trkpt><trkpt lat="45.86956949342368" lon="11.270241143393745"><ele>1771.6666666666667</ele><time>2026-05-02T13:00:50Z</time></trkpt><trkpt lat="45.8694477261293" lon="11.270445537933035"><ele>1783.0</ele><time>2026-05-02T13:00:51Z</time></trkpt><trkpt lat="45.8693237831679" lon="11.270643087139106"><ele>1780.0</ele><time>2026-05-02T13:00:51.999Z</time></trkpt><trkpt lat="45.86920628973174" lon="11.270832856612586"><ele>1777.0</ele><time>2026-05-02T13:00:52.999Z</time></trkpt><trkpt lat="45.86907943472332" lon="11.270983358399233"><ele>1774.0</ele><time>2026-05-02T13:00:53.999Z</time></trkpt><trkpt lat="45.86894966640136" lon="11.271099031674986"><ele>1774.0</ele><time>2026-05-02T13:00:54.999Z</time></trkpt><trkpt lat="45.86882736300008" lon="11.271219083781615"><ele>1774.0</ele><time>2026-05-02T13:00:55.999Z</time></trkpt><trkpt lat="45.86871446149602" lon="11.271339497331276"><ele>1774.0</ele><time>2026-05-02T13:00:56.999Z</time></trkpt><trkpt lat="45.868600971355164" lon="11.271462168868444"><ele>1774.0</ele><time>2026-05-02T13:00:57.999Z</time></trkpt><trkpt lat="45.86849221196935" lon="11.27158359499436"><ele>1774.1666666666667</ele><time>2026-05-02T13:00:58.999Z</time></trkpt><trkpt lat="45.86840336285908" lon="11.271707740955193"><ele>1774.3333333333335</ele><time>2026-05-02T13:00:59.999Z</time></trkpt><trkpt lat="45.8683183278035" lon="11.271794562154808"><ele>1774.5</ele><time>2026-05-02T13:01:00.999Z</time></trkpt><trkpt lat="45.868256292763036" lon="11.2718631129715"><ele>1774.6666666666665</ele><time>2026-05-02T13:01:01.999Z</time></trkpt><trkpt lat="45.86821271140933" lon="11.271937314699883"><ele>1774.8333333333333</ele><time>2026-05-02T13:01:02.999Z</time></trkpt><trkpt lat="45.86818610027182" lon="11.272031184933002"><ele>1775.0</ele><time>2026-05-02T13:01:03.999Z</time></trkpt><trkpt lat="45.86819729829208" lon="11.272137787837057"><ele>1775.0</ele><time>2026-05-02T13:01:04.999Z</time></trkpt><trkpt lat="45.86823854853518" lon="11.272243755357705"><ele>1775.0</ele><time>2026-05-02T13:01:05.999Z</time></trkpt><trkpt lat="45.86830543666346" lon="11.272316306728662"><ele>1775.0</ele><time>2026-05-02T13:01:06.999Z</time></trkpt><trkpt lat="45.86838507309073" lon="11.27235312899538"><ele>1775.0</ele><time>2026-05-02T13:01:07.999Z</time></trkpt><trkpt lat="45.86848128873521" lon="11.272381342040847"><ele>1775.0</ele><time>2026-05-02T13:01:08.999Z</time></trkpt><trkpt lat="45.86858952950208" lon="11.272417558911442"><ele>1779.3333333333333</ele><time>2026-05-02T13:01:09.999Z</time></trkpt><trkpt lat="45.86874276391168" lon="11.272491840938708"><ele>1783.6666666666665</ele><time>2026-05-02T13:01:10.999Z</time></trkpt><trkpt lat="45.868876997986604" lon="11.272575185946845"><ele>1788.0</ele><time>2026-05-02T13:01:11.999Z</time></trkpt><trkpt lat="45.8690176208108" lon="11.272671032973923"><ele>1788.0</ele><time>2026-05-02T13:01:12.999Z</time></trkpt><trkpt lat="45.8691654074373" lon="11.272788527278678"><ele>1788.0</ele><time>2026-05-02T13:01:13.999Z</time></trkpt><trkpt lat="45.86931298095644" lon="11.272903306564746"><ele>1788.0</ele><time>2026-05-02T13:01:14.999Z</time></trkpt><trkpt lat="45.86945666900642" lon="11.273041888901782"><ele>1786.3333333333335</ele><time>2026-05-02T13:01:15.999Z</time></trkpt><trkpt lat="45.86958416459089" lon="11.273212801506"><ele>1784.6666666666667</ele><time>2026-05-02T13:01:16.999Z</time></trkpt><trkpt lat="45.86970792804914" lon="11.27338520450398"><ele>1783.0</ele><time>2026-05-02T13:01:17.999Z</time></trkpt><trkpt lat="45.86982817632939" lon="11.273563641713388"><ele>1783.0</ele><time>2026-05-02T13:01:18.999Z</time></trkpt><trkpt lat="45.86993980640928" lon="11.273752624165851"><ele>1783.0</ele><time>2026-05-02T13:01:19.999Z</time></trkpt><trkpt lat="45.87004780168691" lon="11.273937359625627"><ele>1783.0</ele><time>2026-05-02T13:01:20.999Z</time></trkpt><trkpt lat="45.87014666420805" lon="11.274115521187243"><ele>1784.0</ele><time>2026-05-02T13:01:21.999Z</time></trkpt><trkpt lat="45.870247270325656" lon="11.27429342667301"><ele>1785.0</ele><time>2026-05-02T13:01:22.999Z</time></trkpt><trkpt lat="45.87033494543454" lon="11.274466499224225"><ele>1786.0</ele><time>2026-05-02T13:01:23.999Z</time></trkpt><trkpt lat="45.870419923905864" lon="11.274638105738742"><ele>1780.0</ele><time>2026-05-02T13:01:24.999Z</time></trkpt><trkpt lat="45.87050670034168" lon="11.274814108249345"><ele>1774.0</ele><time>2026-05-02T13:01:25.999Z</time></trkpt><trkpt lat="45.87058662016261" lon="11.274993428875305"><ele>1768.0</ele><time>2026-05-02T13:01:26.999Z</time></trkpt><trkpt lat="45.87064853551581" lon="11.275159112728518"><ele>1762.0</ele><time>2026-05-02T13:01:27.999Z</time></trkpt><trkpt lat="45.87070930607895" lon="11.275317225175392"><ele>1762.0</ele><time>2026-05-02T13:01:28.999Z</time></trkpt><trkpt lat="45.870747564638876" lon="11.275470188237374"><ele>1762.0</ele><time>2026-05-02T13:01:29.999Z</time></trkpt><trkpt lat="45.870756052137885" lon="11.275631642186129"><ele>1762.0</ele><time>2026-05-02T13:01:30.999Z</time></trkpt><trkpt lat="45.87073353976859" lon="11.275789567066024"><ele>1762.0</ele><time>2026-05-02T13:01:31.999Z</time></trkpt><trkpt lat="45.87065813855526" lon="11.275937279836183"><ele>1761.0</ele><time>2026-05-02T13:01:32.999Z</time></trkpt><trkpt lat="45.87058440872528" lon="11.276109187202985"><ele>1760.0</ele><time>2026-05-02T13:01:33.998Z</time></trkpt><trkpt lat="45.87050680734431" lon="11.276310746272117"><ele>1759.0</ele><time>2026-05-02T13:01:34.998Z</time></trkpt><trkpt lat="45.870414189375964" lon="11.276515320291667"><ele>1759.0</ele><time>2026-05-02T13:01:35.998Z</time></trkpt><trkpt lat="45.8703183039447" lon="11.276720002624039"><ele>1759.0</ele><time>2026-05-02T13:01:36.998Z</time></trkpt><trkpt lat="45.87019675050159" lon="11.276896169244324"><ele>1759.0</ele><time>2026-05-02T13:01:37.998Z</time></trkpt><trkpt lat="45.87009085099592" lon="11.277079051488602"><ele>1753.3333333333335</ele><time>2026-05-02T13:01:38.998Z</time></trkpt><trkpt lat="45.869978769331055" lon="11.277240235114322"><ele>1747.6666666666665</ele><time>2026-05-02T13:01:39.998Z</time></trkpt><trkpt lat="45.869873356895006" lon="11.277402964510046"><ele>1742.0</ele><time>2026-05-02T13:01:40.998Z</time></trkpt><trkpt lat="45.8697784778016" lon="11.277548265761771"><ele>1742.0</ele><time>2026-05-02T13:01:41.998Z</time></trkpt><trkpt lat="45.86968659244104" lon="11.277677983988013"><ele>1742.0</ele><time>2026-05-02T13:01:42.998Z</time></trkpt><trkpt lat="45.86958353066023" lon="11.27778522557498"><ele>1742.0</ele><time>2026-05-02T13:01:43.998Z</time></trkpt><trkpt lat="45.869460376278944" lon="11.277826116367732"><ele>1742.0</ele><time>2026-05-02T13:01:44.998Z</time></trkpt><trkpt lat="45.86933485153832" lon="11.277851180730249"><ele>1734.75</ele><time>2026-05-02T13:01:45.998Z</time></trkpt><trkpt lat="45.869196000257" lon="11.277841764077163"><ele>1727.5</ele><time>2026-05-02T13:01:46.998Z</time></trkpt><trkpt lat="45.86905429254566" lon="11.277832143437927"><ele>1720.25</ele><time>2026-05-02T13:01:47.998Z</time></trkpt><trkpt lat="45.86891427173847" lon="11.277837280984569"><ele>1713.0</ele><time>2026-05-02T13:01:48.998Z</time></trkpt><trkpt lat="45.86878609628724" lon="11.27783501345918"><ele>1713.0</ele><time>2026-05-02T13:01:49.998Z</time></trkpt><trkpt lat="45.8686651202567" lon="11.27785024707932"><ele>1713.0</ele><time>2026-05-02T13:01:50.998Z</time></trkpt><trkpt lat="45.86855545220433" lon="11.2778984745919"><ele>1713.0</ele><time>2026-05-02T13:01:51.998Z</time></trkpt><trkpt lat="45.86846601401066" lon="11.277990058500858"><ele>1713.0</ele><time>2026-05-02T13:01:52.998Z</time></trkpt><trkpt lat="45.868406576588285" lon="11.27813000950223"><ele>1710.75</ele><time>2026-05-02T13:01:53.998Z</time></trkpt><trkpt lat="45.868377848725295" lon="11.278297749482782"><ele>1708.5</ele><time>2026-05-02T13:01:54.998Z</time></trkpt><trkpt lat="45.868382567673585" lon="11.278489151682614"><ele>1706.25</ele><time>2026-05-02T13:01:55.998Z</time></trkpt><trkpt lat="45.868420627350524" lon="11.278692074982214"><ele>1704.0</ele><time>2026-05-02T13:01:56.998Z</time></trkpt><trkpt lat="45.86847826073873" lon="11.278908577408679"><ele>1711.3333333333335</ele><time>2026-05-02T13:01:57.998Z</time></trkpt><trkpt lat="45.86853811301032" lon="11.27913600727215"><ele>1718.6666666666667</ele><time>2026-05-02T13:01:58.998Z</time></trkpt><trkpt lat="45.86858142270614" lon="11.27935456949336"><ele>1726.0</ele><time>2026-05-02T13:01:59.998Z</time></trkpt><trkpt lat="45.868616230775814" lon="11.279556769332123"><ele>1726.0</ele><time>2026-05-02T13:02:00.998Z</time></trkpt><trkpt lat="45.868650922444516" lon="11.279743878811436"><ele>1726.0</ele><time>2026-05-02T13:02:01.998Z</time></trkpt><trkpt lat="45.868681890346224" lon="11.279914610649012"><ele>1726.0</ele><time>2026-05-02T13:02:02.998Z</time></trkpt><trkpt lat="45.868709273838455" lon="11.28006362374373"><ele>1726.0</ele><time>2026-05-02T13:02:03.998Z</time></trkpt><trkpt lat="45.86873313601499" lon="11.28020138495771"><ele>1725.1666666666667</ele><time>2026-05-02T13:02:04.998Z</time></trkpt><trkpt lat="45.868740429829195" lon="11.280334685426977"><ele>1724.3333333333335</ele><time>2026-05-02T13:02:05.998Z</time></trkpt><trkpt lat="45.868718262660344" lon="11.280449552864809"><ele>1723.5</ele><time>2026-05-02T13:02:06.998Z</time></trkpt><trkpt lat="45.868661387362714" lon="11.280524615966549"><ele>1722.6666666666665</ele><time>2026-05-02T13:02:07.998Z</time></trkpt><trkpt lat="45.868585672761455" lon="11.280554942517425"><ele>1721.8333333333333</ele><time>2026-05-02T13:02:08.998Z</time></trkpt><trkpt lat="45.868504881620545" lon="11.28051662717491"><ele>1721.0</ele><time>2026-05-02T13:02:09.998Z</time></trkpt><trkpt lat="45.86844863963552" lon="11.280396650475303"><ele>1716.0</ele><time>2026-05-02T13:02:10.998Z</time></trkpt><trkpt lat="45.868394186669306" lon="11.280261494539676"><ele>1711.0</ele><time>2026-05-02T13:02:11.998Z</time></trkpt><trkpt lat="45.86833372971774" lon="11.280106071592481"><ele>1706.0</ele><time>2026-05-02T13:02:12.998Z</time></trkpt><trkpt lat="45.86825390219279" lon="11.279935054479068"><ele>1701.0</ele><time>2026-05-02T13:02:13.998Z</time></trkpt><trkpt lat="45.86818167262762" lon="11.279736120117708"><ele>1701.0</ele><time>2026-05-02T13:02:14.998Z</time></trkpt><trkpt lat="45.86810097883906" lon="11.279519426525395"><ele>1701.0</ele><time>2026-05-02T13:02:15.998Z</time></trkpt><trkpt lat="45.868022604848136" lon="11.27931993979109"><ele>1701.0</ele><time>2026-05-02T13:02:16.997Z</time></trkpt><trkpt lat="45.8679496297611" lon="11.27913894307715"><ele>1701.0</ele><time>2026-05-02T13:02:17.997Z</time></trkpt><trkpt lat="45.86788009601306" lon="11.278966091059868"><ele>1701.0</ele><time>2026-05-02T13:02:18.997Z</time></trkpt><trkpt lat="45.86782020103437" lon="11.278807830800341"><ele>1701.0</ele><time>2026-05-02T13:02:19.997Z</time></trkpt><trkpt lat="45.86776885751106" lon="11.278671161209985"><ele>1701.0</ele><time>2026-05-02T13:02:20.997Z</time></trkpt><trkpt lat="45.867718480538166" lon="11.278555704003649"><ele>1701.4285714285713</ele><time>2026-05-02T13:02:21.997Z</time></trkpt><trkpt lat="45.867675839841475" lon="11.278468085039021"><ele>1701.857142857143</ele><time>2026-05-02T13:02:22.997Z</time></trkpt><trkpt lat="45.86761992947031" lon="11.27841705257137"><ele>1702.2857142857142</ele><time>2026-05-02T13:02:23.997Z</time></trkpt><trkpt lat="45.86755172133667" lon="11.278414276562334"><ele>1702.7142857142858</ele><time>2026-05-02T13:02:25Z</time></trkpt><trkpt lat="45.86748529670676" lon="11.278437985170811"><ele>1703.142857142857</ele><time>2026-05-02T13:02:26Z</time></trkpt><trkpt lat="45.86742370426768" lon="11.278505026878687"><ele>1703.5714285714284</ele><time>2026-05-02T13:02:27Z</time></trkpt><trkpt lat="45.8673816315574" lon="11.278602910947207"><ele>1704.0</ele><time>2026-05-02T13:02:28Z</time></trkpt><trkpt lat="45.867370670253116" lon="11.278714781164412"><ele>1703.4</ele><time>2026-05-02T13:02:29Z</time></trkpt><trkpt lat="45.867401093298874" lon="11.278827619338612"><ele>1702.8000000000002</ele><time>2026-05-02T13:02:30Z</time></trkpt><trkpt lat="45.86747538073718" lon="11.27891030192846"><ele>1702.1999999999998</ele><time>2026-05-02T13:02:31Z</time></trkpt><trkpt lat="45.86756368703993" lon="11.278968064344761"><ele>1701.6</ele><time>2026-05-02T13:02:32Z</time></trkpt><trkpt lat="45.86766365080457" lon="11.27903061532318"><ele>1701.0</ele><time>2026-05-02T13:02:33Z</time></trkpt><trkpt lat="45.86775600534978" lon="11.279136319189979"><ele>1701.0</ele><time>2026-05-02T13:02:34Z</time></trkpt><trkpt lat="45.86782691009026" lon="11.279272087575702"><ele>1701.0</ele><time>2026-05-02T13:02:35Z</time></trkpt><trkpt lat="45.867879974237404" lon="11.279424638807273"><ele>1701.0</ele><time>2026-05-02T13:02:36Z</time></trkpt><trkpt lat="45.86791655595966" lon="11.279590468635918"><ele>1701.0</ele><time>2026-05-02T13:02:37Z</time></trkpt><trkpt lat="45.86793164704921" lon="11.279768271506562"><ele>1699.6</ele><time>2026-05-02T13:02:38Z</time></trkpt><trkpt lat="45.86793375821747" lon="11.279931601088302"><ele>1698.1999999999998</ele><time>2026-05-02T13:02:39Z</time></trkpt><trkpt lat="45.86793500955441" lon="11.280086472642086"><ele>1696.8000000000002</ele><time>2026-05-02T13:02:40Z</time></trkpt><trkpt lat="45.867953962798765" lon="11.280229215590161"><ele>1695.4</ele><time>2026-05-02T13:02:41Z</time></trkpt><trkpt lat="45.868016925119775" lon="11.280366760738408"><ele>1694.0</ele><time>2026-05-02T13:02:42Z</time></trkpt><trkpt lat="45.86809485347015" lon="11.280510326014575"><ele>1690.75</ele><time>2026-05-02T13:02:43Z</time></trkpt><trkpt lat="45.86817622268342" lon="11.280670987949884"><ele>1687.5</ele><time>2026-05-02T13:02:44Z</time></trkpt><trkpt lat="45.86824716478478" lon="11.280820256828708"><ele>1684.25</ele><time>2026-05-02T13:02:45Z</time></trkpt><trkpt lat="45.868298315632394" lon="11.280967359567803"><ele>1681.0</ele><time>2026-05-02T13:02:46Z</time></trkpt><trkpt lat="45.86834062685549" lon="11.281102780807403"><ele>1681.0000000000002</ele><time>2026-05-02T13:02:47Z</time></trkpt><trkpt lat="45.86838134941673" lon="11.281221434629858"><ele>1681.0</ele><time>2026-05-02T13:02:48Z</time></trkpt><trkpt lat="45.86843873218849" lon="11.281296863714687"><ele>1681.0</ele><time>2026-05-02T13:02:49Z</time></trkpt><trkpt lat="45.8685125607155" lon="11.281304780758294"><ele>1681.0</ele><time>2026-05-02T13:02:50Z</time></trkpt><trkpt lat="45.86858739988721" lon="11.281272084737921"><ele>1681.0000000000002</ele><time>2026-05-02T13:02:51Z</time></trkpt><trkpt lat="45.86867100415918" lon="11.281233325770996"><ele>1681.0</ele><time>2026-05-02T13:02:52Z</time></trkpt><trkpt lat="45.86877106007384" lon="11.281198157439245"><ele>1680.6</ele><time>2026-05-02T13:02:53Z</time></trkpt><trkpt lat="45.86887369652872" lon="11.28119164705801"><ele>1680.1999999999998</ele><time>2026-05-02T13:02:54Z</time></trkpt><trkpt lat="45.86895870965441" lon="11.281229950725292"><ele>1679.8000000000002</ele><time>2026-05-02T13:02:55Z</time></trkpt><trkpt lat="45.86903545607621" lon="11.281328206878586"><ele>1679.4</ele><time>2026-05-02T13:02:55.999Z</time></trkpt><trkpt lat="45.86910066681818" lon="11.281441318508964"><ele>1679.0</ele><time>2026-05-02T13:02:56.999Z</time></trkpt><trkpt lat="45.86917545917227" lon="11.281547930006669"><ele>1685.8000000000002</ele><time>2026-05-02T13:02:57.999Z</time></trkpt><trkpt lat="45.869282416440505" lon="11.281606497161171"><ele>1692.6000000000001</ele><time>2026-05-02T13:02:58.999Z</time></trkpt><trkpt lat="45.869384063466136" lon="11.281641877642318"><ele>1699.4</ele><time>2026-05-02T13:02:59.999Z</time></trkpt><trkpt lat="45.86946780317596" lon="11.281724822633295"><ele>1706.2</ele><time>2026-05-02T13:03:00.999Z</time></trkpt><trkpt lat="45.869524168057005" lon="11.281844931429493"><ele>1713.0</ele><time>2026-05-02T13:03:01.999Z</time></trkpt><trkpt lat="45.869558750962085" lon="11.281973592072173"><ele>1713.0</ele><time>2026-05-02T13:03:02.999Z</time></trkpt><trkpt lat="45.8695689818441" lon="11.282107194093218"><ele>1713.0000000000002</ele><time>2026-05-02T13:03:03.999Z</time></trkpt><trkpt lat="45.869568572526" lon="11.28225703274608"><ele>1713.0000000000002</ele><time>2026-05-02T13:03:04.999Z</time></trkpt><trkpt lat="45.86956660537554" lon="11.28243416555566"><ele>1713.0</ele><time>2026-05-02T13:03:05.999Z</time></trkpt><trkpt lat="45.86959331650702" lon="11.282609927371183"><ele>1713.0</ele><time>2026-05-02T13:03:06.999Z</time></trkpt><trkpt lat="45.869627140259574" lon="11.28278283871732"><ele>1709.75</ele><time>2026-05-02T13:03:07.999Z</time></trkpt><trkpt lat="45.86964307577195" lon="11.282966089156563"><ele>1706.5</ele><time>2026-05-02T13:03:08.999Z</time></trkpt><trkpt lat="45.86963716375501" lon="11.283143569856923"><ele>1703.25</ele><time>2026-05-02T13:03:09.999Z</time></trkpt><trkpt lat="45.869600599497936" lon="11.28329800633277"><ele>1700.0</ele><time>2026-05-02T13:03:10.999Z</time></trkpt><trkpt lat="45.869553657497974" lon="11.28341482362806"><ele>1700.0</ele><time>2026-05-02T13:03:11.999Z</time></trkpt><trkpt lat="45.8694404415407" lon="11.283622670528453"><ele>1700.0</ele><time>2026-05-02T13:03:12.999Z</time></trkpt><trkpt lat="45.86933334576728" lon="11.283754583944576"><ele>1700.0</ele><time>2026-05-02T13:03:13.999Z</time></trkpt><trkpt lat="45.869208829047196" lon="11.283898619751021"><ele>1693.0</ele><time>2026-05-02T13:03:14.999Z</time></trkpt><trkpt lat="45.86908918954122" lon="11.284055483479365"><ele>1686.0</ele><time>2026-05-02T13:03:15.999Z</time></trkpt><trkpt lat="45.86895681913346" lon="11.284215327875094"><ele>1679.0</ele><time>2026-05-02T13:03:16.999Z</time></trkpt><trkpt lat="45.86883237449067" lon="11.284382714659719"><ele>1679.0</ele><time>2026-05-02T13:03:17.999Z</time></trkpt><trkpt lat="45.868718138431376" lon="11.284544537858734"><ele>1679.0</ele><time>2026-05-02T13:03:18.999Z</time></trkpt><trkpt lat="45.86861060329573" lon="11.284693289687517"><ele>1679.0</ele><time>2026-05-02T13:03:19.999Z</time></trkpt><trkpt lat="45.868529964851845" lon="11.284817912947059"><ele>1679.0</ele><time>2026-05-02T13:03:20.999Z</time></trkpt><trkpt lat="45.868461778398455" lon="11.28495273620345"><ele>1674.25</ele><time>2026-05-02T13:03:21.999Z</time></trkpt><trkpt lat="45.8684256801366" lon="11.285097860868097"><ele>1669.5</ele><time>2026-05-02T13:03:22.999Z</time></trkpt><trkpt lat="45.868423964460916" lon="11.285246602559049"><ele>1664.75</ele><time>2026-05-02T13:03:23.999Z</time></trkpt><trkpt lat="45.8684500946306" lon="11.285410636171267"><ele>1660.0</ele><time>2026-05-02T13:03:24.999Z</time></trkpt><trkpt lat="45.86847861115392" lon="11.285593125598838"><ele>1668.75</ele><time>2026-05-02T13:03:25.999Z</time></trkpt><trkpt lat="45.86848272639887" lon="11.285760252700653"><ele>1677.5</ele><time>2026-05-02T13:03:26.999Z</time></trkpt><trkpt lat="45.86848115921883" lon="11.285921304602992"><ele>1686.25</ele><time>2026-05-02T13:03:27.999Z</time></trkpt><trkpt lat="45.868518558026906" lon="11.286064232957846"><ele>1695.0</ele><time>2026-05-02T13:03:28.999Z</time></trkpt><trkpt lat="45.868593537229394" lon="11.28619866307921"><ele>1695.0</ele><time>2026-05-02T13:03:29.999Z</time></trkpt><trkpt lat="45.86868309702081" lon="11.286324890335928"><ele>1695.0</ele><time>2026-05-02T13:03:30.999Z</time></trkpt><trkpt lat="45.86874733529356" lon="11.286435171503298"><ele>1695.0</ele><time>2026-05-02T13:03:31.999Z</time></trkpt><trkpt lat="45.86879209352313" lon="11.286504848447073"><ele>1695.0</ele><time>2026-05-02T13:03:32.999Z</time></trkpt><trkpt lat="45.86894962798799" lon="11.286767638797045"><ele>1697.6666666666665</ele><time>2026-05-02T13:03:33.999Z</time></trkpt><trkpt lat="45.86906438257839" lon="11.286887182233752"><ele>1700.3333333333333</ele><time>2026-05-02T13:03:34.999Z</time></trkpt><trkpt lat="45.86920500409611" lon="11.286979388089495"><ele>1703.0</ele><time>2026-05-02T13:03:35.999Z</time></trkpt><trkpt lat="45.86934678607478" lon="11.28706493232289"><ele>1703.0</ele><time>2026-05-02T13:03:36.999Z</time></trkpt><trkpt lat="45.86948139007032" lon="11.287175567343315"><ele>1703.0</ele><time>2026-05-02T13:03:37.999Z</time></trkpt><trkpt lat="45.86957202893273" lon="11.287307335429695"><ele>1703.0</ele><time>2026-05-02T13:03:38.999Z</time></trkpt><trkpt lat="45.8696392964818" lon="11.287423832045551"><ele>1703.0</ele><time>2026-05-02T13:03:39.999Z</time></trkpt><trkpt lat="45.86963389290006" lon="11.287541202319005"><ele>1699.25</ele><time>2026-05-02T13:03:40.998Z</time></trkpt><trkpt lat="45.8696396636059" lon="11.28766746269683"><ele>1695.5</ele><time>2026-05-02T13:03:41.998Z</time></trkpt><trkpt lat="45.86964939233418" lon="11.2878274094928"><ele>1691.75</ele><time>2026-05-02T13:03:42.998Z</time></trkpt><trkpt lat="45.86966023906133" lon="11.288012550632002"><ele>1688.0</ele><time>2026-05-02T13:03:43.998Z</time></trkpt><trkpt lat="45.869663859964234" lon="11.288214710567935"><ele>1681.25</ele><time>2026-05-02T13:03:44.998Z</time></trkpt><trkpt lat="45.8696707932422" lon="11.28841879467269"><ele>1674.5</ele><time>2026-05-02T13:03:45.998Z</time></trkpt><trkpt lat="45.86966237903141" lon="11.288617610877395"><ele>1667.75</ele><time>2026-05-02T13:03:46.998Z</time></trkpt><trkpt lat="45.86965352585894" lon="11.288792188299254"><ele>1661.0</ele><time>2026-05-02T13:03:47.998Z</time></trkpt><trkpt lat="45.869654043310454" lon="11.288943637994965"><ele>1656.8333333333333</ele><time>2026-05-02T13:03:48.998Z</time></trkpt><trkpt lat="45.86966909679567" lon="11.28906454905203"><ele>1652.6666666666665</ele><time>2026-05-02T13:03:49.998Z</time></trkpt><trkpt lat="45.86971203918615" lon="11.289165033608676"><ele>1648.5</ele><time>2026-05-02T13:03:50.998Z</time></trkpt><trkpt lat="45.86978495014204" lon="11.2891965019771"><ele>1644.3333333333335</ele><time>2026-05-02T13:03:51.998Z</time></trkpt><trkpt lat="45.869864470098314" lon="11.289174005208247"><ele>1640.1666666666667</ele><time>2026-05-02T13:03:52.998Z</time></trkpt><trkpt lat="45.869948834801654" lon="11.289107916768291"><ele>1636.0</ele><time>2026-05-02T13:03:53.998Z</time></trkpt><trkpt lat="45.87004635983339" lon="11.289034901174434"><ele>1636.0</ele><time>2026-05-02T13:03:54.998Z</time></trkpt><trkpt lat="45.870164943416015" lon="11.288985527791926"><ele>1636.0</ele><time>2026-05-02T13:03:55.998Z</time></trkpt><trkpt lat="45.870320103104035" lon="11.288940558973163"><ele>1636.0</ele><time>2026-05-02T13:03:56.998Z</time></trkpt><trkpt lat="45.87044818827316" lon="11.288950324609008"><ele>1636.0</ele><time>2026-05-02T13:03:57.998Z</time></trkpt><trkpt lat="45.87058232186202" lon="11.288998050789692"><ele>1636.0</ele><time>2026-05-02T13:03:58.998Z</time></trkpt><trkpt lat="45.8707130679238" lon="11.28906182910758"><ele>1636.0</ele><time>2026-05-02T13:03:59.998Z</time></trkpt><trkpt lat="45.87084077976467" lon="11.289125250790633"><ele>1636.0</ele><time>2026-05-02T13:04:00.998Z</time></trkpt><trkpt lat="45.87096416205796" lon="11.289186582864398"><ele>1636.0</ele><time>2026-05-02T13:04:01.998Z</time></trkpt><trkpt lat="45.871092130440864" lon="11.28915233912933"><ele>1634.75</ele><time>2026-05-02T13:04:02.998Z</time></trkpt><trkpt lat="45.871214667867996" lon="11.28913326957344"><ele>1633.5</ele><time>2026-05-02T13:04:03.998Z</time></trkpt><trkpt lat="45.87132333266921" lon="11.289188731787124"><ele>1632.25</ele><time>2026-05-02T13:04:04.998Z</time></trkpt><trkpt lat="45.87142840604371" lon="11.28925209580748"><ele>1631.0</ele><time>2026-05-02T13:04:05.998Z</time></trkpt><trkpt lat="45.87152795300979" lon="11.289320007721471"><ele>1631.0</ele><time>2026-05-02T13:04:06.998Z</time></trkpt><trkpt lat="45.87161536339584" lon="11.289379026030542"><ele>1631.0</ele><time>2026-05-02T13:04:07.998Z</time></trkpt><trkpt lat="45.87170873590953" lon="11.289393005038693"><ele>1631.0</ele><time>2026-05-02T13:04:08.998Z</time></trkpt><trkpt lat="45.87180339557315" lon="11.289354808998297"><ele>1631.0</ele><time>2026-05-02T13:04:09.998Z</time></trkpt><trkpt lat="45.87189738798298" lon="11.289264769929169"><ele>1631.0</ele><time>2026-05-02T13:04:10.998Z</time></trkpt><trkpt lat="45.87200392932406" lon="11.289173104510592"><ele>1631.1999999999998</ele><time>2026-05-02T13:04:11.998Z</time></trkpt><trkpt lat="45.87213461611233" lon="11.289130170800407"><ele>1631.3999999999999</ele><time>2026-05-02T13:04:12.998Z</time></trkpt><trkpt lat="45.87224332839264" lon="11.289050892652568"><ele>1631.6</ele><time>2026-05-02T13:04:13.998Z</time></trkpt><trkpt lat="45.87233994682666" lon="11.28899574883812"><ele>1631.8</ele><time>2026-05-02T13:04:14.998Z</time></trkpt><trkpt lat="45.87241951101153" lon="11.2889562322918"><ele>1632.0</ele><time>2026-05-02T13:04:15.998Z</time></trkpt><trkpt lat="45.87249897077553" lon="11.288927983174098"><ele>1632.0</ele><time>2026-05-02T13:04:16.998Z</time></trkpt><trkpt lat="45.87258416536612" lon="11.288947505732587"><ele>1632.0</ele><time>2026-05-02T13:04:17.998Z</time></trkpt><trkpt lat="45.87263656948789" lon="11.289048125173801"><ele>1632.0</ele><time>2026-05-02T13:04:18.998Z</time></trkpt><trkpt lat="45.872714183554365" lon="11.289132446247903"><ele>1632.0</ele><time>2026-05-02T13:04:19.998Z</time></trkpt><trkpt lat="45.8727962452963" lon="11.2892134021296"><ele>1632.0</ele><time>2026-05-02T13:04:20.998Z</time></trkpt><trkpt lat="45.87288744239036" lon="11.289261021284439"><ele>1635.8333333333333</ele><time>2026-05-02T13:04:21.998Z</time></trkpt><trkpt lat="45.872983028119215" lon="11.2892572743882"><ele>1639.6666666666665</ele><time>2026-05-02T13:04:22.997Z</time></trkpt><trkpt lat="45.87306885406722" lon="11.28920721147063"><ele>1643.5</ele><time>2026-05-02T13:04:23.997Z</time></trkpt><trkpt lat="45.87314406332171" lon="11.289174357257941"><ele>1647.3333333333333</ele><time>2026-05-02T13:04:24.997Z</time></trkpt><trkpt lat="45.87321901457864" lon="11.289196116912757"><ele>1651.1666666666665</ele><time>2026-05-02T13:04:25.997Z</time></trkpt><trkpt lat="45.87327027549526" lon="11.28925302703083"><ele>1655.0</ele><time>2026-05-02T13:04:26.997Z</time></trkpt><trkpt lat="45.87330380056539" lon="11.289336659260933"><ele>1655.0</ele><time>2026-05-02T13:04:27.997Z</time></trkpt><trkpt lat="45.873347084150915" lon="11.289501730228661"><ele>1655.0</ele><time>2026-05-02T13:04:28.997Z</time></trkpt><trkpt lat="45.873362525392736" lon="11.289619937356417"><ele>1655.0</ele><time>2026-05-02T13:04:29.997Z</time></trkpt><trkpt lat="45.873391224938395" lon="11.289758628567844"><ele>1655.0</ele><time>2026-05-02T13:04:31Z</time></trkpt><trkpt lat="45.87341686949402" lon="11.289869004890488"><ele>1655.0</ele><time>2026-05-02T13:04:32Z</time></trkpt><trkpt lat="45.87347898113553" lon="11.289936103432488"><ele>1654.4</ele><time>2026-05-02T13:04:33Z</time></trkpt><trkpt lat="45.8735704650136" lon="11.289954433540345"><ele>1653.8</ele><time>2026-05-02T13:04:34Z</time></trkpt><trkpt lat="45.873671147468315" lon="11.289966629399576"><ele>1653.1999999999998</ele><time>2026-05-02T13:04:35Z</time></trkpt><trkpt lat="45.873782102045695" lon="11.290000044253707"><ele>1652.6</ele><time>2026-05-02T13:04:36Z</time></trkpt><trkpt lat="45.87387598412006" lon="11.290098442521598"><ele>1652.0</ele><time>2026-05-02T13:04:37Z</time></trkpt><trkpt lat="45.87396618300672" lon="11.290163740410255"><ele>1651.9999999999998</ele><time>2026-05-02T13:04:38Z</time></trkpt><trkpt lat="45.87405604561293" lon="11.29019037170816"><ele>1652.0</ele><time>2026-05-02T13:04:39Z</time></trkpt><trkpt lat="45.87413090895843" lon="11.290237012824052"><ele>1652.0</ele><time>2026-05-02T13:04:40Z</time></trkpt><trkpt lat="45.87421003135617" lon="11.290362719870512"><ele>1652.0</ele><time>2026-05-02T13:04:42Z</time></trkpt><trkpt lat="45.87425245514108" lon="11.290447997548588"><ele>1651.9999999999998</ele><time>2026-05-02T13:04:43Z</time></trkpt><trkpt lat="45.87428303601421" lon="11.290553385018766"><ele>1652.0</ele><time>2026-05-02T13:04:44Z</time></trkpt><trkpt lat="45.874278189959995" lon="11.290654744659356"><ele>1647.1666666666665</ele><time>2026-05-02T13:04:45Z</time></trkpt><trkpt lat="45.87426358935153" lon="11.290748815658931"><ele>1642.3333333333333</ele><time>2026-05-02T13:04:46Z</time></trkpt><trkpt lat="45.8742557191371" lon="11.290856650743981"><ele>1637.5</ele><time>2026-05-02T13:04:47Z</time></trkpt><trkpt lat="45.87425833311588" lon="11.290981900330278"><ele>1632.6666666666665</ele><time>2026-05-02T13:04:48Z</time></trkpt><trkpt lat="45.874257148744576" lon="11.291122816737918"><ele>1627.8333333333333</ele><time>2026-05-02T13:04:49Z</time></trkpt><trkpt lat="45.87425531684613" lon="11.291252853253797"><ele>1623.0</ele><time>2026-05-02T13:04:50Z</time></trkpt><trkpt lat="45.874268078584095" lon="11.291361111757414"><ele>1628.0</ele><time>2026-05-02T13:04:51Z</time></trkpt><trkpt lat="45.87432374057307" lon="11.291441154820228"><ele>1633.0</ele><time>2026-05-02T13:04:52Z</time></trkpt><trkpt lat="45.87441165541927" lon="11.291506036941882"><ele>1638.0</ele><time>2026-05-02T13:04:53Z</time></trkpt><trkpt lat="45.8745052129305" lon="11.291580777064155"><ele>1643.0</ele><time>2026-05-02T13:04:54Z</time></trkpt><trkpt lat="45.87457558496037" lon="11.291695149526683"><ele>1648.0</ele><time>2026-05-02T13:04:55Z</time></trkpt><trkpt lat="45.874625751192504" lon="11.291814984759219"><ele>1648.0</ele><time>2026-05-02T13:04:56Z</time></trkpt><trkpt lat="45.874702742592525" lon="11.291889009972312"><ele>1648.0</ele><time>2026-05-02T13:04:57Z</time></trkpt><trkpt lat="45.8748071504117" lon="11.291928776380955"><ele>1648.0</ele><time>2026-05-02T13:04:58Z</time></trkpt><trkpt lat="45.874906756544924" lon="11.292004506980204"><ele>1648.0</ele><time>2026-05-02T13:04:59Z</time></trkpt><trkpt lat="45.87498279199525" lon="11.292118503178852"><ele>1648.0</ele><time>2026-05-02T13:05:00Z</time></trkpt><trkpt lat="45.87504739840798" lon="11.292238789929916"><ele>1643.0</ele><time>2026-05-02T13:05:01Z</time></trkpt><trkpt lat="45.87505336529655" lon="11.292391335282813"><ele>1638.0</ele><time>2026-05-02T13:05:02Z</time></trkpt><trkpt lat="45.87506163917475" lon="11.292531717187313"><ele>1633.0</ele><time>2026-05-02T13:05:03Z</time></trkpt><trkpt lat="45.875058813797715" lon="11.29268053883821"><ele>1628.0</ele><time>2026-05-02T13:05:04Z</time></trkpt><trkpt lat="45.87503035445259" lon="11.292826954259471"><ele>1623.0</ele><time>2026-05-02T13:05:05Z</time></trkpt><trkpt lat="45.875005723553166" lon="11.292959192637023"><ele>1623.0</ele><time>2026-05-02T13:05:05.999Z</time></trkpt><trkpt lat="45.87500447197075" lon="11.293077224491109"><ele>1623.0</ele><time>2026-05-02T13:05:06.999Z</time></trkpt><trkpt lat="45.875075580130904" lon="11.293184656942136"><ele>1623.0</ele><time>2026-05-02T13:05:07.999Z</time></trkpt><trkpt lat="45.87512555881629" lon="11.293304872691222"><ele>1623.0</ele><time>2026-05-02T13:05:08.999Z</time></trkpt><trkpt lat="45.875136524658586" lon="11.293469627440642"><ele>1623.0</ele><time>2026-05-02T13:05:09.999Z</time></trkpt><trkpt lat="45.87519410888229" lon="11.293605394160224"><ele>1628.4</ele><time>2026-05-02T13:05:10.999Z</time></trkpt><trkpt lat="45.87524158490826" lon="11.29373686477475"><ele>1633.8000000000002</ele><time>2026-05-02T13:05:11.999Z</time></trkpt><trkpt lat="45.87526395210284" lon="11.29386526578988"><ele>1639.2</ele><time>2026-05-02T13:05:12.999Z</time></trkpt><trkpt lat="45.87522658591264" lon="11.293986682170502"><ele>1644.6</ele><time>2026-05-02T13:05:13.999Z</time></trkpt><trkpt lat="45.87518181619492" lon="11.294092721009687"><ele>1650.0</ele><time>2026-05-02T13:05:14.999Z</time></trkpt><trkpt lat="45.87515794844893" lon="11.294211825707313"><ele>1650.0</ele><time>2026-05-02T13:05:15.999Z</time></trkpt><trkpt lat="45.875136642911556" lon="11.294306911895639"><ele>1650.0</ele><time>2026-05-02T13:05:16.999Z</time></trkpt><trkpt lat="45.875160392626285" lon="11.294432949443594"><ele>1650.0</ele><time>2026-05-02T13:05:17.999Z</time></trkpt><trkpt lat="45.87521588005238" lon="11.294557879827716"><ele>1650.0</ele><time>2026-05-02T13:05:18.999Z</time></trkpt><trkpt lat="45.87525813287618" lon="11.294697545226057"><ele>1650.0</ele><time>2026-05-02T13:05:19.999Z</time></trkpt><trkpt lat="45.87528649856469" lon="11.294826781491455"><ele>1647.4</ele><time>2026-05-02T13:05:20.999Z</time></trkpt><trkpt lat="45.87528829977388" lon="11.294952165664654"><ele>1644.8</ele><time>2026-05-02T13:05:21.999Z</time></trkpt><trkpt lat="45.87520043152212" lon="11.295059529723632"><ele>1642.1999999999998</ele><time>2026-05-02T13:05:22.999Z</time></trkpt><trkpt lat="45.87514933285146" lon="11.295193744984475"><ele>1639.6</ele><time>2026-05-02T13:05:23.999Z</time></trkpt><trkpt lat="45.875116120776326" lon="11.295327537083743"><ele>1637.0</ele><time>2026-05-02T13:05:24.999Z</time></trkpt><trkpt lat="45.87510857638588" lon="11.29546940657543"><ele>1634.8</ele><time>2026-05-02T13:05:25.999Z</time></trkpt><trkpt lat="45.87513769040799" lon="11.295625070757042"><ele>1632.6</ele><time>2026-05-02T13:05:26.999Z</time></trkpt><trkpt lat="45.87515998049687" lon="11.295778822439278"><ele>1630.3999999999999</ele><time>2026-05-02T13:05:27.999Z</time></trkpt><trkpt lat="45.87517071399182" lon="11.29593565783903"><ele>1628.1999999999998</ele><time>2026-05-02T13:05:28.999Z</time></trkpt><trkpt lat="45.87515264834664" lon="11.29608557065541"><ele>1626.0</ele><time>2026-05-02T13:05:29.999Z</time></trkpt><trkpt lat="45.8751022890108" lon="11.296236200461443"><ele>1617.1999999999998</ele><time>2026-05-02T13:05:30.999Z</time></trkpt><trkpt lat="45.87505102629728" lon="11.296387123892588"><ele>1608.3999999999999</ele><time>2026-05-02T13:05:31.999Z</time></trkpt><trkpt lat="45.87501142391084" lon="11.296536663505352"><ele>1599.6</ele><time>2026-05-02T13:05:32.999Z</time></trkpt><trkpt lat="45.87496749568622" lon="11.296667253515189"><ele>1590.8</ele><time>2026-05-02T13:05:33.999Z</time></trkpt><trkpt lat="45.87495464202685" lon="11.296811305841635"><ele>1582.0</ele><time>2026-05-02T13:05:34.999Z</time></trkpt><trkpt lat="45.87497570824813" lon="11.29695128872157"><ele>1582.0</ele><time>2026-05-02T13:05:35.999Z</time></trkpt><trkpt lat="45.874974009144246" lon="11.297114471095657"><ele>1582.0</ele><time>2026-05-02T13:05:36.999Z</time></trkpt><trkpt lat="45.87498705432731" lon="11.297262133045264"><ele>1582.0</ele><time>2026-05-02T13:05:37.999Z</time></trkpt><trkpt lat="45.87498858999048" lon="11.297403825036614"><ele>1582.0</ele><time>2026-05-02T13:05:38.999Z</time></trkpt><trkpt lat="45.875004146701926" lon="11.297536815929575"><ele>1582.0</ele><time>2026-05-02T13:05:39.999Z</time></trkpt><trkpt lat="45.875101473161195" lon="11.297632025347637"><ele>1582.3999999999999</ele><time>2026-05-02T13:05:40.999Z</time></trkpt><trkpt lat="45.87516788942733" lon="11.297764029056676"><ele>1582.8</ele><time>2026-05-02T13:05:41.999Z</time></trkpt><trkpt lat="45.8752188038375" lon="11.29792035472704"><ele>1583.2</ele><time>2026-05-02T13:05:42.999Z</time></trkpt><trkpt lat="45.8752571944434" lon="11.298068915854984"><ele>1583.6</ele><time>2026-05-02T13:05:43.999Z</time></trkpt><trkpt lat="45.87530602020308" lon="11.298195680618234"><ele>1584.0</ele><time>2026-05-02T13:05:44.999Z</time></trkpt><trkpt lat="45.87535582202752" lon="11.298290256306657"><ele>1580.5</ele><time>2026-05-02T13:05:45.999Z</time></trkpt><trkpt lat="45.875434732261226" lon="11.298335201376853"><ele>1577.0</ele><time>2026-05-02T13:05:46.999Z</time></trkpt><trkpt lat="45.87552158821221" lon="11.298312476121303"><ele>1573.5</ele><time>2026-05-02T13:05:47.999Z</time></trkpt><trkpt lat="45.87560734390269" lon="11.298311995871698"><ele>1570.0</ele><time>2026-05-02T13:05:48.998Z</time></trkpt><trkpt lat="45.87569707039186" lon="11.298307702738844"><ele>1566.5</ele><time>2026-05-02T13:05:49.998Z</time></trkpt><trkpt lat="45.87578929809318" lon="11.298301590756056"><ele>1563.0</ele><time>2026-05-02T13:05:51.019Z</time></trkpt><trkpt lat="45.87588045395945" lon="11.298309375961372"><ele>1558.25</ele><time>2026-05-02T13:05:52.019Z</time></trkpt><trkpt lat="45.8759856642333" lon="11.298329008231054"><ele>1553.5</ele><time>2026-05-02T13:05:53.017Z</time></trkpt><trkpt lat="45.876100034433826" lon="11.29831608499128"><ele>1548.75</ele><time>2026-05-02T13:05:54.022Z</time></trkpt><trkpt lat="45.87620808846315" lon="11.298368616032104"><ele>1544.0</ele><time>2026-05-02T13:05:55.021Z</time></trkpt><trkpt lat="45.8763389150108" lon="11.29844061100045"><ele>1544.0</ele><time>2026-05-02T13:05:56.998Z</time></trkpt><trkpt lat="45.876417030467245" lon="11.298501273800335"><ele>1544.0</ele><time>2026-05-02T13:05:57.998Z</time></trkpt><trkpt lat="45.87653719709162" lon="11.298626594333586"><ele>1544.0</ele><time>2026-05-02T13:05:58.998Z</time></trkpt><trkpt lat="45.87662032126334" lon="11.29873908391006"><ele>1544.0</ele><time>2026-05-02T13:05:59.998Z</time></trkpt><trkpt lat="45.876729330911125" lon="11.29887628226259"><ele>1540.5</ele><time>2026-05-02T13:06:00.998Z</time></trkpt><trkpt lat="45.876825620609864" lon="11.298987432948556"><ele>1537.0</ele><time>2026-05-02T13:06:01.998Z</time></trkpt><trkpt lat="45.8769216076177" lon="11.299093118529763"><ele>1533.5</ele><time>2026-05-02T13:06:02.998Z</time></trkpt><trkpt lat="45.87702372648616" lon="11.299177138000069"><ele>1530.0</ele><time>2026-05-02T13:06:03.998Z</time></trkpt><trkpt lat="45.87713744870403" lon="11.299232351548884"><ele>1530.0</ele><time>2026-05-02T13:06:04.998Z</time></trkpt><trkpt lat="45.877256059546575" lon="11.299257972052203"><ele>1530.0</ele><time>2026-05-02T13:06:05.998Z</time></trkpt><trkpt lat="45.8773791973196" lon="11.29927211863431"><ele>1530.0</ele><time>2026-05-02T13:06:06.998Z</time></trkpt><trkpt lat="45.87748290400072" lon="11.299308227665211"><ele>1530.0</ele><time>2026-05-02T13:06:07.998Z</time></trkpt><trkpt lat="45.877582834721366" lon="11.299374266054576"><ele>1527.6</ele><time>2026-05-02T13:06:08.998Z</time></trkpt><trkpt lat="45.87767400707793" lon="11.299462184748311"><ele>1525.2</ele><time>2026-05-02T13:06:09.998Z</time></trkpt><trkpt lat="45.877746980577406" lon="11.299572350390337"><ele>1522.8000000000002</ele><time>2026-05-02T13:06:10.998Z</time></trkpt><trkpt lat="45.87780653729932" lon="11.29969624065523"><ele>1520.4</ele><time>2026-05-02T13:06:11.998Z</time></trkpt><trkpt lat="45.877834133895135" lon="11.299843388701929"><ele>1518.0</ele><time>2026-05-02T13:06:12.998Z</time></trkpt><trkpt lat="45.877846683364645" lon="11.2999785681878"><ele>1518.0</ele><time>2026-05-02T13:06:13.998Z</time></trkpt><trkpt lat="45.87782148164925" lon="11.30010520875725"><ele>1518.0</ele><time>2026-05-02T13:06:14.998Z</time></trkpt><trkpt lat="45.877763411130836" lon="11.300230775040177"><ele>1518.0</ele><time>2026-05-02T13:06:15.998Z</time></trkpt><trkpt lat="45.877694089517625" lon="11.300326931513844"><ele>1518.0</ele><time>2026-05-02T13:06:16.998Z</time></trkpt><trkpt lat="45.87763049125518" lon="11.300428815445628"><ele>1518.0</ele><time>2026-05-02T13:06:17.998Z</time></trkpt><trkpt lat="45.877585972256654" lon="11.300529660443246"><ele>1517.8333333333333</ele><time>2026-05-02T13:06:18.998Z</time></trkpt><trkpt lat="45.877559624131244" lon="11.300630893296812"><ele>1517.6666666666667</ele><time>2026-05-02T13:06:19.998Z</time></trkpt><trkpt lat="45.87756251322308" lon="11.300735056282416"><ele>1517.5</ele><time>2026-05-02T13:06:20.998Z</time></trkpt><trkpt lat="45.87762309234727" lon="11.300827365367567"><ele>1517.3333333333335</ele><time>2026-05-02T13:06:21.998Z</time></trkpt><trkpt lat="45.87768917911055" lon="11.300890147785799"><ele>1517.1666666666667</ele><time>2026-05-02T13:06:22.998Z</time></trkpt><trkpt lat="45.877772973623635" lon="11.300926829240435"><ele>1517.0</ele><time>2026-05-02T13:06:23.998Z</time></trkpt><trkpt lat="45.87786578554538" lon="11.300930949588881"><ele>1517.0</ele><time>2026-05-02T13:06:24.998Z</time></trkpt><trkpt lat="45.877972776428955" lon="11.30094695521022"><ele>1517.0</ele><time>2026-05-02T13:06:25.998Z</time></trkpt><trkpt lat="45.87804860403073" lon="11.300989949495253"><ele>1517.0</ele><time>2026-05-02T13:06:26.998Z</time></trkpt><trkpt lat="45.8781156520784" lon="11.301057575189839"><ele>1517.0</ele><time>2026-05-02T13:06:27.998Z</time></trkpt><trkpt lat="45.87817324460194" lon="11.301174410790711"><ele>1517.0</ele><time>2026-05-02T13:06:28.998Z</time></trkpt><trkpt lat="45.87822177136701" lon="11.30130134284483"><ele>1517.0</ele><time>2026-05-02T13:06:29.998Z</time></trkpt><trkpt lat="45.878219058338956" lon="11.301439078317197"><ele>1517.0</ele><time>2026-05-02T13:06:30.998Z</time></trkpt><trkpt lat="45.8782362783611" lon="11.301585970075452"><ele>1517.0</ele><time>2026-05-02T13:06:31.997Z</time></trkpt><trkpt lat="45.87826915430744" lon="11.301692659336494"><ele>1517.0</ele><time>2026-05-02T13:06:32.997Z</time></trkpt><trkpt lat="45.878331044917346" lon="11.301756647164236"><ele>1517.0</ele><time>2026-05-02T13:06:33.997Z</time></trkpt><trkpt lat="45.87841756678124" lon="11.301811790980723"><ele>1512.1999999999998</ele><time>2026-05-02T13:06:34.997Z</time></trkpt><trkpt lat="45.87849640768769" lon="11.301858446139624"><ele>1507.4</ele><time>2026-05-02T13:06:35.997Z</time></trkpt><trkpt lat="45.878561092959025" lon="11.301947423903462"><ele>1502.6</ele><time>2026-05-02T13:06:37Z</time></trkpt><trkpt lat="45.878604732228496" lon="11.302072856973453"><ele>1497.8000000000002</ele><time>2026-05-02T13:06:38Z</time></trkpt><trkpt lat="45.8786029016262" lon="11.302218294351475"><ele>1493.0</ele><time>2026-05-02T13:06:39Z</time></trkpt><trkpt lat="45.87861443443842" lon="11.302342997541313"><ele>1493.0</ele><time>2026-05-02T13:06:40Z</time></trkpt><trkpt lat="45.878614323599976" lon="11.302481050441447"><ele>1493.0</ele><time>2026-05-02T13:06:41Z</time></trkpt><trkpt lat="45.87862349733394" lon="11.30259586182854"><ele>1493.0</ele><time>2026-05-02T13:06:42Z</time></trkpt><trkpt lat="45.87864302720078" lon="11.302707094115291"><ele>1493.0</ele><time>2026-05-02T13:06:43Z</time></trkpt><trkpt lat="45.878696621663956" lon="11.302777489247354"><ele>1493.0</ele><time>2026-05-02T13:06:45Z</time></trkpt><trkpt lat="45.87877483620947" lon="11.302884668547174"><ele>1493.0</ele><time>2026-05-02T13:06:52Z</time></trkpt><trkpt lat="45.878699311788736" lon="11.302946187762368"><ele>1493.0</ele><time>2026-05-02T13:06:53Z</time></trkpt><trkpt lat="45.878641062279314" lon="11.30303606116507"><ele>1493.0</ele><time>2026-05-02T13:06:54Z</time></trkpt><trkpt lat="45.878547124354924" lon="11.303091676911034"><ele>1493.0</ele><time>2026-05-02T13:06:55Z</time></trkpt><trkpt lat="45.878471969282394" lon="11.303193964576357"><ele>1493.0</ele><time>2026-05-02T13:06:56Z</time></trkpt><trkpt lat="45.87838426473989" lon="11.303306560863218"><ele>1493.0</ele><time>2026-05-02T13:06:57Z</time></trkpt><trkpt lat="45.878283450208635" lon="11.303421623898238"><ele>1499.25</ele><time>2026-05-02T13:06:58Z</time></trkpt><trkpt lat="45.878176636885605" lon="11.303543052966198"><ele>1505.5</ele><time>2026-05-02T13:06:59Z</time></trkpt><trkpt lat="45.87806837133381" lon="11.30366238901059"><ele>1511.75</ele><time>2026-05-02T13:07:00Z</time></trkpt><trkpt lat="45.8779595886327" lon="11.303769268171637"><ele>1518.0</ele><time>2026-05-02T13:07:01Z</time></trkpt><trkpt lat="45.87785091322277" lon="11.303859908758707"><ele>1513.5</ele><time>2026-05-02T13:07:02Z</time></trkpt><trkpt lat="45.87777229196831" lon="11.30397944652144"><ele>1509.0</ele><time>2026-05-02T13:07:03Z</time></trkpt><trkpt lat="45.87772705168281" lon="11.30413542785951"><ele>1504.5</ele><time>2026-05-02T13:07:04Z</time></trkpt><trkpt lat="45.87772028556223" lon="11.304307060859369"><ele>1500.0</ele><time>2026-05-02T13:07:05Z</time></trkpt><trkpt lat="45.87770602578423" lon="11.304470010704922"><ele>1500.0</ele><time>2026-05-02T13:07:06Z</time></trkpt><trkpt lat="45.877658857684075" lon="11.304609775396441"><ele>1500.0</ele><time>2026-05-02T13:07:07Z</time></trkpt><trkpt lat="45.87756066738543" lon="11.30471196792038"><ele>1500.0</ele><time>2026-05-02T13:07:08Z</time></trkpt><trkpt lat="45.8774569227663" lon="11.304801245287269"><ele>1500.0</ele><time>2026-05-02T13:07:09Z</time></trkpt><trkpt lat="45.87734489033753" lon="11.304895763153873"><ele>1501.0</ele><time>2026-05-02T13:07:10Z</time></trkpt><trkpt lat="45.87722047994483" lon="11.304979284536776"><ele>1502.0</ele><time>2026-05-02T13:07:11Z</time></trkpt><trkpt lat="45.87707594221306" lon="11.305022924054153"><ele>1503.0</ele><time>2026-05-02T13:07:12Z</time></trkpt><trkpt lat="45.87693797447858" lon="11.305149863027673"><ele>1504.0</ele><time>2026-05-02T13:07:13Z</time></trkpt><trkpt lat="45.87680113711574" lon="11.305286798915642"><ele>1506.3333333333333</ele><time>2026-05-02T13:07:14Z</time></trkpt><trkpt lat="45.87665603432849" lon="11.305423769558207"><ele>1508.6666666666667</ele><time>2026-05-02T13:07:14.999Z</time></trkpt><trkpt lat="45.87650634324095" lon="11.305530251342933"><ele>1511.0</ele><time>2026-05-02T13:07:15.999Z</time></trkpt><trkpt lat="45.87636250464175" lon="11.305624163319294"><ele>1511.0</ele><time>2026-05-02T13:07:16.999Z</time></trkpt><trkpt lat="45.87621195447575" lon="11.305724231667872"><ele>1511.0</ele><time>2026-05-02T13:07:17.999Z</time></trkpt><trkpt lat="45.87607214997421" lon="11.305864821579789"><ele>1511.0</ele><time>2026-05-02T13:07:18.999Z</time></trkpt><trkpt lat="45.87594330748246" lon="11.306019886402183"><ele>1514.6666666666667</ele><time>2026-05-02T13:07:19.999Z</time></trkpt><trkpt lat="45.875824991147255" lon="11.306171147617292"><ele>1518.3333333333333</ele><time>2026-05-02T13:07:20.999Z</time></trkpt><trkpt lat="45.875681521014386" lon="11.30632881606975"><ele>1522.0</ele><time>2026-05-02T13:07:21.999Z</time></trkpt><trkpt lat="45.87556209442905" lon="11.306492503288478"><ele>1522.0</ele><time>2026-05-02T13:07:22.999Z</time></trkpt><trkpt lat="45.875482743894906" lon="11.306693900849695"><ele>1522.0</ele><time>2026-05-02T13:07:23.999Z</time></trkpt><trkpt lat="45.87542800729165" lon="11.306918578484524"><ele>1522.0</ele><time>2026-05-02T13:07:24.999Z</time></trkpt><trkpt lat="45.87537456880349" lon="11.307141033539937"><ele>1515.6666666666665</ele><time>2026-05-02T13:07:25.999Z</time></trkpt><trkpt lat="45.87532294879827" lon="11.307359064215111"><ele>1509.3333333333333</ele><time>2026-05-02T13:07:26.999Z</time></trkpt><trkpt lat="45.87526974168458" lon="11.307584005689321"><ele>1503.0</ele><time>2026-05-02T13:07:27.999Z</time></trkpt><trkpt lat="45.875201769991946" lon="11.307777057834734"><ele>1503.0</ele><time>2026-05-02T13:07:28.999Z</time></trkpt><trkpt lat="45.875136870778576" lon="11.307940255521205"><ele>1503.0</ele><time>2026-05-02T13:07:29.999Z</time></trkpt><trkpt lat="45.875085689270286" lon="11.308063494269753"><ele>1503.0</ele><time>2026-05-02T13:07:30.999Z</time></trkpt><trkpt lat="45.87504106761363" lon="11.308163599266285"><ele>1503.0</ele><time>2026-05-02T13:07:31.999Z</time></trkpt><trkpt lat="45.874963447893506" lon="11.308265244179898"><ele>1503.0</ele><time>2026-05-02T13:07:33.999Z</time></trkpt><trkpt lat="45.87489735665708" lon="11.308256581828035"><ele>1511.75</ele><time>2026-05-02T13:07:34.999Z</time></trkpt><trkpt lat="45.87481858838203" lon="11.30804293781264"><ele>1520.5</ele><time>2026-05-02T13:07:36.999Z</time></trkpt><trkpt lat="45.87475527749665" lon="11.307934713312294"><ele>1529.25</ele><time>2026-05-02T13:07:37.999Z</time></trkpt><trkpt lat="45.87471086479882" lon="11.307803185611327"><ele>1538.0</ele><time>2026-05-02T13:07:38.999Z</time></trkpt><trkpt lat="45.874683184465006" lon="11.307683815797375"><ele>1537.9999999999998</ele><time>2026-05-02T13:07:39.999Z</time></trkpt><trkpt lat="45.87466207490679" lon="11.30756965607109"><ele>1538.0</ele><time>2026-05-02T13:07:40.999Z</time></trkpt><trkpt lat="45.874639097260705" lon="11.307475069271664"><ele>1538.0</ele><time>2026-05-02T13:07:41.999Z</time></trkpt><trkpt lat="45.874534778241184" lon="11.30742222226587"><ele>1538.0</ele><time>2026-05-02T13:07:43.999Z</time></trkpt><trkpt lat="45.87448577998243" lon="11.30749363562013"><ele>1537.9999999999998</ele><time>2026-05-02T13:07:44.999Z</time></trkpt><trkpt lat="45.87447544845843" lon="11.307603479637029"><ele>1538.0</ele><time>2026-05-02T13:07:45.999Z</time></trkpt><trkpt lat="45.874508523501" lon="11.307726110173126"><ele>1538.0</ele><time>2026-05-02T13:07:46.999Z</time></trkpt><trkpt lat="45.874560627817026" lon="11.307857566099479"><ele>1538.0</ele><time>2026-05-02T13:07:47.999Z</time></trkpt><trkpt lat="45.874611021189715" lon="11.308007937860197"><ele>1538.0</ele><time>2026-05-02T13:07:48.999Z</time></trkpt><trkpt lat="45.87465580662449" lon="11.308190368315831"><ele>1538.0</ele><time>2026-05-02T13:07:49.999Z</time></trkpt><trkpt lat="45.874695311713495" lon="11.308381458839222"><ele>1535.5</ele><time>2026-05-02T13:07:50.999Z</time></trkpt><trkpt lat="45.87472438752759" lon="11.308574898825183"><ele>1533.0</ele><time>2026-05-02T13:07:51.999Z</time></trkpt><trkpt lat="45.87470561328309" lon="11.308769778237883"><ele>1530.5</ele><time>2026-05-02T13:07:52.999Z</time></trkpt><trkpt lat="45.874692772856584" lon="11.308959666996973"><ele>1528.0</ele><time>2026-05-02T13:07:53.999Z</time></trkpt><trkpt lat="45.87467278347583" lon="11.309147717587482"><ele>1527.5</ele><time>2026-05-02T13:07:54.999Z</time></trkpt><trkpt lat="45.874648939801254" lon="11.309334105765032"><ele>1527.0</ele><time>2026-05-02T13:07:55.999Z</time></trkpt><trkpt lat="45.87453641498619" lon="11.30944536708775"><ele>1526.5</ele><time>2026-05-02T13:07:56.998Z</time></trkpt><trkpt lat="45.87442702983347" lon="11.309548590386665"><ele>1526.0</ele><time>2026-05-02T13:07:57.998Z</time></trkpt><trkpt lat="45.87430733409775" lon="11.309663621654693"><ele>1524.75</ele><time>2026-05-02T13:07:58.998Z</time></trkpt><trkpt lat="45.87419255252685" lon="11.309790701253371"><ele>1523.5</ele><time>2026-05-02T13:07:59.998Z</time></trkpt><trkpt lat="45.874078878970685" lon="11.309917095168258"><ele>1522.25</ele><time>2026-05-02T13:08:00.998Z</time></trkpt><trkpt lat="45.873983368029926" lon="11.310035416513902"><ele>1521.0</ele><time>2026-05-02T13:08:01.998Z</time></trkpt><trkpt lat="45.873883960778514" lon="11.310116455066971"><ele>1521.0</ele><time>2026-05-02T13:08:02.998Z</time></trkpt><trkpt lat="45.87375632922596" lon="11.310035903058727"><ele>1521.0</ele><time>2026-05-02T13:08:03.998Z</time></trkpt><trkpt lat="45.87363833221354" lon="11.310071173027303"><ele>1521.0</ele><time>2026-05-02T13:08:04.998Z</time></trkpt><trkpt lat="45.8734789535811" lon="11.31015460920593"><ele>1521.0</ele><time>2026-05-02T13:08:05.998Z</time></trkpt><trkpt lat="45.87334520203059" lon="11.310158748073444"><ele>1514.75</ele><time>2026-05-02T13:08:06.998Z</time></trkpt><trkpt lat="45.87319745643072" lon="11.310155777145365"><ele>1508.5</ele><time>2026-05-02T13:08:07.998Z</time></trkpt><trkpt lat="45.873046699265004" lon="11.310175542850006"><ele>1502.25</ele><time>2026-05-02T13:08:08.998Z</time></trkpt><trkpt lat="45.872906209677524" lon="11.310176603295016"><ele>1496.0</ele><time>2026-05-02T13:08:09.998Z</time></trkpt><trkpt lat="45.87277637025204" lon="11.310170067224186"><ele>1496.0</ele><time>2026-05-02T13:08:10.998Z</time></trkpt><trkpt lat="45.87265358010349" lon="11.31016785739566"><ele>1496.0</ele><time>2026-05-02T13:08:11.998Z</time></trkpt><trkpt lat="45.87254912164208" lon="11.31017231470054"><ele>1496.0</ele><time>2026-05-02T13:08:12.998Z</time></trkpt><trkpt lat="45.8724546910516" lon="11.31021344898889"><ele>1496.0</ele><time>2026-05-02T13:08:13.998Z</time></trkpt><trkpt lat="45.87237919904324" lon="11.31030202960059"><ele>1496.0</ele><time>2026-05-02T13:08:14.998Z</time></trkpt><trkpt lat="45.872337934923614" lon="11.31043215986801"><ele>1496.5</ele><time>2026-05-02T13:08:15.998Z</time></trkpt><trkpt lat="45.87233599008711" lon="11.310587045270694"><ele>1497.0</ele><time>2026-05-02T13:08:16.998Z</time></trkpt><trkpt lat="45.8723498436294" lon="11.31076880235201"><ele>1497.5</ele><time>2026-05-02T13:08:17.998Z</time></trkpt><trkpt lat="45.87233539955767" lon="11.310957219285783"><ele>1498.0</ele><time>2026-05-02T13:08:18.998Z</time></trkpt><trkpt lat="45.872280801845235" lon="11.311154355954647"><ele>1498.0</ele><time>2026-05-02T13:08:19.998Z</time></trkpt><trkpt lat="45.87220067384826" lon="11.311352922811976"><ele>1498.0</ele><time>2026-05-02T13:08:20.998Z</time></trkpt><trkpt lat="45.87211481876431" lon="11.311530369156031"><ele>1498.0</ele><time>2026-05-02T13:08:21.998Z</time></trkpt><trkpt lat="45.87201868737398" lon="11.311697865190377"><ele>1502.25</ele><time>2026-05-02T13:08:22.998Z</time></trkpt><trkpt lat="45.87193456047963" lon="11.311843745844106"><ele>1506.5</ele><time>2026-05-02T13:08:23.998Z</time></trkpt><trkpt lat="45.871861311076344" lon="11.3119921562745"><ele>1510.75</ele><time>2026-05-02T13:08:24.998Z</time></trkpt><trkpt lat="45.87182460280025" lon="11.312160587115981"><ele>1515.0</ele><time>2026-05-02T13:08:25.998Z</time></trkpt><trkpt lat="45.8718164164821" lon="11.312353283719613"><ele>1516.6666666666667</ele><time>2026-05-02T13:08:26.998Z</time></trkpt><trkpt lat="45.871853966889695" lon="11.312571411310364"><ele>1518.3333333333335</ele><time>2026-05-02T13:08:27.998Z</time></trkpt><trkpt lat="45.87186725276932" lon="11.312809740903296"><ele>1520.0</ele><time>2026-05-02T13:08:28.998Z</time></trkpt><trkpt lat="45.871878582289625" lon="11.313055036081508"><ele>1519.0</ele><time>2026-05-02T13:08:29.998Z</time></trkpt><trkpt lat="45.87188778944702" lon="11.313305920254612"><ele>1518.0</ele><time>2026-05-02T13:08:30.998Z</time></trkpt><trkpt lat="45.87188829395542" lon="11.31356302155241"><ele>1517.0</ele><time>2026-05-02T13:08:31.998Z</time></trkpt><trkpt lat="45.871841212968256" lon="11.31381845167777"><ele>1518.3333333333335</ele><time>2026-05-02T13:08:32.998Z</time></trkpt><trkpt lat="45.871808162340784" lon="11.314092552030825"><ele>1519.6666666666667</ele><time>2026-05-02T13:08:33.998Z</time></trkpt><trkpt lat="45.87177571780798" lon="11.314363245996566"><ele>1521.0</ele><time>2026-05-02T13:08:34.998Z</time></trkpt><trkpt lat="45.871742057366305" lon="11.31464301060064"><ele>1502.0</ele><time>2026-05-02T13:08:35.998Z</time></trkpt><trkpt lat="45.87169441422891" lon="11.31490847889961"><ele>1483.0</ele><time>2026-05-02T13:08:36.998Z</time></trkpt><trkpt lat="45.87165073611141" lon="11.31517510828527"><ele>1464.0</ele><time>2026-05-02T13:08:37.998Z</time></trkpt><trkpt lat="45.8716079156081" lon="11.315432855389021"><ele>1463.6666666666667</ele><time>2026-05-02T13:08:38.997Z</time></trkpt><trkpt lat="45.87156689640634" lon="11.315690620563968"><ele>1463.3333333333335</ele><time>2026-05-02T13:08:39.997Z</time></trkpt><trkpt lat="45.87154348728731" lon="11.31593841458158"><ele>1463.0</ele><time>2026-05-02T13:08:40.997Z</time></trkpt><trkpt lat="45.87151416036417" lon="11.31617434472375"><ele>1464.3333333333335</ele><time>2026-05-02T13:08:41.997Z</time></trkpt><trkpt lat="45.87146482263587" lon="11.31641041938687"><ele>1465.6666666666667</ele><time>2026-05-02T13:08:43Z</time></trkpt><trkpt lat="45.87141030771127" lon="11.316624133724186"><ele>1467.0</ele><time>2026-05-02T13:08:44Z</time></trkpt><trkpt lat="45.871375330652164" lon="11.316845605345302"><ele>1467.0</ele><time>2026-05-02T13:08:45Z</time></trkpt><trkpt lat="45.87136209292324" lon="11.317079438407335"><ele>1467.0</ele><time>2026-05-02T13:08:46Z</time></trkpt><trkpt lat="45.87138047735727" lon="11.317318611572473"><ele>1467.0</ele><time>2026-05-02T13:08:47Z</time></trkpt><trkpt lat="45.87141455839077" lon="11.317565244122717"><ele>1464.6666666666667</ele><time>2026-05-02T13:08:48Z</time></trkpt><trkpt lat="45.87148042124584" lon="11.317809624792545"><ele>1462.3333333333335</ele><time>2026-05-02T13:08:49Z</time></trkpt><trkpt lat="45.871485591764156" lon="11.318070561769401"><ele>1460.0</ele><time>2026-05-02T13:08:50Z</time></trkpt><trkpt lat="45.87148993643182" lon="11.318295892942317"><ele>1458.75</ele><time>2026-05-02T13:08:51Z</time></trkpt><trkpt lat="45.87148376897112" lon="11.318489833507149"><ele>1457.5</ele><time>2026-05-02T13:08:52Z</time></trkpt><trkpt lat="45.87147144974353" lon="11.318668820346755"><ele>1456.25</ele><time>2026-05-02T13:08:53Z</time></trkpt><trkpt lat="45.87145155646412" lon="11.318807951972767"><ele>1455.0</ele><time>2026-05-02T13:08:54Z</time></trkpt><trkpt lat="45.87136247442779" lon="11.318848054477433"><ele>1453.0</ele><time>2026-05-02T13:08:55Z</time></trkpt><trkpt lat="45.871304687165605" lon="11.318933071680442"><ele>1451.0</ele><time>2026-05-02T13:08:56Z</time></trkpt><trkpt lat="45.87125356051931" lon="11.319034307369865"><ele>1449.0</ele><time>2026-05-02T13:08:57Z</time></trkpt><trkpt lat="45.8712688984739" lon="11.319182311013229"><ele>1447.0</ele><time>2026-05-02T13:08:58Z</time></trkpt><trkpt lat="45.87132170098179" lon="11.319315754804876"><ele>1445.0</ele><time>2026-05-02T13:08:59Z</time></trkpt><trkpt lat="45.87138254108417" lon="11.31946713309076"><ele>1445.0</ele><time>2026-05-02T13:09:00Z</time></trkpt><trkpt lat="45.871439451980976" lon="11.319644918837044"><ele>1445.0</ele><time>2026-05-02T13:09:01Z</time></trkpt><trkpt lat="45.87151069311426" lon="11.319826380939364"><ele>1445.0</ele><time>2026-05-02T13:09:02Z</time></trkpt><trkpt lat="45.87156692915705" lon="11.320023874794899"><ele>1445.0</ele><time>2026-05-02T13:09:03Z</time></trkpt><trkpt lat="45.871616083483744" lon="11.320217988014754"><ele>1441.25</ele><time>2026-05-02T13:09:04Z</time></trkpt><trkpt lat="45.871649034820145" lon="11.320401684857416"><ele>1437.5</ele><time>2026-05-02T13:09:05Z</time></trkpt><trkpt lat="45.871691011102826" lon="11.320557796035633"><ele>1433.75</ele><time>2026-05-02T13:09:06Z</time></trkpt><trkpt lat="45.871670649314204" lon="11.320716571792756"><ele>1430.0</ele><time>2026-05-02T13:09:07Z</time></trkpt><trkpt lat="45.87162666255519" lon="11.320864717539456"><ele>1430.0</ele><time>2026-05-02T13:09:08Z</time></trkpt><trkpt lat="45.87156495567273" lon="11.321029161947445"><ele>1430.0</ele><time>2026-05-02T13:09:09Z</time></trkpt><trkpt lat="45.8714897695368" lon="11.32122508504016"><ele>1430.0</ele><time>2026-05-02T13:09:10Z</time></trkpt><trkpt lat="45.8713894755279" lon="11.32141186066618"><ele>1430.0</ele><time>2026-05-02T13:09:11Z</time></trkpt><trkpt lat="45.87129516986857" lon="11.321611165783512"><ele>1430.0</ele><time>2026-05-02T13:09:12Z</time></trkpt><trkpt lat="45.87122778270445" lon="11.321817895187312"><ele>1430.0</ele><time>2026-05-02T13:09:13Z</time></trkpt><trkpt lat="45.871113793557065" lon="11.321974279843149"><ele>1430.0</ele><time>2026-05-02T13:09:14Z</time></trkpt><trkpt lat="45.870990085699816" lon="11.322112964477547"><ele>1430.0</ele><time>2026-05-02T13:09:15Z</time></trkpt><trkpt lat="45.870858835632106" lon="11.322228517824554"><ele>1430.0</ele><time>2026-05-02T13:09:16Z</time></trkpt><trkpt lat="45.87073567338327" lon="11.322359708256565"><ele>1424.0</ele><time>2026-05-02T13:09:17Z</time></trkpt><trkpt lat="45.870626353947685" lon="11.32250051726009"><ele>1418.0</ele><time>2026-05-02T13:09:18Z</time></trkpt><trkpt lat="45.87053973493338" lon="11.322644423804467"><ele>1412.0</ele><time>2026-05-02T13:09:19Z</time></trkpt><trkpt lat="45.87048148109912" lon="11.322809982893052"><ele>1406.0</ele><time>2026-05-02T13:09:20Z</time></trkpt><trkpt lat="45.87044983513579" lon="11.323005430489049"><ele>1406.75</ele><time>2026-05-02T13:09:20.999Z</time></trkpt><trkpt lat="45.870432851662684" lon="11.323191255937902"><ele>1407.5</ele><time>2026-05-02T13:09:21.999Z</time></trkpt><trkpt lat="45.870388673908394" lon="11.323373677305014"><ele>1408.25</ele><time>2026-05-02T13:09:22.999Z</time></trkpt><trkpt lat="45.87035457593269" lon="11.323553448885523"><ele>1409.0</ele><time>2026-05-02T13:09:23.999Z</time></trkpt><trkpt lat="45.87031265938668" lon="11.323710126295328"><ele>1409.0</ele><time>2026-05-02T13:09:24.999Z</time></trkpt><trkpt lat="45.87030043922479" lon="11.32384964051946"><ele>1409.0</ele><time>2026-05-02T13:09:25.999Z</time></trkpt><trkpt lat="45.87033129596125" lon="11.32397154225787"><ele>1409.0</ele><time>2026-05-02T13:09:26.999Z</time></trkpt><trkpt lat="45.87039953690207" lon="11.324064812150555"><ele>1409.0</ele><time>2026-05-02T13:09:27.999Z</time></trkpt><trkpt lat="45.870487448644994" lon="11.324158062706942"><ele>1409.0</ele><time>2026-05-02T13:09:28.999Z</time></trkpt><trkpt lat="45.870567812857786" lon="11.324265133669092"><ele>1407.5</ele><time>2026-05-02T13:09:29.999Z</time></trkpt><trkpt lat="45.87063753006615" lon="11.324407926674064"><ele>1406.0</ele><time>2026-05-02T13:09:30.999Z</time></trkpt><trkpt lat="45.87067883150142" lon="11.32457725903747"><ele>1404.5</ele><time>2026-05-02T13:09:31.999Z</time></trkpt><trkpt lat="45.8706856667743" lon="11.324784048302789"><ele>1403.0</ele><time>2026-05-02T13:09:32.999Z</time></trkpt><trkpt lat="45.87069966841553" lon="11.324988317263768"><ele>1399.5</ele><time>2026-05-02T13:09:33.999Z</time></trkpt><trkpt lat="45.870724842496934" lon="11.32519140633458"><ele>1396.0</ele><time>2026-05-02T13:09:34.999Z</time></trkpt><trkpt lat="45.870744709659014" lon="11.325372937620482"><ele>1392.5</ele><time>2026-05-02T13:09:35.999Z</time></trkpt><trkpt lat="45.87074916462053" lon="11.325562155772824"><ele>1389.0</ele><time>2026-05-02T13:09:36.999Z</time></trkpt><trkpt lat="45.87072103024221" lon="11.32578357860644"><ele>1387.3333333333333</ele><time>2026-05-02T13:09:37.999Z</time></trkpt><trkpt lat="45.870654747673015" lon="11.326000619260276"><ele>1385.6666666666665</ele><time>2026-05-02T13:09:38.999Z</time></trkpt><trkpt lat="45.870588709275474" lon="11.326196908769244"><ele>1384.0</ele><time>2026-05-02T13:09:39.999Z</time></trkpt><trkpt lat="45.87051831663167" lon="11.326376762873837"><ele>1383.3333333333333</ele><time>2026-05-02T13:09:40.999Z</time></trkpt><trkpt lat="45.87042939724536" lon="11.326564660982813"><ele>1382.6666666666667</ele><time>2026-05-02T13:09:41.999Z</time></trkpt><trkpt lat="45.87032583227156" lon="11.326747391266583"><ele>1382.0</ele><time>2026-05-02T13:09:42.999Z</time></trkpt><trkpt lat="45.87021486586263" lon="11.326925005556014"><ele>1382.0</ele><time>2026-05-02T13:09:43.999Z</time></trkpt><trkpt lat="45.870110947625285" lon="11.327075960837043"><ele>1382.0</ele><time>2026-05-02T13:09:44.999Z</time></trkpt><trkpt lat="45.870026839070675" lon="11.327228150031399"><ele>1382.0</ele><time>2026-05-02T13:09:45.999Z</time></trkpt><trkpt lat="45.86997333414771" lon="11.327364356819903"><ele>1382.0</ele><time>2026-05-02T13:09:46.999Z</time></trkpt><trkpt lat="45.86994667613711" lon="11.327507090303381"><ele>1377.0</ele><time>2026-05-02T13:09:47.999Z</time></trkpt><trkpt lat="45.869944596301835" lon="11.327646827845975"><ele>1372.0</ele><time>2026-05-02T13:09:48.999Z</time></trkpt><trkpt lat="45.86993750308476" lon="11.327757582783633"><ele>1367.0</ele><time>2026-05-02T13:09:49.999Z</time></trkpt><trkpt lat="45.869932197060216" lon="11.327876168404215"><ele>1362.0</ele><time>2026-05-02T13:09:50.999Z</time></trkpt><trkpt lat="45.869925574178936" lon="11.328003804073917"><ele>1357.0</ele><time>2026-05-02T13:09:51.999Z</time></trkpt><trkpt lat="45.869907457811834" lon="11.328092993153957"><ele>1352.0</ele><time>2026-05-02T13:09:52.999Z</time></trkpt><trkpt lat="45.86985534195451" lon="11.328149255844574"><ele>1352.0</ele><time>2026-05-02T13:09:53.999Z</time></trkpt><trkpt lat="45.86980195120384" lon="11.328204492047243"><ele>1352.0</ele><time>2026-05-02T13:09:54.999Z</time></trkpt><trkpt lat="45.869789229651815" lon="11.328095238077633"><ele>1352.0</ele><time>2026-05-02T13:09:55.999Z</time></trkpt><trkpt lat="45.869793216628324" lon="11.327982611812173"><ele>1352.0</ele><time>2026-05-02T13:09:56.999Z</time></trkpt><trkpt lat="45.869814024758" lon="11.327863316885045"><ele>1352.0</ele><time>2026-05-02T13:09:57.999Z</time></trkpt><trkpt lat="45.869809446246684" lon="11.327717243379425"><ele>1352.0</ele><time>2026-05-02T13:09:58.999Z</time></trkpt><trkpt lat="45.86981489173429" lon="11.327538967558352"><ele>1352.0</ele><time>2026-05-02T13:09:59.999Z</time></trkpt><trkpt lat="45.86982051506588" lon="11.327345801178447"><ele>1352.0</ele><time>2026-05-02T13:10:00.999Z</time></trkpt><trkpt lat="45.8698343177376" lon="11.327148797583698"><ele>1352.0</ele><time>2026-05-02T13:10:01.998Z</time></trkpt><trkpt lat="45.86989064244866" lon="11.326973536914192"><ele>1352.0</ele><time>2026-05-02T13:10:02.998Z</time></trkpt><trkpt lat="45.86993989889524" lon="11.326773981706085"><ele>1348.6666666666667</ele><time>2026-05-02T13:10:03.998Z</time></trkpt><trkpt lat="45.869992650018816" lon="11.326571039918548"><ele>1345.3333333333333</ele><time>2026-05-02T13:10:04.998Z</time></trkpt><trkpt lat="45.870049224546726" lon="11.326362509415741"><ele>1342.0</ele><time>2026-05-02T13:10:05.998Z</time></trkpt><trkpt lat="45.87008658459192" lon="11.32615376246297"><ele>1352.5</ele><time>2026-05-02T13:10:06.998Z</time></trkpt><trkpt lat="45.87013798515983" lon="11.325968473901357"><ele>1363.0</ele><time>2026-05-02T13:10:07.998Z</time></trkpt><trkpt lat="45.87016494726083" lon="11.325789934076685"><ele>1373.5</ele><time>2026-05-02T13:10:08.998Z</time></trkpt><trkpt lat="45.870168368143304" lon="11.325615865510292"><ele>1384.0</ele><time>2026-05-02T13:10:09.998Z</time></trkpt><trkpt lat="45.87013703041259" lon="11.325440707493001"><ele>1373.5</ele><time>2026-05-02T13:10:10.998Z</time></trkpt><trkpt lat="45.870084020891746" lon="11.325282015063769"><ele>1363.0</ele><time>2026-05-02T13:10:11.998Z</time></trkpt><trkpt lat="45.87002770038219" lon="11.325140247964448"><ele>1352.5</ele><time>2026-05-02T13:10:12.998Z</time></trkpt><trkpt lat="45.86993027108236" lon="11.325044605426296"><ele>1342.0</ele><time>2026-05-02T13:10:13.998Z</time></trkpt><trkpt lat="45.86981463992196" lon="11.32498513609345"><ele>1342.0</ele><time>2026-05-02T13:10:14.998Z</time></trkpt><trkpt lat="45.86968730900906" lon="11.324901453716416"><ele>1342.0</ele><time>2026-05-02T13:10:15.998Z</time></trkpt><trkpt lat="45.869559803948064" lon="11.32478933730191"><ele>1342.0</ele><time>2026-05-02T13:10:16.998Z</time></trkpt><trkpt lat="45.869410749541245" lon="11.324640549930999"><ele>1335.6666666666665</ele><time>2026-05-02T13:10:17.998Z</time></trkpt><trkpt lat="45.86928048508096" lon="11.324485634021572"><ele>1329.3333333333333</ele><time>2026-05-02T13:10:18.998Z</time></trkpt><trkpt lat="45.86917060398581" lon="11.324346096858301"><ele>1323.0</ele><time>2026-05-02T13:10:19.998Z</time></trkpt><trkpt lat="45.86907169583338" lon="11.324200129620719"><ele>1323.0</ele><time>2026-05-02T13:10:20.998Z</time></trkpt><trkpt lat="45.86898047073265" lon="11.324062077571492"><ele>1323.0</ele><time>2026-05-02T13:10:21.998Z</time></trkpt><trkpt lat="45.86887521508134" lon="11.32388778578163"><ele>1323.0</ele><time>2026-05-02T13:10:22.998Z</time></trkpt><trkpt lat="45.86878967178693" lon="11.323741820319935"><ele>1323.0</ele><time>2026-05-02T13:10:23.998Z</time></trkpt><trkpt lat="45.868729636654045" lon="11.323597028894905"><ele>1323.8000000000002</ele><time>2026-05-02T13:10:24.998Z</time></trkpt><trkpt lat="45.8687098013101" lon="11.323429992105542"><ele>1324.6</ele><time>2026-05-02T13:10:25.998Z</time></trkpt><trkpt lat="45.86870273277634" lon="11.323273128687951"><ele>1325.4</ele><time>2026-05-02T13:10:26.998Z</time></trkpt><trkpt lat="45.86875700056004" lon="11.323133751396757"><ele>1326.1999999999998</ele><time>2026-05-02T13:10:27.998Z</time></trkpt><trkpt lat="45.868785511643736" lon="11.322999558783861"><ele>1327.0</ele><time>2026-05-02T13:10:28.998Z</time></trkpt><trkpt lat="45.868831413916915" lon="11.322900832159268"><ele>1327.0000000000002</ele><time>2026-05-02T13:10:29.998Z</time></trkpt><trkpt lat="45.86884333981511" lon="11.322812004502644"><ele>1327.0</ele><time>2026-05-02T13:10:30.998Z</time></trkpt><trkpt lat="45.868811363124706" lon="11.322731550108948"><ele>1327.0</ele><time>2026-05-02T13:10:31.998Z</time></trkpt><trkpt lat="45.86874345141036" lon="11.322698939122837"><ele>1327.0</ele><time>2026-05-02T13:10:32.998Z</time></trkpt><trkpt lat="45.868678929580604" lon="11.322732523435317"><ele>1327.0</ele><time>2026-05-02T13:10:33.998Z</time></trkpt><trkpt lat="45.86863523855888" lon="11.322833918808573"><ele>1327.0000000000002</ele><time>2026-05-02T13:10:34.998Z</time></trkpt><trkpt lat="45.86860753658587" lon="11.322969131681733"><ele>1327.0</ele><time>2026-05-02T13:10:35.998Z</time></trkpt><trkpt lat="45.868563753856705" lon="11.323114546455622"><ele>1327.0</ele><time>2026-05-02T13:10:36.998Z</time></trkpt><trkpt lat="45.868502089804004" lon="11.323269851447217"><ele>1327.0</ele><time>2026-05-02T13:10:37.998Z</time></trkpt><trkpt lat="45.86844392765076" lon="11.323432774249504"><ele>1327.0</ele><time>2026-05-02T13:10:38.998Z</time></trkpt><trkpt lat="45.868415160702504" lon="11.323590130764215"><ele>1327.0</ele><time>2026-05-02T13:10:39.998Z</time></trkpt><trkpt lat="45.86842498308192" lon="11.323745392779564"><ele>1326.0</ele><time>2026-05-02T13:10:40.998Z</time></trkpt><trkpt lat="45.868470449353325" lon="11.323907916319206"><ele>1325.0</ele><time>2026-05-02T13:10:41.998Z</time></trkpt><trkpt lat="45.86854334166282" lon="11.324074665346268"><ele>1324.0</ele><time>2026-05-02T13:10:42.998Z</time></trkpt><trkpt lat="45.86861227486654" lon="11.324256197440496"><ele>1323.0</ele><time>2026-05-02T13:10:43.997Z</time></trkpt><trkpt lat="45.868681523735475" lon="11.324445872236707"><ele>1323.0</ele><time>2026-05-02T13:10:44.997Z</time></trkpt><trkpt lat="45.868760996183774" lon="11.324636252965155"><ele>1323.0</ele><time>2026-05-02T13:10:45.997Z</time></trkpt><trkpt lat="45.86883397983131" lon="11.324831805575814"><ele>1323.0</ele><time>2026-05-02T13:10:46.997Z</time></trkpt><trkpt lat="45.86891603495028" lon="11.325007294511163"><ele>1318.5</ele><time>2026-05-02T13:10:47.997Z</time></trkpt><trkpt lat="45.86899217970361" lon="11.325169979529667"><ele>1314.0</ele><time>2026-05-02T13:10:49Z</time></trkpt><trkpt lat="45.869083626363135" lon="11.325351262669406"><ele>1309.5</ele><time>2026-05-02T13:10:50Z</time></trkpt><trkpt lat="45.86915500909188" lon="11.325497981413662"><ele>1305.0</ele><time>2026-05-02T13:10:51Z</time></trkpt><trkpt lat="45.869203863076656" lon="11.325617089877523"><ele>1301.2</ele><time>2026-05-02T13:10:52Z</time></trkpt><trkpt lat="45.86923018387739" lon="11.325734303535814"><ele>1297.4</ele><time>2026-05-02T13:10:53Z</time></trkpt><trkpt lat="45.86921749345297" lon="11.325871504523892"><ele>1293.6</ele><time>2026-05-02T13:10:54Z</time></trkpt><trkpt lat="45.86915401042863" lon="11.325994070452952"><ele>1289.8</ele><time>2026-05-02T13:10:55Z</time></trkpt><trkpt lat="45.869079501843196" lon="11.326127723313826"><ele>1286.0</ele><time>2026-05-02T13:10:56Z</time></trkpt><trkpt lat="45.86900762751809" lon="11.32627939982789"><ele>1287.6666666666667</ele><time>2026-05-02T13:10:57Z</time></trkpt><trkpt lat="45.86891643088959" lon="11.326447725973715"><ele>1289.3333333333333</ele><time>2026-05-02T13:10:58Z</time></trkpt><trkpt lat="45.8688436961366" lon="11.32663887005296"><ele>1291.0</ele><time>2026-05-02T13:10:59Z</time></trkpt><trkpt lat="45.868776549854665" lon="11.326844110950603"><ele>1291.0</ele><time>2026-05-02T13:11:00Z</time></trkpt><trkpt lat="45.868709128897336" lon="11.327032220667085"><ele>1291.0</ele><time>2026-05-02T13:11:01Z</time></trkpt><trkpt lat="45.86864264930621" lon="11.327218942094607"><ele>1291.0</ele><time>2026-05-02T13:11:02Z</time></trkpt><trkpt lat="45.86857974627827" lon="11.327398449565768"><ele>1291.0</ele><time>2026-05-02T13:11:03Z</time></trkpt><trkpt lat="45.868524213969806" lon="11.327566949463865"><ele>1294.25</ele><time>2026-05-02T13:11:04Z</time></trkpt><trkpt lat="45.86848394529997" lon="11.327745790676701"><ele>1297.5</ele><time>2026-05-02T13:11:05Z</time></trkpt><trkpt lat="45.86844741566779" lon="11.327950575141797"><ele>1300.75</ele><time>2026-05-02T13:11:06Z</time></trkpt><trkpt lat="45.86846358530949" lon="11.328185346564636"><ele>1304.0</ele><time>2026-05-02T13:11:07Z</time></trkpt><trkpt lat="45.86846207503802" lon="11.328432518659055"><ele>1306.0</ele><time>2026-05-02T13:11:08Z</time></trkpt><trkpt lat="45.868444855097046" lon="11.328688262326201"><ele>1308.0</ele><time>2026-05-02T13:11:09Z</time></trkpt><trkpt lat="45.8684213433229" lon="11.328935495410978"><ele>1310.0</ele><time>2026-05-02T13:11:10Z</time></trkpt><trkpt lat="45.86839835806444" lon="11.329173152053974"><ele>1293.0</ele><time>2026-05-02T13:11:11Z</time></trkpt><trkpt lat="45.86838331077583" lon="11.329406082749898"><ele>1276.0</ele><time>2026-05-02T13:11:12Z</time></trkpt><trkpt lat="45.868383539635694" lon="11.32963755941491"><ele>1259.0</ele><time>2026-05-02T13:11:13Z</time></trkpt><trkpt lat="45.86838778515693" lon="11.329873273880768"><ele>1258.0</ele><time>2026-05-02T13:11:14Z</time></trkpt><trkpt lat="45.868383493373784" lon="11.330098907953884"><ele>1257.0</ele><time>2026-05-02T13:11:15Z</time></trkpt><trkpt lat="45.86837871101613" lon="11.33031217839146"><ele>1256.0</ele><time>2026-05-02T13:11:16Z</time></trkpt><trkpt lat="45.86837280240657" lon="11.33051306327747"><ele>1255.0</ele><time>2026-05-02T13:11:17Z</time></trkpt><trkpt lat="45.868388095571724" lon="11.330698159092872"><ele>1252.75</ele><time>2026-05-02T13:11:18Z</time></trkpt><trkpt lat="45.86841900701735" lon="11.330881546415837"><ele>1250.5</ele><time>2026-05-02T13:11:19Z</time></trkpt><trkpt lat="45.868475079280785" lon="11.331063915658918"><ele>1248.25</ele><time>2026-05-02T13:11:20Z</time></trkpt><trkpt lat="45.868547558843936" lon="11.331236855720283"><ele>1246.0</ele><time>2026-05-02T13:11:21Z</time></trkpt><trkpt lat="45.86861358162115" lon="11.331402677709317"><ele>1252.5</ele><time>2026-05-02T13:11:22Z</time></trkpt><trkpt lat="45.86866631000727" lon="11.3315791613582"><ele>1259.0</ele><time>2026-05-02T13:11:23Z</time></trkpt><trkpt lat="45.86869142180723" lon="11.331747162912384"><ele>1265.5</ele><time>2026-05-02T13:11:24Z</time></trkpt><trkpt lat="45.86868546946804" lon="11.331929622462393"><ele>1272.0</ele><time>2026-05-02T13:11:25Z</time></trkpt><trkpt lat="45.86867410007948" lon="11.332138391666817"><ele>1270.3333333333333</ele><time>2026-05-02T13:11:25.999Z</time></trkpt><trkpt lat="45.868664133048924" lon="11.332354236145687"><ele>1268.6666666666665</ele><time>2026-05-02T13:11:26.999Z</time></trkpt><trkpt lat="45.86868482214661" lon="11.332581696113127"><ele>1267.0</ele><time>2026-05-02T13:11:27.999Z</time></trkpt><trkpt lat="45.86871340597473" lon="11.332820899949311"><ele>1262.3333333333333</ele><time>2026-05-02T13:11:28.999Z</time></trkpt><trkpt lat="45.86874946114179" lon="11.333066347918685"><ele>1257.6666666666667</ele><time>2026-05-02T13:11:29.999Z</time></trkpt><trkpt lat="45.8687855262647" lon="11.333304228818797"><ele>1253.0</ele><time>2026-05-02T13:11:30.999Z</time></trkpt><trkpt lat="45.86882382991607" lon="11.33352384641816"><ele>1253.0</ele><time>2026-05-02T13:11:31.999Z</time></trkpt><trkpt lat="45.86887580028931" lon="11.333738981395967"><ele>1253.0</ele><time>2026-05-02T13:11:32.999Z</time></trkpt><trkpt lat="45.8688818389726" lon="11.33393450012214"><ele>1253.0</ele><time>2026-05-02T13:11:33.999Z</time></trkpt><trkpt lat="45.86891208033704" lon="11.334117523630209"><ele>1253.0</ele><time>2026-05-02T13:11:34.999Z</time></trkpt><trkpt lat="45.86893677202872" lon="11.334274650255946"><ele>1249.0</ele><time>2026-05-02T13:11:35.999Z</time></trkpt><trkpt lat="45.86898760248704" lon="11.334423750287526"><ele>1245.0</ele><time>2026-05-02T13:11:36.999Z</time></trkpt><trkpt lat="45.86908233223145" lon="11.334558883232113"><ele>1241.0</ele><time>2026-05-02T13:11:37.999Z</time></trkpt><trkpt lat="45.86917988981822" lon="11.334722217990052"><ele>1237.0</ele><time>2026-05-02T13:11:38.999Z</time></trkpt><trkpt lat="45.86922306211154" lon="11.334932760217676"><ele>1239.0</ele><time>2026-05-02T13:11:39.999Z</time></trkpt><trkpt lat="45.86928681105417" lon="11.335152020524696"><ele>1241.0</ele><time>2026-05-02T13:11:40.999Z</time></trkpt><trkpt lat="45.86934147169647" lon="11.33536904540799"><ele>1243.0</ele><time>2026-05-02T13:11:41.999Z</time></trkpt><trkpt lat="45.869380453266444" lon="11.33559078460855"><ele>1235.6666666666665</ele><time>2026-05-02T13:11:42.999Z</time></trkpt><trkpt lat="45.869417060507196" lon="11.335811224082189"><ele>1228.3333333333333</ele><time>2026-05-02T13:11:43.999Z</time></trkpt><trkpt lat="45.86946980211086" lon="11.336015167288764"><ele>1221.0</ele><time>2026-05-02T13:11:44.999Z</time></trkpt><trkpt lat="45.86949746532645" lon="11.336227119284164"><ele>1218.0</ele><time>2026-05-02T13:11:45.999Z</time></trkpt><trkpt lat="45.86954675314665" lon="11.336412577370707"><ele>1215.0</ele><time>2026-05-02T13:11:46.999Z</time></trkpt><trkpt lat="45.86959520472316" lon="11.336575008060093"><ele>1212.0</ele><time>2026-05-02T13:11:47.999Z</time></trkpt><trkpt lat="45.86963351926369" lon="11.33670515491115"><ele>1209.0</ele><time>2026-05-02T13:11:48.999Z</time></trkpt><trkpt lat="45.869664217248115" lon="11.336822521580888"><ele>1206.0</ele><time>2026-05-02T13:11:49.999Z</time></trkpt><trkpt lat="45.86967510553339" lon="11.336917787292354"><ele>1206.0</ele><time>2026-05-02T13:11:50.999Z</time></trkpt><trkpt lat="45.869632668080484" lon="11.337069628418714"><ele>1206.0</ele><time>2026-05-02T13:11:52.999Z</time></trkpt><trkpt lat="45.86954861801172" lon="11.337102415749113"><ele>1206.0</ele><time>2026-05-02T13:11:54.999Z</time></trkpt><trkpt lat="45.869536590872684" lon="11.336875420099071"><ele>1206.0</ele><time>2026-05-02T13:11:55.999Z</time></trkpt><trkpt lat="45.86950551679942" lon="11.3367691985283"><ele>1206.0</ele><time>2026-05-02T13:11:56.999Z</time></trkpt><trkpt lat="45.86945378048744" lon="11.336654928301492"><ele>1206.0</ele><time>2026-05-02T13:11:57.999Z</time></trkpt><trkpt lat="45.8693726839812" lon="11.336553149056932"><ele>1206.0</ele><time>2026-05-02T13:11:58.999Z</time></trkpt><trkpt lat="45.869287034925286" lon="11.336437150392536"><ele>1206.0</ele><time>2026-05-02T13:11:59.999Z</time></trkpt><trkpt lat="45.86921499581934" lon="11.336305369438337"><ele>1206.0</ele><time>2026-05-02T13:12:00.999Z</time></trkpt><trkpt lat="45.86917268483395" lon="11.336127238930054"><ele>1206.5</ele><time>2026-05-02T13:12:01.999Z</time></trkpt><trkpt lat="45.86909070585656" lon="11.335975470545414"><ele>1207.0</ele><time>2026-05-02T13:12:02.999Z</time></trkpt><trkpt lat="45.86900369971366" lon="11.335813724496564"><ele>1207.5</ele><time>2026-05-02T13:12:03.999Z</time></trkpt><trkpt lat="45.86890204179789" lon="11.335667008808894"><ele>1208.0</ele><time>2026-05-02T13:12:04.998Z</time></trkpt><trkpt lat="45.86879485892324" lon="11.335506733452826"><ele>1211.25</ele><time>2026-05-02T13:12:05.998Z</time></trkpt><trkpt lat="45.86870674380324" lon="11.335343147197973"><ele>1214.5</ele><time>2026-05-02T13:12:06.998Z</time></trkpt><trkpt lat="45.86862430048827" lon="11.335175715565867"><ele>1217.75</ele><time>2026-05-02T13:12:07.998Z</time></trkpt><trkpt lat="45.86853475142397" lon="11.335020508894159"><ele>1221.0</ele><time>2026-05-02T13:12:08.998Z</time></trkpt><trkpt lat="45.86846267390131" lon="11.33487161223923"><ele>1216.0</ele><time>2026-05-02T13:12:09.998Z</time></trkpt><trkpt lat="45.868398068435624" lon="11.334723722278031"><ele>1211.0</ele><time>2026-05-02T13:12:10.998Z</time></trkpt><trkpt lat="45.86831848888564" lon="11.33458165090929"><ele>1206.0</ele><time>2026-05-02T13:12:11.998Z</time></trkpt><trkpt lat="45.868251170546046" lon="11.334423313949733"><ele>1201.0</ele><time>2026-05-02T13:12:12.998Z</time></trkpt><trkpt lat="45.86820908175059" lon="11.334249893884515"><ele>1201.0</ele><time>2026-05-02T13:12:13.998Z</time></trkpt><trkpt lat="45.868177692494775" lon="11.334067719348097"><ele>1201.0</ele><time>2026-05-02T13:12:14.998Z</time></trkpt><trkpt lat="45.868099858841184" lon="11.333899598282626"><ele>1201.0</ele><time>2026-05-02T13:12:15.998Z</time></trkpt><trkpt lat="45.86798221559048" lon="11.333753606294646"><ele>1201.0</ele><time>2026-05-02T13:12:16.998Z</time></trkpt><trkpt lat="45.86785972179853" lon="11.333592313091938"><ele>1204.0</ele><time>2026-05-02T13:12:17.998Z</time></trkpt><trkpt lat="45.867769020423204" lon="11.333426974763638"><ele>1207.0</ele><time>2026-05-02T13:12:18.998Z</time></trkpt><trkpt lat="45.867693590826825" lon="11.333253300098576"><ele>1210.0</ele><time>2026-05-02T13:12:19.998Z</time></trkpt><trkpt lat="45.86762400501454" lon="11.333093854332098"><ele>1213.0</ele><time>2026-05-02T13:12:20.998Z</time></trkpt><trkpt lat="45.86754823738449" lon="11.332948306759999"><ele>1205.75</ele><time>2026-05-02T13:12:21.998Z</time></trkpt><trkpt lat="45.867457260740174" lon="11.332846209916534"><ele>1198.5</ele><time>2026-05-02T13:12:22.998Z</time></trkpt><trkpt lat="45.867333296095175" lon="11.332792834651409"><ele>1191.25</ele><time>2026-05-02T13:12:23.998Z</time></trkpt><trkpt lat="45.86719500566391" lon="11.332787302264267"><ele>1184.0</ele><time>2026-05-02T13:12:24.998Z</time></trkpt><trkpt lat="45.86703833800463" lon="11.332788636451376"><ele>1184.0</ele><time>2026-05-02T13:12:25.998Z</time></trkpt><trkpt lat="45.86687810589023" lon="11.332777941675024"><ele>1184.0</ele><time>2026-05-02T13:12:26.998Z</time></trkpt><trkpt lat="45.866717468118544" lon="11.332757347933082"><ele>1184.0</ele><time>2026-05-02T13:12:27.998Z</time></trkpt><trkpt lat="45.86657146993971" lon="11.332763098699989"><ele>1179.75</ele><time>2026-05-02T13:12:28.998Z</time></trkpt><trkpt lat="45.866437501229186" lon="11.332820234283997"><ele>1175.5</ele><time>2026-05-02T13:12:29.998Z</time></trkpt><trkpt lat="45.86630211777145" lon="11.332915963170777"><ele>1171.25</ele><time>2026-05-02T13:12:30.998Z</time></trkpt><trkpt lat="45.86616909151581" lon="11.332987869932253"><ele>1167.0</ele><time>2026-05-02T13:12:31.998Z</time></trkpt><trkpt lat="45.866050001546164" lon="11.333068827987839"><ele>1162.0</ele><time>2026-05-02T13:12:32.998Z</time></trkpt><trkpt lat="45.86593006461808" lon="11.333142988752202"><ele>1157.0</ele><time>2026-05-02T13:12:33.998Z</time></trkpt><trkpt lat="45.86579946204996" lon="11.333161682993403"><ele>1152.0</ele><time>2026-05-02T13:12:34.998Z</time></trkpt><trkpt lat="45.865673574841914" lon="11.333153626549631"><ele>1147.0</ele><time>2026-05-02T13:12:35.998Z</time></trkpt><trkpt lat="45.86554582890521" lon="11.333140633829704"><ele>1147.0</ele><time>2026-05-02T13:12:36.998Z</time></trkpt><trkpt lat="45.86542313403651" lon="11.333137680594376"><ele>1147.0</ele><time>2026-05-02T13:12:37.998Z</time></trkpt><trkpt lat="45.86531394580523" lon="11.333176667876543"><ele>1147.0</ele><time>2026-05-02T13:12:38.998Z</time></trkpt><trkpt lat="45.86521924581297" lon="11.33327594797512"><ele>1147.0</ele><time>2026-05-02T13:12:39.998Z</time></trkpt><trkpt lat="45.865140143035426" lon="11.33340146187456"><ele>1144.75</ele><time>2026-05-02T13:12:40.998Z</time></trkpt><trkpt lat="45.865058222096536" lon="11.333535825748319"><ele>1142.5</ele><time>2026-05-02T13:12:41.998Z</time></trkpt><trkpt lat="45.864964150065106" lon="11.333656712041831"><ele>1140.25</ele><time>2026-05-02T13:12:42.998Z</time></trkpt><trkpt lat="45.864852771165666" lon="11.333737615839254"><ele>1138.0</ele><time>2026-05-02T13:12:43.998Z</time></trkpt><trkpt lat="45.86473420935128" lon="11.333790672874034"><ele>1138.0</ele><time>2026-05-02T13:12:44.998Z</time></trkpt><trkpt lat="45.86460847797969" lon="11.333805062268665"><ele>1138.0</ele><time>2026-05-02T13:12:45.997Z</time></trkpt><trkpt lat="45.86447491630393" lon="11.333866147743558"><ele>1138.0</ele><time>2026-05-02T13:12:46.997Z</time></trkpt><trkpt lat="45.864329973612165" lon="11.333906656842146"><ele>1138.0</ele><time>2026-05-02T13:12:47.997Z</time></trkpt><trkpt lat="45.86417866331418" lon="11.333939067930508"><ele>1135.0</ele><time>2026-05-02T13:12:48.997Z</time></trkpt><trkpt lat="45.864027392108646" lon="11.333954351770293"><ele>1132.0</ele><time>2026-05-02T13:12:49.997Z</time></trkpt><trkpt lat="45.86389419787699" lon="11.333970163808576"><ele>1129.0</ele><time>2026-05-02T13:12:50.997Z</time></trkpt><trkpt lat="45.86375901613853" lon="11.333971891053896"><ele>1126.0</ele><time>2026-05-02T13:12:51.997Z</time></trkpt><trkpt lat="45.86349838664673" lon="11.333993273652508"><ele>1124.3333333333333</ele><time>2026-05-02T13:12:52.997Z</time></trkpt><trkpt lat="45.86331224359925" lon="11.334014235158522"><ele>1122.6666666666667</ele><time>2026-05-02T13:12:53.997Z</time></trkpt><trkpt lat="45.863124938359604" lon="11.334046293058911"><ele>1121.0</ele><time>2026-05-02T13:12:55Z</time></trkpt><trkpt lat="45.86294194023364" lon="11.334094875006844"><ele>1121.0</ele><time>2026-05-02T13:12:56Z</time></trkpt><trkpt lat="45.8627594662973" lon="11.33413902322177"><ele>1121.0</ele><time>2026-05-02T13:12:57Z</time></trkpt><trkpt lat="45.8625835885091" lon="11.33418704049011"><ele>1121.0</ele><time>2026-05-02T13:12:58Z</time></trkpt><trkpt lat="45.86241696831096" lon="11.334228940538024"><ele>1119.6666666666667</ele><time>2026-05-02T13:12:59Z</time></trkpt><trkpt lat="45.862255867140576" lon="11.334264511298176"><ele>1118.3333333333333</ele><time>2026-05-02T13:13:00Z</time></trkpt><trkpt lat="45.862105548673554" lon="11.33430343488627"><ele>1117.0</ele><time>2026-05-02T13:13:01Z</time></trkpt><trkpt lat="45.861964196381564" lon="11.334357418700668"><ele>1117.0</ele><time>2026-05-02T13:13:02Z</time></trkpt><trkpt lat="45.86183407190296" lon="11.33444072442586"><ele>1117.0</ele><time>2026-05-02T13:13:03Z</time></trkpt><trkpt lat="45.86170802042523" lon="11.334548703063794"><ele>1117.0</ele><time>2026-05-02T13:13:04Z</time></trkpt><trkpt lat="45.86158475325673" lon="11.334664330194071"><ele>1117.0</ele><time>2026-05-02T13:13:05Z</time></trkpt><trkpt lat="45.86145741501676" lon="11.334774908526759"><ele>1114.25</ele><time>2026-05-02T13:13:06Z</time></trkpt><trkpt lat="45.86133218365162" lon="11.334878191407425"><ele>1111.5</ele><time>2026-05-02T13:13:07Z</time></trkpt><trkpt lat="45.861217666172045" lon="11.334965431078283"><ele>1108.75</ele><time>2026-05-02T13:13:08Z</time></trkpt><trkpt lat="45.86111950171777" lon="11.33507646523057"><ele>1106.0</ele><time>2026-05-02T13:13:09Z</time></trkpt><trkpt lat="45.86104469126764" lon="11.33521909884138"><ele>1106.0</ele><time>2026-05-02T13:13:10Z</time></trkpt><trkpt lat="45.86100987582218" lon="11.335391671768818"><ele>1106.0</ele><time>2026-05-02T13:13:11Z</time></trkpt><trkpt lat="45.86097022693059" lon="11.335558457980621"><ele>1106.0</ele><time>2026-05-02T13:13:12Z</time></trkpt><trkpt lat="45.860948337694076" lon="11.335732527466867"><ele>1106.0</ele><time>2026-05-02T13:13:13Z</time></trkpt><trkpt lat="45.86092314406853" lon="11.335897068016585"><ele>1106.5</ele><time>2026-05-02T13:13:14Z</time></trkpt><trkpt lat="45.860891260431806" lon="11.336056809614911"><ele>1107.0</ele><time>2026-05-02T13:13:15Z</time></trkpt><trkpt lat="45.86081682591611" lon="11.336184828614272"><ele>1107.5</ele><time>2026-05-02T13:13:16Z</time></trkpt><trkpt lat="45.86073493172464" lon="11.336290784571132"><ele>1108.0</ele><time>2026-05-02T13:13:17Z</time></trkpt><trkpt lat="45.86063492918013" lon="11.336369695448658"><ele>1104.75</ele><time>2026-05-02T13:13:18Z</time></trkpt><trkpt lat="45.86052711509714" lon="11.336478972015486"><ele>1101.5</ele><time>2026-05-02T13:13:19Z</time></trkpt><trkpt lat="45.86040550862915" lon="11.336556566408492"><ele>1098.25</ele><time>2026-05-02T13:13:20Z</time></trkpt><trkpt lat="45.86027511388809" lon="11.336585560954424"><ele>1095.0</ele><time>2026-05-02T13:13:21Z</time></trkpt><trkpt lat="45.86014652862753" lon="11.33662127716394"><ele>1096.0</ele><time>2026-05-02T13:13:22Z</time></trkpt><trkpt lat="45.86000885829256" lon="11.336678688751665"><ele>1097.0</ele><time>2026-05-02T13:13:23Z</time></trkpt><trkpt lat="45.85986676953115" lon="11.336740804034767"><ele>1098.0</ele><time>2026-05-02T13:13:24Z</time></trkpt><trkpt lat="45.85973247776962" lon="11.336811062425923"><ele>1099.0</ele><time>2026-05-02T13:13:25Z</time></trkpt><trkpt lat="45.85960557345768" lon="11.336897021679595"><ele>1099.0</ele><time>2026-05-02T13:13:26Z</time></trkpt><trkpt lat="45.859475953015945" lon="11.336972952255357"><ele>1099.0</ele><time>2026-05-02T13:13:27Z</time></trkpt><trkpt lat="45.85935178470372" lon="11.337042713871337"><ele>1099.0</ele><time>2026-05-02T13:13:28Z</time></trkpt><trkpt lat="45.85922789532857" lon="11.337111920235799"><ele>1099.0</ele><time>2026-05-02T13:13:28.999Z</time></trkpt><trkpt lat="45.85910137609012" lon="11.337170126506741"><ele>1098.0</ele><time>2026-05-02T13:13:29.999Z</time></trkpt><trkpt lat="45.85898909448584" lon="11.337203303214519"><ele>1097.0</ele><time>2026-05-02T13:13:30.999Z</time></trkpt><trkpt lat="45.85888401809184" lon="11.337224548045992"><ele>1096.0</ele><time>2026-05-02T13:13:31.999Z</time></trkpt><trkpt lat="45.85877982911435" lon="11.337242146158129"><ele>1095.0</ele><time>2026-05-02T13:13:32.999Z</time></trkpt><trkpt lat="45.85868129760016" lon="11.33727977802066"><ele>1094.0</ele><time>2026-05-02T13:13:33.999Z</time></trkpt><trkpt lat="45.85858800667551" lon="11.33733283862776"><ele>1092.6000000000001</ele><time>2026-05-02T13:13:34.999Z</time></trkpt><trkpt lat="45.85849703544541" lon="11.337391676585092"><ele>1091.2</ele><time>2026-05-02T13:13:35.999Z</time></trkpt><trkpt lat="45.85839629850769" lon="11.33743826050721"><ele>1089.8000000000002</ele><time>2026-05-02T13:13:36.999Z</time></trkpt><trkpt lat="45.858282539742376" lon="11.337470350895106"><ele>1088.4</ele><time>2026-05-02T13:13:37.999Z</time></trkpt><trkpt lat="45.858164133309295" lon="11.337472382710793"><ele>1087.0</ele><time>2026-05-02T13:13:38.999Z</time></trkpt><trkpt lat="45.85804926945347" lon="11.337474659643219"><ele>1086.4</ele><time>2026-05-02T13:13:39.999Z</time></trkpt><trkpt lat="45.857942853935704" lon="11.337479777253371"><ele>1085.8000000000002</ele><time>2026-05-02T13:13:40.999Z</time></trkpt><trkpt lat="45.85784198962369" lon="11.337484566139585"><ele>1085.2</ele><time>2026-05-02T13:13:41.999Z</time></trkpt><trkpt lat="45.857752644639234" lon="11.33749283889169"><ele>1084.6000000000001</ele><time>2026-05-02T13:13:42.999Z</time></trkpt><trkpt lat="45.8576673303823" lon="11.337508305491529"><ele>1084.0</ele><time>2026-05-02T13:13:43.999Z</time></trkpt><trkpt lat="45.8575923971572" lon="11.337542493695173"><ele>1084.0</ele><time>2026-05-02T13:13:44.999Z</time></trkpt><trkpt lat="45.85753888558614" lon="11.3376129115509"><ele>1084.0</ele><time>2026-05-02T13:13:45.999Z</time></trkpt><trkpt lat="45.857519966906885" lon="11.337709321834707"><ele>1084.0</ele><time>2026-05-02T13:13:46.999Z</time></trkpt><trkpt lat="45.857535209293985" lon="11.337809961529077"><ele>1084.0</ele><time>2026-05-02T13:13:47.999Z</time></trkpt><trkpt lat="45.85758500794665" lon="11.337894504810864"><ele>1084.0</ele><time>2026-05-02T13:13:48.999Z</time></trkpt><trkpt lat="45.85766559976143" lon="11.337963657288453"><ele>1084.0</ele><time>2026-05-02T13:13:49.999Z</time></trkpt><trkpt lat="45.857761710875934" lon="11.338028920426469"><ele>1082.8</ele><time>2026-05-02T13:13:50.999Z</time></trkpt><trkpt lat="45.85785129580218" lon="11.338108474823102"><ele>1081.6000000000001</ele><time>2026-05-02T13:13:51.999Z</time></trkpt><trkpt lat="45.8579457087261" lon="11.338192493361788"><ele>1080.4</ele><time>2026-05-02T13:13:52.999Z</time></trkpt><trkpt lat="45.858032472330294" lon="11.338272414517933"><ele>1079.2</ele><time>2026-05-02T13:13:53.999Z</time></trkpt><trkpt lat="45.85812210829477" lon="11.338333515670758"><ele>1078.0</ele><time>2026-05-02T13:13:54.999Z</time></trkpt><trkpt lat="45.85821642807722" lon="11.338378026400303"><ele>1078.0</ele><time>2026-05-02T13:13:55.999Z</time></trkpt><trkpt lat="45.858317722602045" lon="11.338397065061066"><ele>1078.0</ele><time>2026-05-02T13:13:56.999Z</time></trkpt><trkpt lat="45.85843283757692" lon="11.338391117978782"><ele>1078.0</ele><time>2026-05-02T13:13:57.999Z</time></trkpt><trkpt lat="45.85854379152791" lon="11.338384274327181"><ele>1078.0</ele><time>2026-05-02T13:13:58.999Z</time></trkpt><trkpt lat="45.858652460108814" lon="11.338383715362186"><ele>1078.0</ele><time>2026-05-02T13:13:59.999Z</time></trkpt><trkpt lat="45.85876863824446" lon="11.33838882584152"><ele>1079.0</ele><time>2026-05-02T13:14:00.999Z</time></trkpt><trkpt lat="45.85889102370221" lon="11.33840754235628"><ele>1080.0</ele><time>2026-05-02T13:14:01.999Z</time></trkpt><trkpt lat="45.85901486229965" lon="11.338435590938827"><ele>1081.0</ele><time>2026-05-02T13:14:02.999Z</time></trkpt><trkpt lat="45.85912948119119" lon="11.338469442375665"><ele>1082.0</ele><time>2026-05-02T13:14:03.999Z</time></trkpt><trkpt lat="45.859226268900976" lon="11.338511233706882"><ele>1082.25</ele><time>2026-05-02T13:14:04.999Z</time></trkpt><trkpt lat="45.85933229765765" lon="11.338554811379476"><ele>1082.5</ele><time>2026-05-02T13:14:05.999Z</time></trkpt><trkpt lat="45.85943912577841" lon="11.338600370685917"><ele>1082.75</ele><time>2026-05-02T13:14:06.999Z</time></trkpt><trkpt lat="45.859557693086586" lon="11.338623768399051"><ele>1083.0</ele><time>2026-05-02T13:14:07.999Z</time></trkpt><trkpt lat="45.85966836523363" lon="11.33862301218513"><ele>1083.0</ele><time>2026-05-02T13:14:08.998Z</time></trkpt><trkpt lat="45.85977554528681" lon="11.338628072194576"><ele>1083.0</ele><time>2026-05-02T13:14:09.998Z</time></trkpt><trkpt lat="45.85988257801204" lon="11.33861336149541"><ele>1083.0</ele><time>2026-05-02T13:14:10.998Z</time></trkpt><trkpt lat="45.85998123523065" lon="11.338603535745408"><ele>1083.0</ele><time>2026-05-02T13:14:11.998Z</time></trkpt><trkpt lat="45.860078534733155" lon="11.338618622014254"><ele>1083.0</ele><time>2026-05-02T13:14:12.998Z</time></trkpt><trkpt lat="45.86018363235345" lon="11.338646290459254"><ele>1081.6</ele><time>2026-05-02T13:14:13.998Z</time></trkpt><trkpt lat="45.86027795402759" lon="11.338687810744243"><ele>1080.1999999999998</ele><time>2026-05-02T13:14:14.998Z</time></trkpt><trkpt lat="45.86037048668125" lon="11.338730084098751"><ele>1078.8</ele><time>2026-05-02T13:14:15.998Z</time></trkpt><trkpt lat="45.86045419841294" lon="11.338773540929193"><ele>1077.3999999999999</ele><time>2026-05-02T13:14:16.998Z</time></trkpt><trkpt lat="45.860551132367206" lon="11.338826347427382"><ele>1076.0</ele><time>2026-05-02T13:14:17.998Z</time></trkpt><trkpt lat="45.86065078896305" lon="11.338862524716397"><ele>1073.8</ele><time>2026-05-02T13:14:18.998Z</time></trkpt><trkpt lat="45.86075756484352" lon="11.338894409705826"><ele>1071.6</ele><time>2026-05-02T13:14:19.998Z</time></trkpt><trkpt lat="45.860861420217276" lon="11.3389232279126"><ele>1069.4</ele><time>2026-05-02T13:14:20.998Z</time></trkpt><trkpt lat="45.860953469086844" lon="11.338951638132562"><ele>1067.2</ele><time>2026-05-02T13:14:21.998Z</time></trkpt><trkpt lat="45.86104147015105" lon="11.338999834872498"><ele>1065.0</ele><time>2026-05-02T13:14:22.998Z</time></trkpt><trkpt lat="45.8611258449722" lon="11.339072795316337"><ele>1063.2</ele><time>2026-05-02T13:14:23.998Z</time></trkpt><trkpt lat="45.86118912859939" lon="11.339158488899253"><ele>1061.4</ele><time>2026-05-02T13:14:24.998Z</time></trkpt><trkpt lat="45.86125403861025" lon="11.339268891322837"><ele>1059.6</ele><time>2026-05-02T13:14:25.998Z</time></trkpt><trkpt lat="45.861302737707454" lon="11.339394919219146"><ele>1057.8</ele><time>2026-05-02T13:14:26.998Z</time></trkpt><trkpt lat="45.86136399715054" lon="11.339523549070682"><ele>1056.0</ele><time>2026-05-02T13:14:27.998Z</time></trkpt><trkpt lat="45.86141085050492" lon="11.339635580304526"><ele>1055.5</ele><time>2026-05-02T13:14:28.998Z</time></trkpt><trkpt lat="45.86145533278567" lon="11.339736156781687"><ele>1055.0</ele><time>2026-05-02T13:14:29.998Z</time></trkpt><trkpt lat="45.86150787442567" lon="11.339808588621844"><ele>1054.5</ele><time>2026-05-02T13:14:30.998Z</time></trkpt><trkpt lat="45.861564588193446" lon="11.339848501460379"><ele>1054.0</ele><time>2026-05-02T13:14:31.998Z</time></trkpt><trkpt lat="45.86166905755391" lon="11.339884221979162"><ele>1053.5</ele><time>2026-05-02T13:14:33.998Z</time></trkpt><trkpt lat="45.86176489996834" lon="11.33989986319954"><ele>1053.0</ele><time>2026-05-02T13:14:35.998Z</time></trkpt><trkpt lat="45.861864724573586" lon="11.339916792188824"><ele>1052.2857142857142</ele><time>2026-05-02T13:14:37.998Z</time></trkpt><trkpt lat="45.8619270616603" lon="11.339932660768692"><ele>1051.5714285714284</ele><time>2026-05-02T13:14:38.998Z</time></trkpt><trkpt lat="45.86199440361954" lon="11.339948964492798"><ele>1050.857142857143</ele><time>2026-05-02T13:14:39.998Z</time></trkpt><trkpt lat="45.86206382509045" lon="11.339961889904709"><ele>1050.142857142857</ele><time>2026-05-02T13:14:40.998Z</time></trkpt><trkpt lat="45.86213809068215" lon="11.339977718043473"><ele>1049.4285714285716</ele><time>2026-05-02T13:14:41.998Z</time></trkpt><trkpt lat="45.862211116148586" lon="11.339997935071837"><ele>1048.7142857142858</ele><time>2026-05-02T13:14:42.998Z</time></trkpt><trkpt lat="45.8622921478726" lon="11.340027868481021"><ele>1048.0</ele><time>2026-05-02T13:14:43.998Z</time></trkpt><trkpt lat="45.86237564114382" lon="11.34008627960705"><ele>1048.0</ele><time>2026-05-02T13:14:44.998Z</time></trkpt><trkpt lat="45.86243881039543" lon="11.34017044855958"><ele>1048.0</ele><time>2026-05-02T13:14:45.998Z</time></trkpt><trkpt lat="45.862458713919274" lon="11.340325917398856"><ele>1048.0</ele><time>2026-05-02T13:14:46.998Z</time></trkpt><trkpt lat="45.86249011315441" lon="11.340477329040121"><ele>1048.0</ele><time>2026-05-02T13:14:47.998Z</time></trkpt><trkpt lat="45.86253205463619" lon="11.34060990612296"><ele>1048.0</ele><time>2026-05-02T13:14:48.998Z</time></trkpt><trkpt lat="45.86255557449231" lon="11.340733005455013"><ele>1047.5</ele><time>2026-05-02T13:14:49.997Z</time></trkpt><trkpt lat="45.86254790161774" lon="11.340848338403974"><ele>1047.0</ele><time>2026-05-02T13:14:50.997Z</time></trkpt><trkpt lat="45.86253785297501" lon="11.340959714245926"><ele>1046.5</ele><time>2026-05-02T13:14:51.997Z</time></trkpt><trkpt lat="45.86252329256827" lon="11.341071399910154"><ele>1046.0</ele><time>2026-05-02T13:14:52.997Z</time></trkpt><trkpt lat="45.862473639452276" lon="11.341178092538378"><ele>1045.5</ele><time>2026-05-02T13:14:53.997Z</time></trkpt><trkpt lat="45.862400811409906" lon="11.341269261680097"><ele>1045.0</ele><time>2026-05-02T13:14:54.997Z</time></trkpt><trkpt lat="45.86229429008514" lon="11.34130378900502"><ele>1045.0</ele><time>2026-05-02T13:14:55.997Z</time></trkpt><trkpt lat="45.86219174027549" lon="11.341375557366698"><ele>1045.0</ele><time>2026-05-02T13:14:56.997Z</time></trkpt><trkpt lat="45.86209393419205" lon="11.341469367303946"><ele>1045.0</ele><time>2026-05-02T13:14:57.997Z</time></trkpt><trkpt lat="45.86198442093179" lon="11.341561758344753"><ele>1045.0</ele><time>2026-05-02T13:14:58.997Z</time></trkpt><trkpt lat="45.86188633763908" lon="11.341662128895672"><ele>1044.0</ele><time>2026-05-02T13:14:59.997Z</time></trkpt><trkpt lat="45.86179598950738" lon="11.341768361599637"><ele>1043.0</ele><time>2026-05-02T13:15:01Z</time></trkpt><trkpt lat="45.86170693566131" lon="11.341862747433765"><ele>1042.0</ele><time>2026-05-02T13:15:02Z</time></trkpt><trkpt lat="45.861617497164" lon="11.341961563506226"><ele>1041.0</ele><time>2026-05-02T13:15:03Z</time></trkpt><trkpt lat="45.861518921755774" lon="11.34205904630556"><ele>1040.8</ele><time>2026-05-02T13:15:04Z</time></trkpt><trkpt lat="45.86141142698609" lon="11.342121921000517"><ele>1040.6</ele><time>2026-05-02T13:15:05Z</time></trkpt><trkpt lat="45.86131266203292" lon="11.342195022988914"><ele>1040.4</ele><time>2026-05-02T13:15:06Z</time></trkpt><trkpt lat="45.861228596711996" lon="11.34228547246753"><ele>1040.2</ele><time>2026-05-02T13:15:07Z</time></trkpt><trkpt lat="45.86114325473537" lon="11.342343192288192"><ele>1040.0</ele><time>2026-05-02T13:15:08Z</time></trkpt><trkpt lat="45.86106495683262" lon="11.342388564972754"><ele>1040.0</ele><time>2026-05-02T13:15:09Z</time></trkpt><trkpt lat="45.860981537518605" lon="11.34244440916673"><ele>1040.0</ele><time>2026-05-02T13:15:10Z</time></trkpt><trkpt lat="45.86089755494166" lon="11.342520325460521"><ele>1040.0</ele><time>2026-05-02T13:15:11Z</time></trkpt><trkpt lat="45.8608175838112" lon="11.342616358184042"><ele>1040.0</ele><time>2026-05-02T13:15:12Z</time></trkpt><trkpt lat="45.860744218107975" lon="11.342728835653952"><ele>1040.0</ele><time>2026-05-02T13:15:13Z</time></trkpt><trkpt lat="45.86068650637529" lon="11.342846483271327"><ele>1038.8</ele><time>2026-05-02T13:15:14Z</time></trkpt><trkpt lat="45.8606449922705" lon="11.342983325944067"><ele>1037.6</ele><time>2026-05-02T13:15:15Z</time></trkpt><trkpt lat="45.860618066275045" lon="11.343124702036475"><ele>1036.4</ele><time>2026-05-02T13:15:16Z</time></trkpt><trkpt lat="45.86062440448199" lon="11.343277110358645"><ele>1035.2</ele><time>2026-05-02T13:15:17Z</time></trkpt><trkpt lat="45.86063673608754" lon="11.343424554448251"><ele>1034.0</ele><time>2026-05-02T13:15:18Z</time></trkpt><trkpt lat="45.860670017931774" lon="11.343571667735187"><ele>1034.0</ele><time>2026-05-02T13:15:19Z</time></trkpt><trkpt lat="45.860715139286796" lon="11.343724597530564"><ele>1034.0</ele><time>2026-05-02T13:15:20Z</time></trkpt><trkpt lat="45.860767967057" lon="11.343866567078768"><ele>1034.0</ele><time>2026-05-02T13:15:21Z</time></trkpt><trkpt lat="45.86082002016817" lon="11.344012006047762"><ele>1034.0</ele><time>2026-05-02T13:15:22Z</time></trkpt><trkpt lat="45.86087848447515" lon="11.344171273156531"><ele>1032.25</ele><time>2026-05-02T13:15:23Z</time></trkpt><trkpt lat="45.860932255813736" lon="11.344322082322144"><ele>1030.5</ele><time>2026-05-02T13:15:24Z</time></trkpt><trkpt lat="45.86098708299309" lon="11.344479840976025"><ele>1028.75</ele><time>2026-05-02T13:15:25Z</time></trkpt><trkpt lat="45.861039761177224" lon="11.344640315948668"><ele>1027.0</ele><time>2026-05-02T13:15:26Z</time></trkpt><trkpt lat="45.86108914927043" lon="11.344789992362651"><ele>1030.75</ele><time>2026-05-02T13:15:27Z</time></trkpt><trkpt lat="45.861141362195866" lon="11.344944356728531"><ele>1034.5</ele><time>2026-05-02T13:15:28Z</time></trkpt><trkpt lat="45.86119217145815" lon="11.345099444251636"><ele>1038.25</ele><time>2026-05-02T13:15:29Z</time></trkpt><trkpt lat="45.86124875501306" lon="11.345250996019487"><ele>1042.0</ele><time>2026-05-02T13:15:30Z</time></trkpt><trkpt lat="45.861306482118735" lon="11.345403549524097"><ele>1039.25</ele><time>2026-05-02T13:15:31Z</time></trkpt><trkpt lat="45.861363718681204" lon="11.345557380719807"><ele>1036.5</ele><time>2026-05-02T13:15:32Z</time></trkpt><trkpt lat="45.86142367556201" lon="11.345714358920539"><ele>1033.75</ele><time>2026-05-02T13:15:32.999Z</time></trkpt><trkpt lat="45.86148430660713" lon="11.345869737412645"><ele>1031.0</ele><time>2026-05-02T13:15:33.999Z</time></trkpt><trkpt lat="45.86155080701834" lon="11.346019964135978"><ele>1031.0</ele><time>2026-05-02T13:15:34.999Z</time></trkpt><trkpt lat="45.86163041065828" lon="11.346162945982671"><ele>1031.0</ele><time>2026-05-02T13:15:35.999Z</time></trkpt><trkpt lat="45.861686268458044" lon="11.346307426892196"><ele>1031.0</ele><time>2026-05-02T13:15:36.999Z</time></trkpt><trkpt lat="45.86175829363628" lon="11.346450776375077"><ele>1031.0</ele><time>2026-05-02T13:15:37.999Z</time></trkpt><trkpt lat="45.861826842358916" lon="11.346597063658482"><ele>1030.3999999999999</ele><time>2026-05-02T13:15:38.999Z</time></trkpt><trkpt lat="45.861892972690924" lon="11.346739952927656"><ele>1029.8</ele><time>2026-05-02T13:15:39.999Z</time></trkpt><trkpt lat="45.861948284321805" lon="11.34686190004991"><ele>1029.1999999999998</ele><time>2026-05-02T13:15:40.999Z</time></trkpt><trkpt lat="45.861951697457364" lon="11.346999119965083"><ele>1028.6</ele><time>2026-05-02T13:15:41.999Z</time></trkpt><trkpt lat="45.86197096049813" lon="11.347132921312708"><ele>1028.0</ele><time>2026-05-02T13:15:42.999Z</time></trkpt><trkpt lat="45.861942751621335" lon="11.3472549022587"><ele>1028.0</ele><time>2026-05-02T13:15:43.999Z</time></trkpt><trkpt lat="45.861910845608634" lon="11.34738220997611"><ele>1028.0</ele><time>2026-05-02T13:15:44.999Z</time></trkpt><trkpt lat="45.86185670930828" lon="11.347492144101357"><ele>1028.0</ele><time>2026-05-02T13:15:45.999Z</time></trkpt><trkpt lat="45.86178860023602" lon="11.347591349340671"><ele>1028.0</ele><time>2026-05-02T13:15:46.999Z</time></trkpt><trkpt lat="45.86170275642415" lon="11.347673677258136"><ele>1028.0</ele><time>2026-05-02T13:15:47.999Z</time></trkpt><trkpt lat="45.86160930314364" lon="11.347705082002769"><ele>1023.8</ele><time>2026-05-02T13:15:48.999Z</time></trkpt><trkpt lat="45.86149659916257" lon="11.347740242660258"><ele>1019.5999999999999</ele><time>2026-05-02T13:15:49.999Z</time></trkpt><trkpt lat="45.861386421785625" lon="11.347773294416958"><ele>1015.4000000000001</ele><time>2026-05-02T13:15:50.999Z</time></trkpt><trkpt lat="45.86128125703131" lon="11.347825640363938"><ele>1011.2</ele><time>2026-05-02T13:15:51.999Z</time></trkpt><trkpt lat="45.86117793628637" lon="11.347843464932216"><ele>1007.0</ele><time>2026-05-02T13:15:52.999Z</time></trkpt><trkpt lat="45.86107410132633" lon="11.347869898533112"><ele>1007.0</ele><time>2026-05-02T13:15:53.999Z</time></trkpt><trkpt lat="45.86096763850946" lon="11.347862603678973"><ele>1007.0</ele><time>2026-05-02T13:15:54.999Z</time></trkpt><trkpt lat="45.8608590997307" lon="11.347864339168893"><ele>1007.0</ele><time>2026-05-02T13:15:55.999Z</time></trkpt><trkpt lat="45.86075079788869" lon="11.347841613700012"><ele>1007.0</ele><time>2026-05-02T13:15:56.999Z</time></trkpt><trkpt lat="45.860637593600494" lon="11.347815288520522"><ele>1007.0</ele><time>2026-05-02T13:15:57.999Z</time></trkpt><trkpt lat="45.86052088041236" lon="11.34780008603699"><ele>1005.2</ele><time>2026-05-02T13:15:58.999Z</time></trkpt><trkpt lat="45.86041310711556" lon="11.347757945717174"><ele>1003.4000000000001</ele><time>2026-05-02T13:15:59.999Z</time></trkpt><trkpt lat="45.860313974424784" lon="11.347691998464496"><ele>1001.5999999999999</ele><time>2026-05-02T13:16:00.999Z</time></trkpt><trkpt lat="45.86021319109173" lon="11.347649294408045"><ele>999.8</ele><time>2026-05-02T13:16:01.999Z</time></trkpt><trkpt lat="45.86012011181906" lon="11.347590157674569"><ele>998.0</ele><time>2026-05-02T13:16:02.999Z</time></trkpt><trkpt lat="45.860026791627384" lon="11.347530809518153"><ele>997.5999999999999</ele><time>2026-05-02T13:16:03.999Z</time></trkpt><trkpt lat="45.85993702283856" lon="11.34747097130524"><ele>997.1999999999999</ele><time>2026-05-02T13:16:04.999Z</time></trkpt><trkpt lat="45.859849791558794" lon="11.347412373465966"><ele>996.8</ele><time>2026-05-02T13:16:05.999Z</time></trkpt><trkpt lat="45.85976105198182" lon="11.347358672606449"><ele>996.4</ele><time>2026-05-02T13:16:06.999Z</time></trkpt><trkpt lat="45.85968537137007" lon="11.34731276809923"><ele>996.0</ele><time>2026-05-02T13:16:07.999Z</time></trkpt><trkpt lat="45.859607732279464" lon="11.347264570711646"><ele>996.0</ele><time>2026-05-02T13:16:08.999Z</time></trkpt><trkpt lat="45.85953050260256" lon="11.347213202313684"><ele>996.0</ele><time>2026-05-02T13:16:09.999Z</time></trkpt><trkpt lat="45.85945336759404" lon="11.34716426408889"><ele>996.0</ele><time>2026-05-02T13:16:10.999Z</time></trkpt><trkpt lat="45.859375361114864" lon="11.34711179856242"><ele>996.0</ele><time>2026-05-02T13:16:11.999Z</time></trkpt><trkpt lat="45.85929237098315" lon="11.34705765656921"><ele>996.0</ele><time>2026-05-02T13:16:12.999Z</time></trkpt><trkpt lat="45.859203036980496" lon="11.347009180753766"><ele>996.0</ele><time>2026-05-02T13:16:13.999Z</time></trkpt><trkpt lat="45.85911706923422" lon="11.346963484948912"><ele>994.4</ele><time>2026-05-02T13:16:14.998Z</time></trkpt><trkpt lat="45.85903107271204" lon="11.346911139329093"><ele>992.8</ele><time>2026-05-02T13:16:15.998Z</time></trkpt><trkpt lat="45.858946632778895" lon="11.34685719314813"><ele>991.1999999999999</ele><time>2026-05-02T13:16:16.998Z</time></trkpt><trkpt lat="45.85886139251716" lon="11.346803791189286"><ele>989.5999999999999</ele><time>2026-05-02T13:16:17.998Z</time></trkpt><trkpt lat="45.85877968773313" lon="11.346742441547677"><ele>988.0</ele><time>2026-05-02T13:16:18.998Z</time></trkpt><trkpt lat="45.85869524471097" lon="11.346688701012685"><ele>988.0</ele><time>2026-05-02T13:16:19.998Z</time></trkpt><trkpt lat="45.858605374721364" lon="11.34663193417733"><ele>988.0</ele><time>2026-05-02T13:16:20.998Z</time></trkpt><trkpt lat="45.858516866089666" lon="11.34657011691711"><ele>988.0</ele><time>2026-05-02T13:16:21.998Z</time></trkpt><trkpt lat="45.85843064267671" lon="11.346499788585954"><ele>988.0</ele><time>2026-05-02T13:16:22.998Z</time></trkpt><trkpt lat="45.858346185933655" lon="11.346427849054718"><ele>988.0</ele><time>2026-05-02T13:16:23.998Z</time></trkpt><trkpt lat="45.858263734292876" lon="11.346352332947221"><ele>986.5999999999999</ele><time>2026-05-02T13:16:24.998Z</time></trkpt><trkpt lat="45.858183505653585" lon="11.34627970427322"><ele>985.1999999999999</ele><time>2026-05-02T13:16:25.998Z</time></trkpt><trkpt lat="45.85810255290462" lon="11.34620927428944"><ele>983.8</ele><time>2026-05-02T13:16:26.998Z</time></trkpt><trkpt lat="45.858025715019316" lon="11.346130964292447"><ele>982.4</ele><time>2026-05-02T13:16:27.998Z</time></trkpt><trkpt lat="45.8579480745577" lon="11.346051492316098"><ele>981.0</ele><time>2026-05-02T13:16:28.998Z</time></trkpt><trkpt lat="45.85787654807726" lon="11.345980429950666"><ele>981.0</ele><time>2026-05-02T13:16:29.998Z</time></trkpt><trkpt lat="45.857804436640365" lon="11.345909375766192"><ele>981.0</ele><time>2026-05-02T13:16:30.998Z</time></trkpt><trkpt lat="45.85772619692172" lon="11.345842820250901"><ele>981.0</ele><time>2026-05-02T13:16:31.998Z</time></trkpt><trkpt lat="45.857655980243464" lon="11.345783045319976"><ele>981.0</ele><time>2026-05-02T13:16:32.998Z</time></trkpt><trkpt lat="45.857597639919724" lon="11.3457372007397"><ele>981.0</ele><time>2026-05-02T13:16:33.998Z</time></trkpt><trkpt lat="45.857523833815094" lon="11.34573417219053"><ele>981.0</ele><time>2026-05-02T13:16:34.998Z</time></trkpt><trkpt lat="45.85745660215533" lon="11.345747725452796"><ele>982.0</ele><time>2026-05-02T13:16:35.998Z</time></trkpt><trkpt lat="45.857391207976924" lon="11.34580146739047"><ele>983.0</ele><time>2026-05-02T13:16:36.998Z</time></trkpt><trkpt lat="45.857324891265435" lon="11.345847780632322"><ele>984.0</ele><time>2026-05-02T13:16:37.998Z</time></trkpt><trkpt lat="45.85724705944619" lon="11.3458773533424"><ele>985.0</ele><time>2026-05-02T13:16:38.998Z</time></trkpt><trkpt lat="45.85716792984728" lon="11.3458923389475"><ele>986.0</ele><time>2026-05-02T13:16:39.998Z</time></trkpt><trkpt lat="45.85708297150709" lon="11.345868271216153"><ele>987.0</ele><time>2026-05-02T13:16:40.998Z</time></trkpt><trkpt lat="45.85699872721659" lon="11.345835371454452"><ele>987.0</ele><time>2026-05-02T13:16:41.998Z</time></trkpt><trkpt lat="45.85691464999492" lon="11.345798262374673"><ele>987.0</ele><time>2026-05-02T13:16:42.998Z</time></trkpt><trkpt lat="45.85682578394149" lon="11.3457671219276"><ele>987.0</ele><time>2026-05-02T13:16:43.998Z</time></trkpt><trkpt lat="45.856722495112486" lon="11.345728442169374"><ele>987.0</ele><time>2026-05-02T13:16:44.998Z</time></trkpt><trkpt lat="45.85662721111392" lon="11.345670816474037"><ele>987.0</ele><time>2026-05-02T13:16:45.998Z</time></trkpt><trkpt lat="45.856520694442025" lon="11.345630143771755"><ele>988.0</ele><time>2026-05-02T13:16:46.998Z</time></trkpt><trkpt lat="45.85640825602836" lon="11.34558931987285"><ele>989.0</ele><time>2026-05-02T13:16:47.998Z</time></trkpt><trkpt lat="45.8562967195283" lon="11.345552722283797"><ele>990.0</ele><time>2026-05-02T13:16:48.998Z</time></trkpt><trkpt lat="45.85618557792819" lon="11.34553445492436"><ele>991.0</ele><time>2026-05-02T13:16:49.998Z</time></trkpt><trkpt lat="45.85606956265204" lon="11.34556276504008"><ele>985.5</ele><time>2026-05-02T13:16:50.998Z</time></trkpt><trkpt lat="45.85594548730084" lon="11.345575991682697"><ele>980.0</ele><time>2026-05-02T13:16:51.998Z</time></trkpt><trkpt lat="45.85582096435349" lon="11.34559892113459"><ele>974.5</ele><time>2026-05-02T13:16:52.998Z</time></trkpt><trkpt lat="45.85570061620614" lon="11.345617844661634"><ele>969.0</ele><time>2026-05-02T13:16:53.998Z</time></trkpt><trkpt lat="45.85557541092012" lon="11.345638634737693"><ele>969.0</ele><time>2026-05-02T13:16:54.998Z</time></trkpt><trkpt lat="45.85545128084998" lon="11.3456573577683"><ele>969.0</ele><time>2026-05-02T13:16:55.997Z</time></trkpt><trkpt lat="45.85533200567882" lon="11.345678852905355"><ele>969.0</ele><time>2026-05-02T13:16:56.997Z</time></trkpt><trkpt lat="45.855212713392255" lon="11.345694547617324"><ele>969.0</ele><time>2026-05-02T13:16:57.997Z</time></trkpt><trkpt lat="45.85510748898674" lon="11.345711087641373"><ele>968.2</ele><time>2026-05-02T13:16:58.997Z</time></trkpt><trkpt lat="45.855001941474654" lon="11.34574155686801"><ele>967.4000000000001</ele><time>2026-05-02T13:16:59.997Z</time></trkpt><trkpt lat="45.85489772253472" lon="11.345773433881675"><ele>966.6</ele><time>2026-05-02T13:17:00.997Z</time></trkpt><trkpt lat="45.85480845872695" lon="11.345851967793845"><ele>965.8</ele><time>2026-05-02T13:17:01.997Z</time></trkpt><trkpt lat="45.85472157300886" lon="11.345907415094597"><ele>965.0</ele><time>2026-05-02T13:17:02.997Z</time></trkpt><trkpt lat="45.85463690349277" lon="11.345978257917485"><ele>965.0</ele><time>2026-05-02T13:17:03.997Z</time></trkpt><trkpt lat="45.85455320611809" lon="11.346047492726518"><ele>965.0</ele><time>2026-05-02T13:17:04.997Z</time></trkpt><trkpt lat="45.85448123660675" lon="11.346131391090838"><ele>965.0</ele><time>2026-05-02T13:17:05.997Z</time></trkpt><trkpt lat="45.85439110423639" lon="11.346190942714035"><ele>965.0</ele><time>2026-05-02T13:17:07Z</time></trkpt><trkpt lat="45.85431030958847" lon="11.346260757587096"><ele>965.0</ele><time>2026-05-02T13:17:08Z</time></trkpt><trkpt lat="45.85423398900683" lon="11.346324418129807"><ele>963.0</ele><time>2026-05-02T13:17:09Z</time></trkpt><trkpt lat="45.85414594085872" lon="11.346398301720756"><ele>961.0</ele><time>2026-05-02T13:17:10Z</time></trkpt><trkpt lat="45.854061930926655" lon="11.346480972986534"><ele>959.0</ele><time>2026-05-02T13:17:11Z</time></trkpt><trkpt lat="45.853986660491614" lon="11.346562437560157"><ele>957.0</ele><time>2026-05-02T13:17:12Z</time></trkpt><trkpt lat="45.853923276335" lon="11.346652558457345"><ele>955.0</ele><time>2026-05-02T13:17:13Z</time></trkpt><trkpt lat="45.85386394910476" lon="11.34673067149683"><ele>954.9999999999999</ele><time>2026-05-02T13:17:14Z</time></trkpt><trkpt lat="45.85380953661296" lon="11.346807343287178"><ele>955.0</ele><time>2026-05-02T13:17:15Z</time></trkpt><trkpt lat="45.85375925576662" lon="11.346869984795415"><ele>955.0</ele><time>2026-05-02T13:17:16Z</time></trkpt><trkpt lat="45.85368374210528" lon="11.346988311778611"><ele>955.0</ele><time>2026-05-02T13:17:18Z</time></trkpt><trkpt lat="45.85366045660566" lon="11.3471088210443"><ele>954.9999999999999</ele><time>2026-05-02T13:17:20Z</time></trkpt><trkpt lat="45.85370612865509" lon="11.347207134592113"><ele>955.0</ele><time>2026-05-02T13:17:22Z</time></trkpt><trkpt lat="45.85380679409865" lon="11.347212895530452"><ele>954.9999999999999</ele><time>2026-05-02T13:17:24Z</time></trkpt><trkpt lat="45.85387815478326" lon="11.347157999065413"><ele>955.0</ele><time>2026-05-02T13:17:25Z</time></trkpt><trkpt lat="45.8539520486221" lon="11.347113975988208"><ele>955.0</ele><time>2026-05-02T13:17:26Z</time></trkpt><trkpt lat="45.854033002492635" lon="11.347080314947878"><ele>955.0</ele><time>2026-05-02T13:17:27Z</time></trkpt><trkpt lat="45.85411711756108" lon="11.347052880304515"><ele>954.9999999999999</ele><time>2026-05-02T13:17:28Z</time></trkpt><trkpt lat="45.854198042502176" lon="11.347016601775367"><ele>955.0</ele><time>2026-05-02T13:17:29Z</time></trkpt><trkpt lat="45.85428038304554" lon="11.346977909957609"><ele>953.6</ele><time>2026-05-02T13:17:30Z</time></trkpt><trkpt lat="45.85437427009639" lon="11.346933320834102"><ele>952.2</ele><time>2026-05-02T13:17:31Z</time></trkpt><trkpt lat="45.8544734005278" lon="11.346895389408376"><ele>950.8</ele><time>2026-05-02T13:17:32Z</time></trkpt><trkpt lat="45.854581003716355" lon="11.346859227201369"><ele>949.4</ele><time>2026-05-02T13:17:33Z</time></trkpt><trkpt lat="45.85469402212037" lon="11.34683970086901"><ele>948.0</ele><time>2026-05-02T13:17:34Z</time></trkpt><trkpt lat="45.854798142632454" lon="11.34687380209739"><ele>948.0</ele><time>2026-05-02T13:17:35Z</time></trkpt><trkpt lat="45.854896599836735" lon="11.346869022514706"><ele>948.0</ele><time>2026-05-02T13:17:35.999Z</time></trkpt><trkpt lat="45.85499381167837" lon="11.346892604220438"><ele>948.0</ele><time>2026-05-02T13:17:36.999Z</time></trkpt><trkpt lat="45.85509604088043" lon="11.34692168132007"><ele>948.0</ele><time>2026-05-02T13:17:37.999Z</time></trkpt><trkpt lat="45.855185154709396" lon="11.346953264350251"><ele>948.0</ele><time>2026-05-02T13:17:38.999Z</time></trkpt><trkpt lat="45.85527438075986" lon="11.346964203891943"><ele>948.4</ele><time>2026-05-02T13:17:39.999Z</time></trkpt><trkpt lat="45.85536111595189" lon="11.347023135017533"><ele>948.8</ele><time>2026-05-02T13:17:40.999Z</time></trkpt><trkpt lat="45.85544773176356" lon="11.347060929935896"><ele>949.2</ele><time>2026-05-02T13:17:41.999Z</time></trkpt><trkpt lat="45.85553041594984" lon="11.347116278695857"><ele>949.6</ele><time>2026-05-02T13:17:42.999Z</time></trkpt><trkpt lat="45.85559910028874" lon="11.347179129895459"><ele>950.0</ele><time>2026-05-02T13:17:43.999Z</time></trkpt><trkpt lat="45.85568319089446" lon="11.347246064245383"><ele>948.4</ele><time>2026-05-02T13:17:44.999Z</time></trkpt><trkpt lat="45.85576067935582" lon="11.347312708177416"><ele>946.8</ele><time>2026-05-02T13:17:45.999Z</time></trkpt><trkpt lat="45.85584626518658" lon="11.347394202308372"><ele>945.2</ele><time>2026-05-02T13:17:46.999Z</time></trkpt><trkpt lat="45.85594049987883" lon="11.347470337712021"><ele>943.6</ele><time>2026-05-02T13:17:47.999Z</time></trkpt><trkpt lat="45.856027136856376" lon="11.347568556743903"><ele>942.0</ele><time>2026-05-02T13:17:48.999Z</time></trkpt><trkpt lat="45.85612097868642" lon="11.347667254773045"><ele>942.0</ele><time>2026-05-02T13:17:49.999Z</time></trkpt><trkpt lat="45.856225160201596" lon="11.347766651099922"><ele>942.0</ele><time>2026-05-02T13:17:50.999Z</time></trkpt><trkpt lat="45.856337824890794" lon="11.347844509316367"><ele>942.0</ele><time>2026-05-02T13:17:51.999Z</time></trkpt><trkpt lat="45.85645467145006" lon="11.347912472235528"><ele>942.0</ele><time>2026-05-02T13:17:52.999Z</time></trkpt><trkpt lat="45.85657665108628" lon="11.347967285275805"><ele>942.0</ele><time>2026-05-02T13:17:53.999Z</time></trkpt><trkpt lat="45.85669734888721" lon="11.348023361275118"><ele>942.0</ele><time>2026-05-02T13:17:54.999Z</time></trkpt><trkpt lat="45.85681434473635" lon="11.348093380086953"><ele>942.0</ele><time>2026-05-02T13:17:55.999Z</time></trkpt><trkpt lat="45.856930376822625" lon="11.348113294388156"><ele>942.0</ele><time>2026-05-02T13:17:56.999Z</time></trkpt><trkpt lat="45.85703431769394" lon="11.34815812022183"><ele>939.2</ele><time>2026-05-02T13:17:57.999Z</time></trkpt><trkpt lat="45.85712655949398" lon="11.348199951045142"><ele>936.4000000000001</ele><time>2026-05-02T13:17:58.999Z</time></trkpt><trkpt lat="45.857211717226804" lon="11.34823676183334"><ele>933.5999999999999</ele><time>2026-05-02T13:17:59.999Z</time></trkpt><trkpt lat="45.857288349878594" lon="11.348280308915013"><ele>930.8</ele><time>2026-05-02T13:18:00.999Z</time></trkpt><trkpt lat="45.857353710821556" lon="11.348325517143007"><ele>928.0</ele><time>2026-05-02T13:18:01.999Z</time></trkpt><trkpt lat="45.857456387495006" lon="11.348411467132532"><ele>928.0</ele><time>2026-05-02T13:18:03.999Z</time></trkpt><trkpt lat="45.85752250214968" lon="11.348541675174195"><ele>928.0</ele><time>2026-05-02T13:18:05.999Z</time></trkpt><trkpt lat="45.85747011473972" lon="11.348703626408629"><ele>928.0</ele><time>2026-05-02T13:18:07.999Z</time></trkpt><trkpt lat="45.85737913637271" lon="11.348709908658659"><ele>928.0</ele><time>2026-05-02T13:18:08.999Z</time></trkpt><trkpt lat="45.857290475861795" lon="11.348756189150055"><ele>928.0</ele><time>2026-05-02T13:18:09.999Z</time></trkpt><trkpt lat="45.85718766309797" lon="11.34881238823057"><ele>923.75</ele><time>2026-05-02T13:18:10.999Z</time></trkpt><trkpt lat="45.85707077822265" lon="11.348876277998436"><ele>919.5</ele><time>2026-05-02T13:18:11.999Z</time></trkpt><trkpt lat="45.856951641576316" lon="11.348975160351566"><ele>915.25</ele><time>2026-05-02T13:18:12.999Z</time></trkpt><trkpt lat="45.85681541913731" lon="11.349035585046458"><ele>911.0</ele><time>2026-05-02T13:18:13.999Z</time></trkpt><trkpt lat="45.856677475589514" lon="11.349113583651247"><ele>910.75</ele><time>2026-05-02T13:18:14.999Z</time></trkpt><trkpt lat="45.85653399997632" lon="11.349191252270757"><ele>910.5</ele><time>2026-05-02T13:18:15.999Z</time></trkpt><trkpt lat="45.85639643486801" lon="11.349270910987508"><ele>910.25</ele><time>2026-05-02T13:18:16.999Z</time></trkpt><trkpt lat="45.85626172080911" lon="11.349347598549388"><ele>910.0</ele><time>2026-05-02T13:18:17.999Z</time></trkpt><trkpt lat="45.8561316283974" lon="11.34941571606394"><ele>910.0</ele><time>2026-05-02T13:18:18.999Z</time></trkpt><trkpt lat="45.85600014291424" lon="11.34946603770491"><ele>910.0</ele><time>2026-05-02T13:18:19.998Z</time></trkpt><trkpt lat="45.85587355308081" lon="11.349510809191726"><ele>910.0</ele><time>2026-05-02T13:18:20.998Z</time></trkpt><trkpt lat="45.85574651908672" lon="11.349546804870489"><ele>910.0</ele><time>2026-05-02T13:18:21.998Z</time></trkpt><trkpt lat="45.85562183814315" lon="11.34958276284205"><ele>910.25</ele><time>2026-05-02T13:18:22.998Z</time></trkpt><trkpt lat="45.85549729078096" lon="11.349622963351893"><ele>910.5</ele><time>2026-05-02T13:18:23.998Z</time></trkpt><trkpt lat="45.85537326052508" lon="11.349639628913181"><ele>910.75</ele><time>2026-05-02T13:18:24.998Z</time></trkpt><trkpt lat="45.85525791247854" lon="11.349671614338423"><ele>911.0</ele><time>2026-05-02T13:18:25.998Z</time></trkpt><trkpt lat="45.8551443291826" lon="11.34972555369946"><ele>909.0</ele><time>2026-05-02T13:18:26.998Z</time></trkpt><trkpt lat="45.855035731962516" lon="11.349749754725403"><ele>907.0</ele><time>2026-05-02T13:18:27.998Z</time></trkpt><trkpt lat="45.85491425942645" lon="11.349781697162904"><ele>905.0</ele><time>2026-05-02T13:18:28.998Z</time></trkpt><trkpt lat="45.85480833322284" lon="11.34980280616696"><ele>903.0</ele><time>2026-05-02T13:18:29.998Z</time></trkpt><trkpt lat="45.854689988087195" lon="11.349801986961884"><ele>903.0</ele><time>2026-05-02T13:18:30.998Z</time></trkpt><trkpt lat="45.854564692913506" lon="11.34977741888995"><ele>903.0</ele><time>2026-05-02T13:18:31.998Z</time></trkpt><trkpt lat="45.85444819191189" lon="11.34973986208588"><ele>903.0</ele><time>2026-05-02T13:18:32.998Z</time></trkpt><trkpt lat="45.8543322549798" lon="11.349704885088927"><ele>903.0</ele><time>2026-05-02T13:18:33.998Z</time></trkpt><trkpt lat="45.85421578178434" lon="11.34969547548812"><ele>901.5</ele><time>2026-05-02T13:18:34.998Z</time></trkpt><trkpt lat="45.854100639577815" lon="11.349683306762362"><ele>900.0</ele><time>2026-05-02T13:18:35.998Z</time></trkpt><trkpt lat="45.85399306987039" lon="11.349722656776605"><ele>898.5</ele><time>2026-05-02T13:18:36.998Z</time></trkpt><trkpt lat="45.85386974652619" lon="11.349801869326708"><ele>897.0</ele><time>2026-05-02T13:18:37.998Z</time></trkpt><trkpt lat="45.85376810774343" lon="11.34993275276571"><ele>897.0</ele><time>2026-05-02T13:18:38.998Z</time></trkpt><trkpt lat="45.853667729296625" lon="11.350052748709688"><ele>897.0</ele><time>2026-05-02T13:18:39.998Z</time></trkpt><trkpt lat="45.853569072158685" lon="11.350161217005965"><ele>897.0</ele><time>2026-05-02T13:18:40.998Z</time></trkpt><trkpt lat="45.853472246410426" lon="11.350285059917853"><ele>897.0</ele><time>2026-05-02T13:18:41.998Z</time></trkpt><trkpt lat="45.85337737017013" lon="11.350413459973195"><ele>895.0</ele><time>2026-05-02T13:18:42.998Z</time></trkpt><trkpt lat="45.85328113974849" lon="11.350544651818176"><ele>893.0</ele><time>2026-05-02T13:18:43.998Z</time></trkpt><trkpt lat="45.853158119188464" lon="11.350644203366764"><ele>891.0</ele><time>2026-05-02T13:18:44.998Z</time></trkpt><trkpt lat="45.85303647412842" lon="11.350750823041723"><ele>889.0</ele><time>2026-05-02T13:18:45.998Z</time></trkpt><trkpt lat="45.8529125589987" lon="11.350849682080252"><ele>889.0</ele><time>2026-05-02T13:18:46.998Z</time></trkpt><trkpt lat="45.85276739237168" lon="11.350948620258922"><ele>889.0</ele><time>2026-05-02T13:18:47.998Z</time></trkpt><trkpt lat="45.85258063462702" lon="11.351069410568442"><ele>889.0</ele><time>2026-05-02T13:18:48.998Z</time></trkpt><trkpt lat="45.852366021374266" lon="11.351210155247317"><ele>893.0</ele><time>2026-05-02T13:18:49.998Z</time></trkpt><trkpt lat="45.85216773451169" lon="11.351360231330363"><ele>897.0</ele><time>2026-05-02T13:18:50.998Z</time></trkpt><trkpt lat="45.85202959931939" lon="11.351468966353298"><ele>901.0</ele><time>2026-05-02T13:18:51.998Z</time></trkpt><trkpt lat="45.85188802246943" lon="11.35158049101897"><ele>896.3333333333333</ele><time>2026-05-02T13:18:52.998Z</time></trkpt><trkpt lat="45.851753420385286" lon="11.351689468422045"><ele>891.6666666666667</ele><time>2026-05-02T13:18:53.998Z</time></trkpt><trkpt lat="45.85159826202043" lon="11.351815026890833"><ele>887.0</ele><time>2026-05-02T13:18:54.998Z</time></trkpt><trkpt lat="45.851440786845174" lon="11.351941633234418"><ele>887.0</ele><time>2026-05-02T13:18:55.998Z</time></trkpt><trkpt lat="45.851300479334185" lon="11.352034393456012"><ele>887.0</ele><time>2026-05-02T13:18:56.998Z</time></trkpt><trkpt lat="45.85115188209339" lon="11.35211004104316"><ele>887.0</ele><time>2026-05-02T13:18:57.998Z</time></trkpt><trkpt lat="45.85100227017939" lon="11.35217772115562"><ele>880.75</ele><time>2026-05-02T13:18:58.998Z</time></trkpt><trkpt lat="45.85085546219578" lon="11.352228907559935"><ele>874.5</ele><time>2026-05-02T13:18:59.998Z</time></trkpt><trkpt lat="45.85071038445524" lon="11.352267543933992"><ele>868.25</ele><time>2026-05-02T13:19:00.998Z</time></trkpt><trkpt lat="45.850564774130945" lon="11.352272930689306"><ele>862.0</ele><time>2026-05-02T13:19:01.997Z</time></trkpt><trkpt lat="45.850427552718784" lon="11.352268525243957"><ele>862.0</ele><time>2026-05-02T13:19:02.997Z</time></trkpt><trkpt lat="45.85030241094863" lon="11.352279207418459"><ele>862.0</ele><time>2026-05-02T13:19:03.997Z</time></trkpt><trkpt lat="45.85019555847878" lon="11.352264288715896"><ele>862.0</ele><time>2026-05-02T13:19:04.997Z</time></trkpt><trkpt lat="45.8501034885211" lon="11.352245542674224"><ele>862.0</ele><time>2026-05-02T13:19:05.997Z</time></trkpt><trkpt lat="45.850027606852365" lon="11.352230846540092"><ele>862.0</ele><time>2026-05-02T13:19:06.997Z</time></trkpt><trkpt lat="45.84996002087303" lon="11.352234293484633"><ele>862.0</ele><time>2026-05-02T13:19:07.997Z</time></trkpt><trkpt lat="45.84989730141245" lon="11.352247599472495"><ele>862.0</ele><time>2026-05-02T13:19:08.997Z</time></trkpt><trkpt lat="45.849943941666105" lon="11.35247415826101"><ele>862.0</ele><time>2026-05-02T13:19:10.997Z</time></trkpt><trkpt lat="45.85003314274911" lon="11.352529463006903"><ele>862.0</ele><time>2026-05-02T13:19:11.997Z</time></trkpt><trkpt lat="45.850134591325975" lon="11.352565957703836"><ele>862.0</ele><time>2026-05-02T13:19:13Z</time></trkpt><trkpt lat="45.850233513529254" lon="11.352592356755544"><ele>862.0</ele><time>2026-05-02T13:19:14Z</time></trkpt><trkpt lat="45.85033559281409" lon="11.352595988094203"><ele>862.0</ele><time>2026-05-02T13:19:15Z</time></trkpt><trkpt lat="45.8504409878902" lon="11.352613323661263"><ele>862.0</ele><time>2026-05-02T13:19:16Z</time></trkpt><trkpt lat="45.85054082382124" lon="11.352635593034064"><ele>862.0</ele><time>2026-05-02T13:19:17Z</time></trkpt><trkpt lat="45.85064542358555" lon="11.352650189746187"><ele>862.0</ele><time>2026-05-02T13:19:18Z</time></trkpt><trkpt lat="45.85074584274226" lon="11.352668978325047"><ele>862.0</ele><time>2026-05-02T13:19:19Z</time></trkpt><trkpt lat="45.85085631790075" lon="11.352685199672763"><ele>862.0</ele><time>2026-05-02T13:19:20Z</time></trkpt><trkpt lat="45.85096997894015" lon="11.352681569306608"><ele>862.0</ele><time>2026-05-02T13:19:21Z</time></trkpt><trkpt lat="45.851088934940265" lon="11.352715405515282"><ele>862.0</ele><time>2026-05-02T13:19:22Z</time></trkpt><trkpt lat="45.8511993195385" lon="11.35272649112621"><ele>861.25</ele><time>2026-05-02T13:19:23Z</time></trkpt><trkpt lat="45.85130317823242" lon="11.352736921390239"><ele>860.5</ele><time>2026-05-02T13:19:24Z</time></trkpt><trkpt lat="45.8514214438524" lon="11.352748871106737"><ele>859.75</ele><time>2026-05-02T13:19:25Z</time></trkpt><trkpt lat="45.85158137905304" lon="11.352748886699672"><ele>859.0</ele><time>2026-05-02T13:19:26Z</time></trkpt><trkpt lat="45.85177794406418" lon="11.352706941330867"><ele>856.0</ele><time>2026-05-02T13:19:27Z</time></trkpt><trkpt lat="45.85197406391618" lon="11.352654285185455"><ele>853.0</ele><time>2026-05-02T13:19:28Z</time></trkpt><trkpt lat="45.852178952447" lon="11.352604014088516"><ele>850.0</ele><time>2026-05-02T13:19:29Z</time></trkpt><trkpt lat="45.85241441939293" lon="11.352533048455264"><ele>846.3333333333333</ele><time>2026-05-02T13:19:30Z</time></trkpt><trkpt lat="45.852676586503364" lon="11.352524410664738"><ele>842.6666666666667</ele><time>2026-05-02T13:19:31Z</time></trkpt><trkpt lat="45.852856951496484" lon="11.352549783921052"><ele>839.0</ele><time>2026-05-02T13:19:33Z</time></trkpt><trkpt lat="45.85301863082376" lon="11.352545716835245"><ele>839.0</ele><time>2026-05-02T13:19:34Z</time></trkpt><trkpt lat="45.85316990593673" lon="11.35257284717769"><ele>839.0</ele><time>2026-05-02T13:19:35Z</time></trkpt><trkpt lat="45.8533103536496" lon="11.352537623314937"><ele>839.0</ele><time>2026-05-02T13:19:36Z</time></trkpt><trkpt lat="45.85345516605907" lon="11.352457352783945"><ele>835.3333333333334</ele><time>2026-05-02T13:19:37Z</time></trkpt><trkpt lat="45.85359274478998" lon="11.35236327621018"><ele>831.6666666666667</ele><time>2026-05-02T13:19:38Z</time></trkpt><trkpt lat="45.853736811327494" lon="11.352273583779132"><ele>828.0</ele><time>2026-05-02T13:19:39Z</time></trkpt><trkpt lat="45.85387567402308" lon="11.35220221676706"><ele>834.0</ele><time>2026-05-02T13:19:40Z</time></trkpt><trkpt lat="45.85401228277336" lon="11.35214033193811"><ele>840.0</ele><time>2026-05-02T13:19:40.999Z</time></trkpt><trkpt lat="45.85414206173888" lon="11.35207596688398"><ele>846.0</ele><time>2026-05-02T13:19:41.999Z</time></trkpt><trkpt lat="45.85427965923596" lon="11.352080667753116"><ele>852.0</ele><time>2026-05-02T13:19:42.999Z</time></trkpt><trkpt lat="45.85441811164603" lon="11.352111277616084"><ele>852.0</ele><time>2026-05-02T13:19:43.999Z</time></trkpt><trkpt lat="45.854580939128894" lon="11.352147036755575"><ele>852.0</ele><time>2026-05-02T13:19:44.999Z</time></trkpt><trkpt lat="45.85474972920094" lon="11.352171425607994"><ele>852.0</ele><time>2026-05-02T13:19:45.999Z</time></trkpt><trkpt lat="45.85491948982334" lon="11.352205428393125"><ele>843.6666666666667</ele><time>2026-05-02T13:19:46.999Z</time></trkpt><trkpt lat="45.85507887592935" lon="11.35227532197745"><ele>835.3333333333334</ele><time>2026-05-02T13:19:47.999Z</time></trkpt><trkpt lat="45.85523191556801" lon="11.352296739973097"><ele>827.0</ele><time>2026-05-02T13:19:48.999Z</time></trkpt><trkpt lat="45.855383948452065" lon="11.352321460915643"><ele>827.0</ele><time>2026-05-02T13:19:49.999Z</time></trkpt><trkpt lat="45.855527322948525" lon="11.352359225042685"><ele>827.0</ele><time>2026-05-02T13:19:50.999Z</time></trkpt><trkpt lat="45.855664160558895" lon="11.352409830893738"><ele>827.0</ele><time>2026-05-02T13:19:51.999Z</time></trkpt><trkpt lat="45.85579999463085" lon="11.352430158026879"><ele>827.0</ele><time>2026-05-02T13:19:52.999Z</time></trkpt><trkpt lat="45.855922583764105" lon="11.352478317728618"><ele>827.8333333333334</ele><time>2026-05-02T13:19:53.999Z</time></trkpt><trkpt lat="45.856034712806434" lon="11.352510747354913"><ele>828.6666666666667</ele><time>2026-05-02T13:19:54.999Z</time></trkpt><trkpt lat="45.856122456259754" lon="11.352528631615675"><ele>829.5</ele><time>2026-05-02T13:19:55.999Z</time></trkpt><trkpt lat="45.85618604172497" lon="11.352566650072982"><ele>830.3333333333333</ele><time>2026-05-02T13:19:56.999Z</time></trkpt><trkpt lat="45.856234027728384" lon="11.352632277911534"><ele>831.1666666666666</ele><time>2026-05-02T13:19:58.999Z</time></trkpt><trkpt lat="45.8562196868206" lon="11.35276727595606"><ele>832.0</ele><time>2026-05-02T13:19:59.999Z</time></trkpt><trkpt lat="45.85616665825835" lon="11.35286157045225"><ele>832.0</ele><time>2026-05-02T13:20:00.999Z</time></trkpt><trkpt lat="45.85609221635098" lon="11.352728082844243"><ele>832.0</ele><time>2026-05-02T13:20:01.999Z</time></trkpt><trkpt lat="45.855971115243726" lon="11.352717074868153"><ele>832.0</ele><time>2026-05-02T13:20:02.999Z</time></trkpt><trkpt lat="45.85583666992621" lon="11.352707437193349"><ele>832.0</ele><time>2026-05-02T13:20:03.999Z</time></trkpt><trkpt lat="45.85568525151997" lon="11.352697884422017"><ele>830.3333333333333</ele><time>2026-05-02T13:20:04.999Z</time></trkpt><trkpt lat="45.85553200292262" lon="11.352715160863719"><ele>828.6666666666667</ele><time>2026-05-02T13:20:05.999Z</time></trkpt><trkpt lat="45.855377171388554" lon="11.352713317579203"><ele>827.0</ele><time>2026-05-02T13:20:06.999Z</time></trkpt><trkpt lat="45.855223994391864" lon="11.352792303705737"><ele>826.3333333333334</ele><time>2026-05-02T13:20:07.999Z</time></trkpt><trkpt lat="45.8550819634661" lon="11.35288272223371"><ele>825.6666666666667</ele><time>2026-05-02T13:20:08.999Z</time></trkpt><trkpt lat="45.85494828625174" lon="11.353007994819418"><ele>825.0</ele><time>2026-05-02T13:20:09.999Z</time></trkpt><trkpt lat="45.8548124504288" lon="11.353123756138821"><ele>816.3333333333333</ele><time>2026-05-02T13:20:10.999Z</time></trkpt><trkpt lat="45.85467610275577" lon="11.353239808770002"><ele>807.6666666666666</ele><time>2026-05-02T13:20:11.999Z</time></trkpt><trkpt lat="45.85453810982558" lon="11.353354614978418"><ele>799.0</ele><time>2026-05-02T13:20:12.999Z</time></trkpt><trkpt lat="45.85440946609727" lon="11.35346013616877"><ele>800.75</ele><time>2026-05-02T13:20:13.999Z</time></trkpt><trkpt lat="45.85428659695951" lon="11.353569397545895"><ele>802.5</ele><time>2026-05-02T13:20:14.999Z</time></trkpt><trkpt lat="45.854181802688366" lon="11.353710770835534"><ele>804.25</ele><time>2026-05-02T13:20:15.999Z</time></trkpt><trkpt lat="45.85410434577703" lon="11.353881982520495"><ele>806.0</ele><time>2026-05-02T13:20:16.999Z</time></trkpt><trkpt lat="45.854045892375424" lon="11.354079264831737"><ele>801.75</ele><time>2026-05-02T13:20:17.999Z</time></trkpt><trkpt lat="45.85399122418426" lon="11.354264885400209"><ele>797.5</ele><time>2026-05-02T13:20:18.999Z</time></trkpt><trkpt lat="45.85391062974453" lon="11.35441656543822"><ele>793.25</ele><time>2026-05-02T13:20:19.999Z</time></trkpt><trkpt lat="45.85380125311062" lon="11.354547976132814"><ele>789.0</ele><time>2026-05-02T13:20:20.999Z</time></trkpt><trkpt lat="45.85367798197827" lon="11.35466620003346"><ele>787.25</ele><time>2026-05-02T13:20:21.999Z</time></trkpt><trkpt lat="45.85355618258228" lon="11.354794254036868"><ele>785.5</ele><time>2026-05-02T13:20:22.999Z</time></trkpt><trkpt lat="45.853435218585844" lon="11.354919434075743"><ele>783.75</ele><time>2026-05-02T13:20:23.999Z</time></trkpt><trkpt lat="45.85332257826343" lon="11.355029647333723"><ele>782.0</ele><time>2026-05-02T13:20:24.999Z</time></trkpt><trkpt lat="45.85320219979359" lon="11.355135267830619"><ele>782.0</ele><time>2026-05-02T13:20:25.999Z</time></trkpt><trkpt lat="45.85305714428316" lon="11.355220968529753"><ele>782.0</ele><time>2026-05-02T13:20:26.999Z</time></trkpt><trkpt lat="45.852896011970174" lon="11.355289196689908"><ele>782.0</ele><time>2026-05-02T13:20:27.998Z</time></trkpt><trkpt lat="45.852730454091784" lon="11.355356520713203"><ele>781.0</ele><time>2026-05-02T13:20:28.998Z</time></trkpt><trkpt lat="45.852562732506634" lon="11.355424322888311"><ele>780.0</ele><time>2026-05-02T13:20:29.998Z</time></trkpt><trkpt lat="45.85238854150708" lon="11.355494704780655"><ele>779.0</ele><time>2026-05-02T13:20:30.998Z</time></trkpt><trkpt lat="45.85222212101466" lon="11.355579195349858"><ele>776.3333333333334</ele><time>2026-05-02T13:20:31.998Z</time></trkpt><trkpt lat="45.85204731870628" lon="11.355628293974817"><ele>773.6666666666667</ele><time>2026-05-02T13:20:32.998Z</time></trkpt><trkpt lat="45.85186982163239" lon="11.355668316775692"><ele>771.0</ele><time>2026-05-02T13:20:33.998Z</time></trkpt><trkpt lat="45.85169470922299" lon="11.355703450575687"><ele>770.3333333333333</ele><time>2026-05-02T13:20:34.998Z</time></trkpt><trkpt lat="45.8515182148966" lon="11.355755264721225"><ele>769.6666666666666</ele><time>2026-05-02T13:20:35.998Z</time></trkpt><trkpt lat="45.851343202549515" lon="11.355837956611664"><ele>769.0</ele><time>2026-05-02T13:20:36.998Z</time></trkpt><trkpt lat="45.85116839028275" lon="11.355936259695895"><ele>769.0</ele><time>2026-05-02T13:20:37.998Z</time></trkpt><trkpt lat="45.85098799608495" lon="11.356029514161103"><ele>769.0</ele><time>2026-05-02T13:20:38.998Z</time></trkpt><trkpt lat="45.85079337620114" lon="11.356075311083371"><ele>769.0</ele><time>2026-05-02T13:20:39.998Z</time></trkpt><trkpt lat="45.85060076570337" lon="11.356153903800767"><ele>771.3333333333333</ele><time>2026-05-02T13:20:40.998Z</time></trkpt><trkpt lat="45.85041610708858" lon="11.356206675012627"><ele>773.6666666666667</ele><time>2026-05-02T13:20:41.998Z</time></trkpt><trkpt lat="45.85023298512022" lon="11.3562650389581"><ele>776.0</ele><time>2026-05-02T13:20:42.998Z</time></trkpt><trkpt lat="45.85005634849428" lon="11.356319539732816"><ele>765.6666666666667</ele><time>2026-05-02T13:20:43.998Z</time></trkpt><trkpt lat="45.84988287252386" lon="11.356386891006643"><ele>755.3333333333334</ele><time>2026-05-02T13:20:44.998Z</time></trkpt><trkpt lat="45.84971244590112" lon="11.356491040289743"><ele>745.0</ele><time>2026-05-02T13:20:45.998Z</time></trkpt><trkpt lat="45.849554032485635" lon="11.356638911522595"><ele>745.0</ele><time>2026-05-02T13:20:46.998Z</time></trkpt><trkpt lat="45.84940328641251" lon="11.356812426063506"><ele>745.0</ele><time>2026-05-02T13:20:47.998Z</time></trkpt><trkpt lat="45.84927528871384" lon="11.357002402684671"><ele>745.0</ele><time>2026-05-02T13:20:48.998Z</time></trkpt><trkpt lat="45.84914448477104" lon="11.357177429828022"><ele>745.0</ele><time>2026-05-02T13:20:49.998Z</time></trkpt><trkpt lat="45.849026155264376" lon="11.357350705793147"><ele>745.0</ele><time>2026-05-02T13:20:50.998Z</time></trkpt><trkpt lat="45.84893137457793" lon="11.357501669735644"><ele>745.0</ele><time>2026-05-02T13:20:51.998Z</time></trkpt><trkpt lat="45.8488367674747" lon="11.35761347022813"><ele>745.0</ele><time>2026-05-02T13:20:52.998Z</time></trkpt><trkpt lat="45.84873712711015" lon="11.357723217578988"><ele>745.0</ele><time>2026-05-02T13:20:53.998Z</time></trkpt><trkpt lat="45.8486283521746" lon="11.35780412841091"><ele>745.0</ele><time>2026-05-02T13:20:54.998Z</time></trkpt><trkpt lat="45.848505669466036" lon="11.357849552472981"><ele>745.0</ele><time>2026-05-02T13:20:55.998Z</time></trkpt><trkpt lat="45.84837582193127" lon="11.35786248149924"><ele>745.0</ele><time>2026-05-02T13:20:56.998Z</time></trkpt><trkpt lat="45.848232578464035" lon="11.357879435161935"><ele>737.0</ele><time>2026-05-02T13:20:57.998Z</time></trkpt><trkpt lat="45.84808414730779" lon="11.35790011989701"><ele>729.0</ele><time>2026-05-02T13:20:58.998Z</time></trkpt><trkpt lat="45.84793756925343" lon="11.357974544440944"><ele>721.0</ele><time>2026-05-02T13:20:59.998Z</time></trkpt><trkpt lat="45.84781201731119" lon="11.358085979214723"><ele>721.0</ele><time>2026-05-02T13:21:00.998Z</time></trkpt><trkpt lat="45.84771055498981" lon="11.358258100188255"><ele>721.0</ele><time>2026-05-02T13:21:01.998Z</time></trkpt><trkpt lat="45.84762608992332" lon="11.3584346306211"><ele>721.0</ele><time>2026-05-02T13:21:02.998Z</time></trkpt><trkpt lat="45.84753904887069" lon="11.358603347776674"><ele>723.25</ele><time>2026-05-02T13:21:03.998Z</time></trkpt><trkpt lat="45.847462847466964" lon="11.358766537920316"><ele>725.5</ele><time>2026-05-02T13:21:04.998Z</time></trkpt><trkpt lat="45.847391351334295" lon="11.358913313632385"><ele>727.75</ele><time>2026-05-02T13:21:05.998Z</time></trkpt><trkpt lat="45.84731779500838" lon="11.359046559053203"><ele>730.0</ele><time>2026-05-02T13:21:06.998Z</time></trkpt><trkpt lat="45.84723067070466" lon="11.359156782565957"><ele>730.0</ele><time>2026-05-02T13:21:07.998Z</time></trkpt><trkpt lat="45.84712409229763" lon="11.359222246221481"><ele>730.0</ele><time>2026-05-02T13:21:08.998Z</time></trkpt><trkpt lat="45.84700268721222" lon="11.359256166024236"><ele>730.0</ele><time>2026-05-02T13:21:09.998Z</time></trkpt><trkpt lat="45.84689058415337" lon="11.35921269713738"><ele>730.0</ele><time>2026-05-02T13:21:10.998Z</time></trkpt><trkpt lat="45.846774947806544" lon="11.359152641306089"><ele>738.0</ele><time>2026-05-02T13:21:11.997Z</time></trkpt><trkpt lat="45.84665157824712" lon="11.359083276076733"><ele>746.0</ele><time>2026-05-02T13:21:12.997Z</time></trkpt><trkpt lat="45.846533932086196" lon="11.359056191711412"><ele>754.0</ele><time>2026-05-02T13:21:13.997Z</time></trkpt><trkpt lat="45.84642007546226" lon="11.359050347242386"><ele>762.0</ele><time>2026-05-02T13:21:14.997Z</time></trkpt><trkpt lat="45.846309684872345" lon="11.359118683337597"><ele>762.0</ele><time>2026-05-02T13:21:15.997Z</time></trkpt><trkpt lat="45.84621529691654" lon="11.359221970605107"><ele>762.0</ele><time>2026-05-02T13:21:16.997Z</time></trkpt><trkpt lat="45.84614860702243" lon="11.35937859622797"><ele>762.0</ele><time>2026-05-02T13:21:17.997Z</time></trkpt><trkpt lat="45.84608778997694" lon="11.359544379172617"><ele>762.0</ele><time>2026-05-02T13:21:19Z</time></trkpt><trkpt lat="45.84605192675623" lon="11.359693205315368"><ele>759.0</ele><time>2026-05-02T13:21:20Z</time></trkpt><trkpt lat="45.84597175815893" lon="11.359905318189996"><ele>756.0</ele><time>2026-05-02T13:21:21Z</time></trkpt><trkpt lat="45.845893469950965" lon="11.360084912309228"><ele>753.0</ele><time>2026-05-02T13:21:22Z</time></trkpt><trkpt lat="45.845833912835886" lon="11.360247168919315"><ele>750.0</ele><time>2026-05-02T13:21:23Z</time></trkpt><trkpt lat="45.845775899691205" lon="11.360404392556543"><ele>739.25</ele><time>2026-05-02T13:21:24Z</time></trkpt><trkpt lat="45.84571868113231" lon="11.360566722491107"><ele>728.5</ele><time>2026-05-02T13:21:25.021Z</time></trkpt><trkpt lat="45.84564454661083" lon="11.360701063629785"><ele>717.75</ele><time>2026-05-02T13:21:26.015Z</time></trkpt><trkpt lat="45.84555860208924" lon="11.360771283701716"><ele>707.0</ele><time>2026-05-02T13:21:27Z</time></trkpt><trkpt lat="45.84540678977877" lon="11.360732819697533"><ele>707.0</ele><time>2026-05-02T13:21:29Z</time></trkpt><trkpt lat="45.84529028046889" lon="11.360658478100099"><ele>707.0</ele><time>2026-05-02T13:21:30Z</time></trkpt><trkpt lat="45.84516574797287" lon="11.360569875872967"><ele>707.0</ele><time>2026-05-02T13:21:31Z</time></trkpt><trkpt lat="45.845016596868774" lon="11.3604789427687"><ele>707.0</ele><time>2026-05-02T13:21:32Z</time></trkpt><trkpt lat="45.844859299802145" lon="11.360391172356891"><ele>741.6666666666666</ele><time>2026-05-02T13:21:33Z</time></trkpt><trkpt lat="45.84469110876286" lon="11.360307266585279"><ele>776.3333333333333</ele><time>2026-05-02T13:21:34Z</time></trkpt><trkpt lat="45.8445412380567" lon="11.360209196528887"><ele>811.0</ele><time>2026-05-02T13:21:35Z</time></trkpt><trkpt lat="45.844389944280486" lon="11.360102737789221"><ele>801.3333333333333</ele><time>2026-05-02T13:21:36Z</time></trkpt><trkpt lat="45.84423953325907" lon="11.360001425463597"><ele>791.6666666666667</ele><time>2026-05-02T13:21:37.014Z</time></trkpt><trkpt lat="45.84407784534932" lon="11.35992502616932"><ele>782.0</ele><time>2026-05-02T13:21:38.02Z</time></trkpt><trkpt lat="45.84392872977413" lon="11.359872671204698"><ele>782.0</ele><time>2026-05-02T13:21:39Z</time></trkpt><trkpt lat="45.84386041603132" lon="11.359873738797718"><ele>782.0</ele><time>2026-05-02T13:21:40Z</time></trkpt><trkpt lat="45.843705915218976" lon="11.359917393520382"><ele>782.0</ele><time>2026-05-02T13:21:41Z</time></trkpt><trkpt lat="45.84355754946541" lon="11.359995285748063"><ele>782.0</ele><time>2026-05-02T13:21:42Z</time></trkpt><trkpt lat="45.843411626247466" lon="11.360080695276677"><ele>771.3333333333334</ele><time>2026-05-02T13:21:43Z</time></trkpt><trkpt lat="45.84327317466977" lon="11.36019617898186"><ele>760.6666666666667</ele><time>2026-05-02T13:21:44Z</time></trkpt><trkpt lat="45.84315168253832" lon="11.36033906393596"><ele>750.0</ele><time>2026-05-02T13:21:45Z</time></trkpt><trkpt lat="45.843048482485806" lon="11.360515928661835"><ele>732.75</ele><time>2026-05-02T13:21:46Z</time></trkpt><trkpt lat="45.842933523358056" lon="11.360670545383185"><ele>715.5</ele><time>2026-05-02T13:21:47Z</time></trkpt><trkpt lat="45.84283741454951" lon="11.360807242249258"><ele>698.25</ele><time>2026-05-02T13:21:48Z</time></trkpt><trkpt lat="45.84274889518295" lon="11.360923715231033"><ele>681.0</ele><time>2026-05-02T13:21:49Z</time></trkpt><trkpt lat="45.84266772554167" lon="11.361012936103908"><ele>686.0</ele><time>2026-05-02T13:21:50Z</time></trkpt><trkpt lat="45.842590972753364" lon="11.361086863418127"><ele>691.0</ele><time>2026-05-02T13:21:50.999Z</time></trkpt><trkpt lat="45.84250602482784" lon="11.361132765202164"><ele>696.0</ele><time>2026-05-02T13:21:51.999Z</time></trkpt><trkpt lat="45.842373510754314" lon="11.361115988668576"><ele>701.0</ele><time>2026-05-02T13:21:52.999Z</time></trkpt><trkpt lat="45.842259690035014" lon="11.361064194449972"><ele>706.0</ele><time>2026-05-02T13:21:53.999Z</time></trkpt><trkpt lat="45.842136632737166" lon="11.36097921260808"><ele>706.0</ele><time>2026-05-02T13:21:54.999Z</time></trkpt><trkpt lat="45.84201209460212" lon="11.360903129456315"><ele>706.0</ele><time>2026-05-02T13:21:55.999Z</time></trkpt><trkpt lat="45.84188247728676" lon="11.360831319009517"><ele>706.0</ele><time>2026-05-02T13:21:56.999Z</time></trkpt><trkpt lat="45.84176251017591" lon="11.360758102863612"><ele>706.0</ele><time>2026-05-02T13:21:57.999Z</time></trkpt><trkpt lat="45.84164142311124" lon="11.360709836976486"><ele>705.0</ele><time>2026-05-02T13:21:58.999Z</time></trkpt><trkpt lat="45.84150398480151" lon="11.360701264329226"><ele>704.0</ele><time>2026-05-02T13:21:59.999Z</time></trkpt><trkpt lat="45.84135422155662" lon="11.360728921831285"><ele>703.0</ele><time>2026-05-02T13:22:00.999Z</time></trkpt><trkpt lat="45.841229488658755" lon="11.360773244067502"><ele>702.0</ele><time>2026-05-02T13:22:01.999Z</time></trkpt><trkpt lat="45.84110641534199" lon="11.360800651650171"><ele>702.0</ele><time>2026-05-02T13:22:02.999Z</time></trkpt><trkpt lat="45.84098073948218" lon="11.360824897767378"><ele>702.0</ele><time>2026-05-02T13:22:04.017Z</time></trkpt><trkpt lat="45.84085537303184" lon="11.360846722450916"><ele>702.0</ele><time>2026-05-02T13:22:05.018Z</time></trkpt><trkpt lat="45.84071720001216" lon="11.36089887977807"><ele>702.0</ele><time>2026-05-02T13:22:05.999Z</time></trkpt><trkpt lat="45.84062888938209" lon="11.361022207954491"><ele>693.0</ele><time>2026-05-02T13:22:06.999Z</time></trkpt><trkpt lat="45.84050438750553" lon="11.361160742310606"><ele>684.0</ele><time>2026-05-02T13:22:07.999Z</time></trkpt><trkpt lat="45.84037308770547" lon="11.361303949441425"><ele>675.0</ele><time>2026-05-02T13:22:08.999Z</time></trkpt><trkpt lat="45.84024143152481" lon="11.361446876879663"><ele>705.0</ele><time>2026-05-02T13:22:10.015Z</time></trkpt><trkpt lat="45.840114576895715" lon="11.36158074542455"><ele>735.0</ele><time>2026-05-02T13:22:11.018Z</time></trkpt><trkpt lat="45.839986496490305" lon="11.3617159075992"><ele>765.0</ele><time>2026-05-02T13:22:12.019Z</time></trkpt><trkpt lat="45.83985307486247" lon="11.361856706241023"><ele>727.0</ele><time>2026-05-02T13:22:13.023Z</time></trkpt><trkpt lat="45.83948117219455" lon="11.362247345979663"><ele>727.0</ele><time>2026-05-02T13:22:14.999Z</time></trkpt><trkpt lat="45.83934407368752" lon="11.362404332729882"><ele>727.0</ele><time>2026-05-02T13:22:15.999Z</time></trkpt><trkpt lat="45.83917813739946" lon="11.362548163852285"><ele>727.0</ele><time>2026-05-02T13:22:16.999Z</time></trkpt><trkpt lat="45.839053047745615" lon="11.362689978865548"><ele>720.25</ele><time>2026-05-02T13:22:17.999Z</time></trkpt><trkpt lat="45.83893455571615" lon="11.362791751766725"><ele>713.5</ele><time>2026-05-02T13:22:18.999Z</time></trkpt><trkpt lat="45.83883221829771" lon="11.362903690966002"><ele>706.75</ele><time>2026-05-02T13:22:19.999Z</time></trkpt><trkpt lat="45.838763253465345" lon="11.363012908768916"><ele>700.0</ele><time>2026-05-02T13:22:20.999Z</time></trkpt><trkpt lat="45.83868067419523" lon="11.363103512237664"><ele>700.4</ele><time>2026-05-02T13:22:21.999Z</time></trkpt><trkpt lat="45.838600688056054" lon="11.363155376783627"><ele>700.8</ele><time>2026-05-02T13:22:22.999Z</time></trkpt><trkpt lat="45.83850529530781" lon="11.363145174828587"><ele>701.2</ele><time>2026-05-02T13:22:23.999Z</time></trkpt><trkpt lat="45.838406245807256" lon="11.36310273205412"><ele>701.6</ele><time>2026-05-02T13:22:24.999Z</time></trkpt><trkpt lat="45.83828487743937" lon="11.363049161442753"><ele>702.0</ele><time>2026-05-02T13:22:25.999Z</time></trkpt><trkpt lat="45.838144342019326" lon="11.36299707917639"><ele>702.0</ele><time>2026-05-02T13:22:26.999Z</time></trkpt><trkpt lat="45.83801280437592" lon="11.362923718693954"><ele>702.0</ele><time>2026-05-02T13:22:27.999Z</time></trkpt><trkpt lat="45.83789053068078" lon="11.36286457146331"><ele>702.0</ele><time>2026-05-02T13:22:28.999Z</time></trkpt><trkpt lat="45.83777921320991" lon="11.36281710414345"><ele>702.0</ele><time>2026-05-02T13:22:29.999Z</time></trkpt><trkpt lat="45.83767031940327" lon="11.362840463036724"><ele>702.25</ele><time>2026-05-02T13:22:30.999Z</time></trkpt><trkpt lat="45.83756839081151" lon="11.362914475883251"><ele>702.5</ele><time>2026-05-02T13:22:31.999Z</time></trkpt><trkpt lat="45.83747877794164" lon="11.36305355239704"><ele>702.75</ele><time>2026-05-02T13:22:32.999Z</time></trkpt><trkpt lat="45.83740697061984" lon="11.363216541914985"><ele>703.0</ele><time>2026-05-02T13:22:33.999Z</time></trkpt><trkpt lat="45.83736274837655" lon="11.363383845037998"><ele>695.0</ele><time>2026-05-02T13:22:34.999Z</time></trkpt><trkpt lat="45.83728781811297" lon="11.363498149787493"><ele>687.0</ele><time>2026-05-02T13:22:35.999Z</time></trkpt><trkpt lat="45.83723056138225" lon="11.363602707877744"><ele>679.0</ele><time>2026-05-02T13:22:36.998Z</time></trkpt><trkpt lat="45.83716947652836" lon="11.363691451484081"><ele>671.0</ele><time>2026-05-02T13:22:37.998Z</time></trkpt><trkpt lat="45.83708136557599" lon="11.363718637718788"><ele>663.0</ele><time>2026-05-02T13:22:38.998Z</time></trkpt><trkpt lat="45.836992100079165" lon="11.363691167269382"><ele>663.0</ele><time>2026-05-02T13:22:39.998Z</time></trkpt><trkpt lat="45.83689392449627" lon="11.36360733137496"><ele>663.0</ele><time>2026-05-02T13:22:40.998Z</time></trkpt><trkpt lat="45.83678200726829" lon="11.363503662528222"><ele>663.0</ele><time>2026-05-02T13:22:41.998Z</time></trkpt><trkpt lat="45.836672815270106" lon="11.363425985514692"><ele>663.0</ele><time>2026-05-02T13:22:42.998Z</time></trkpt><trkpt lat="45.83657786790891" lon="11.363350590490256"><ele>662.25</ele><time>2026-05-02T13:22:43.998Z</time></trkpt><trkpt lat="45.83647773067114" lon="11.363274974152537"><ele>661.5</ele><time>2026-05-02T13:22:44.998Z</time></trkpt><trkpt lat="45.836383647733044" lon="11.363189318673742"><ele>660.75</ele><time>2026-05-02T13:22:45.998Z</time></trkpt><trkpt lat="45.836292908709176" lon="11.363106387777549"><ele>660.0</ele><time>2026-05-02T13:22:46.998Z</time></trkpt><trkpt lat="45.83623505917112" lon="11.36295723495488"><ele>663.8</ele><time>2026-05-02T13:22:47.998Z</time></trkpt><trkpt lat="45.83619277785707" lon="11.362815651251301"><ele>667.6</ele><time>2026-05-02T13:22:48.998Z</time></trkpt><trkpt lat="45.836131549344344" lon="11.362705639575566"><ele>671.4000000000001</ele><time>2026-05-02T13:22:49.998Z</time></trkpt><trkpt lat="45.83603693408567" lon="11.362636952578645"><ele>675.2</ele><time>2026-05-02T13:22:50.998Z</time></trkpt><trkpt lat="45.83593030469653" lon="11.362607899750518"><ele>679.0</ele><time>2026-05-02T13:22:51.998Z</time></trkpt><trkpt lat="45.83581849051859" lon="11.362635331919815"><ele>679.0</ele><time>2026-05-02T13:22:52.998Z</time></trkpt><trkpt lat="45.83572424925047" lon="11.36272406206127"><ele>679.0</ele><time>2026-05-02T13:22:53.998Z</time></trkpt><trkpt lat="45.83564609805253" lon="11.362827424391241"><ele>679.0</ele><time>2026-05-02T13:22:54.998Z</time></trkpt><trkpt lat="45.835570418421966" lon="11.362932614762459"><ele>679.0</ele><time>2026-05-02T13:22:55.998Z</time></trkpt><trkpt lat="45.83547489239235" lon="11.363028379608691"><ele>679.0</ele><time>2026-05-02T13:22:56.998Z</time></trkpt><trkpt lat="45.83536931453647" lon="11.363088720627387"><ele>674.75</ele><time>2026-05-02T13:22:57.998Z</time></trkpt><trkpt lat="45.83524521304874" lon="11.363124771282006"><ele>670.5</ele><time>2026-05-02T13:22:58.998Z</time></trkpt><trkpt lat="45.83512062637458" lon="11.363142767426018"><ele>666.25</ele><time>2026-05-02T13:22:59.998Z</time></trkpt><trkpt lat="45.83498733777597" lon="11.36316867313061"><ele>662.0</ele><time>2026-05-02T13:23:00.998Z</time></trkpt><trkpt lat="45.8348465517547" lon="11.363196819432664"><ele>662.0</ele><time>2026-05-02T13:23:02.016Z</time></trkpt><trkpt lat="45.834706758798674" lon="11.363222040539885"><ele>662.0</ele><time>2026-05-02T13:23:03.028Z</time></trkpt><trkpt lat="45.83457747366809" lon="11.36324901815992"><ele>662.0</ele><time>2026-05-02T13:23:04.019Z</time></trkpt><trkpt lat="45.83444691479603" lon="11.363278265258401"><ele>662.0</ele><time>2026-05-02T13:23:05.019Z</time></trkpt><trkpt lat="45.834124004511004" lon="11.363416789110156"><ele>659.6</ele><time>2026-05-02T13:23:07.998Z</time></trkpt><trkpt lat="45.83403864655756" lon="11.363359727696366"><ele>657.2</ele><time>2026-05-02T13:23:08.998Z</time></trkpt><trkpt lat="45.83394181912669" lon="11.363335925034319"><ele>654.8</ele><time>2026-05-02T13:23:09.998Z</time></trkpt><trkpt lat="45.83384255101968" lon="11.363272728823246"><ele>652.4</ele><time>2026-05-02T13:23:10.998Z</time></trkpt><trkpt lat="45.83374361379445" lon="11.363159733033708"><ele>650.0</ele><time>2026-05-02T13:23:11.998Z</time></trkpt><trkpt lat="45.83362738426398" lon="11.36303863242679"><ele>653.6666666666666</ele><time>2026-05-02T13:23:12.998Z</time></trkpt><trkpt lat="45.833504890515684" lon="11.362918414099335"><ele>657.3333333333334</ele><time>2026-05-02T13:23:13.998Z</time></trkpt><trkpt lat="45.83337795786195" lon="11.362792925729043"><ele>661.0</ele><time>2026-05-02T13:23:14.998Z</time></trkpt><trkpt lat="45.833254430691916" lon="11.362676305369696"><ele>661.0</ele><time>2026-05-02T13:23:15.998Z</time></trkpt><trkpt lat="45.83313814769567" lon="11.36256361392642"><ele>661.0</ele><time>2026-05-02T13:23:16.998Z</time></trkpt><trkpt lat="45.83303202906805" lon="11.362464263940051"><ele>661.0</ele><time>2026-05-02T13:23:17.998Z</time></trkpt><trkpt lat="45.83294006657664" lon="11.362368372479883"><ele>661.0</ele><time>2026-05-02T13:23:18.998Z</time></trkpt><trkpt lat="45.83284921957718" lon="11.362318766807258"><ele>661.0</ele><time>2026-05-02T13:23:19.998Z</time></trkpt><trkpt lat="45.83273548697064" lon="11.362368561775597"><ele>661.0</ele><time>2026-05-02T13:23:20.998Z</time></trkpt><trkpt lat="45.83263128847864" lon="11.36244093453237"><ele>661.0</ele><time>2026-05-02T13:23:21.997Z</time></trkpt><trkpt lat="45.832527732633835" lon="11.362575457419538"><ele>661.0</ele><time>2026-05-02T13:23:22.997Z</time></trkpt><trkpt lat="45.83241667837554" lon="11.362725488290163"><ele>650.0</ele><time>2026-05-02T13:23:23.997Z</time></trkpt><trkpt lat="45.832295954239164" lon="11.362851427721658"><ele>639.0</ele><time>2026-05-02T13:23:25Z</time></trkpt><trkpt lat="45.83216824741782" lon="11.362987633941081"><ele>628.0</ele><time>2026-05-02T13:23:26Z</time></trkpt><trkpt lat="45.83203577160364" lon="11.363113648052298"><ele>622.75</ele><time>2026-05-02T13:23:27Z</time></trkpt><trkpt lat="45.83190814086874" lon="11.363193719517612"><ele>617.5</ele><time>2026-05-02T13:23:28Z</time></trkpt><trkpt lat="45.83177243007778" lon="11.363270713350282"><ele>612.25</ele><time>2026-05-02T13:23:29Z</time></trkpt><trkpt lat="45.83163216343087" lon="11.363350524763275"><ele>607.0</ele><time>2026-05-02T13:23:30Z</time></trkpt><trkpt lat="45.83151325676558" lon="11.363417730113326"><ele>607.0</ele><time>2026-05-02T13:23:31Z</time></trkpt><trkpt lat="45.83138155777457" lon="11.363486165980545"><ele>607.0</ele><time>2026-05-02T13:23:32Z</time></trkpt><trkpt lat="45.831262759465" lon="11.363588670581718"><ele>607.0</ele><time>2026-05-02T13:23:33Z</time></trkpt><trkpt lat="45.831150720519354" lon="11.363722295025402"><ele>607.0</ele><time>2026-05-02T13:23:34Z</time></trkpt><trkpt lat="45.83104671369513" lon="11.363902751641337"><ele>604.0</ele><time>2026-05-02T13:23:35Z</time></trkpt><trkpt lat="45.830940046310566" lon="11.364073472386371"><ele>601.0</ele><time>2026-05-02T13:23:36Z</time></trkpt><trkpt lat="45.830826573249425" lon="11.364235420724427"><ele>598.0</ele><time>2026-05-02T13:23:37Z</time></trkpt><trkpt lat="45.83070684487189" lon="11.364348587819633"><ele>598.0</ele><time>2026-05-02T13:23:38Z</time></trkpt><trkpt lat="45.83057909925558" lon="11.364433311787598"><ele>598.0</ele><time>2026-05-02T13:23:39Z</time></trkpt><trkpt lat="45.8304597878433" lon="11.364507806240601"><ele>598.0</ele><time>2026-05-02T13:23:40Z</time></trkpt><trkpt lat="45.83033773397346" lon="11.364540274278026"><ele>598.0</ele><time>2026-05-02T13:23:41Z</time></trkpt><trkpt lat="45.83020948944241" lon="11.364519937685433"><ele>598.0</ele><time>2026-05-02T13:23:42Z</time></trkpt><trkpt lat="45.83008267034494" lon="11.364442100436408"><ele>598.0</ele><time>2026-05-02T13:23:43Z</time></trkpt><trkpt lat="45.82994762020672" lon="11.364355201361677"><ele>598.0</ele><time>2026-05-02T13:23:44Z</time></trkpt><trkpt lat="45.829810721045654" lon="11.364278883040708"><ele>598.0</ele><time>2026-05-02T13:23:45Z</time></trkpt><trkpt lat="45.82966623427051" lon="11.364197945413835"><ele>598.0</ele><time>2026-05-02T13:23:46Z</time></trkpt><trkpt lat="45.82953560137962" lon="11.364081300079704"><ele>598.0</ele><time>2026-05-02T13:23:47Z</time></trkpt><trkpt lat="45.829404352757685" lon="11.363933071042105"><ele>598.0</ele><time>2026-05-02T13:23:48Z</time></trkpt><trkpt lat="45.82927504486174" lon="11.363781583211466"><ele>598.5</ele><time>2026-05-02T13:23:49Z</time></trkpt><trkpt lat="45.82915903450063" lon="11.3636371144312"><ele>599.0</ele><time>2026-05-02T13:23:50Z</time></trkpt><trkpt lat="45.82905425946403" lon="11.363507381469852"><ele>599.5</ele><time>2026-05-02T13:23:51Z</time></trkpt><trkpt lat="45.82895547086467" lon="11.36337869049959"><ele>600.0</ele><time>2026-05-02T13:23:52Z</time></trkpt><trkpt lat="45.82890995789137" lon="11.363286500178841"><ele>600.0</ele><time>2026-05-02T13:23:53Z</time></trkpt><trkpt lat="45.82874589265445" lon="11.363294061974539"><ele>600.0</ele><time>2026-05-02T13:23:54Z</time></trkpt><trkpt lat="45.828557892573954" lon="11.363342813940951"><ele>600.0</ele><time>2026-05-02T13:23:55Z</time></trkpt><trkpt lat="45.828338836816215" lon="11.363368504791458"><ele>597.25</ele><time>2026-05-02T13:23:56Z</time></trkpt><trkpt lat="45.82824504199586" lon="11.363435625075645"><ele>594.5</ele><time>2026-05-02T13:23:57Z</time></trkpt><trkpt lat="45.82811067077132" lon="11.36353381765176"><ele>591.75</ele><time>2026-05-02T13:23:58Z</time></trkpt><trkpt lat="45.82798695194114" lon="11.363614739820884"><ele>589.0</ele><time>2026-05-02T13:23:59Z</time></trkpt><trkpt lat="45.827870114254566" lon="11.363676295772303"><ele>589.0</ele><time>2026-05-02T13:24:00Z</time></trkpt><trkpt lat="45.82775061544604" lon="11.363710503655039"><ele>589.0</ele><time>2026-05-02T13:24:01Z</time></trkpt><trkpt lat="45.8276264184566" lon="11.363696669806664"><ele>589.0</ele><time>2026-05-02T13:24:02Z</time></trkpt><trkpt lat="45.82751021447334" lon="11.363635031433462"><ele>589.0</ele><time>2026-05-02T13:24:03Z</time></trkpt><trkpt lat="45.82739423686584" lon="11.36353699040808"><ele>586.25</ele><time>2026-05-02T13:24:03.999Z</time></trkpt><trkpt lat="45.827269226640986" lon="11.363433608296772"><ele>583.5</ele><time>2026-05-02T13:24:04.999Z</time></trkpt><trkpt lat="45.82714234719087" lon="11.36333214198743"><ele>580.75</ele><time>2026-05-02T13:24:05.999Z</time></trkpt><trkpt lat="45.82702200016876" lon="11.363237528714206"><ele>578.0</ele><time>2026-05-02T13:24:06.999Z</time></trkpt><trkpt lat="45.82692566897814" lon="11.363100462363164"><ele>578.5</ele><time>2026-05-02T13:24:07.999Z</time></trkpt><trkpt lat="45.826848527797026" lon="11.362944990720042"><ele>579.0</ele><time>2026-05-02T13:24:08.999Z</time></trkpt><trkpt lat="45.82677426078039" lon="11.362793542691113"><ele>579.5</ele><time>2026-05-02T13:24:09.999Z</time></trkpt><trkpt lat="45.82668218816191" lon="11.36267765030175"><ele>580.0</ele><time>2026-05-02T13:24:10.999Z</time></trkpt><trkpt lat="45.82655378378533" lon="11.362607003702424"><ele>580.0</ele><time>2026-05-02T13:24:11.999Z</time></trkpt><trkpt lat="45.826424321946966" lon="11.36259078330308"><ele>580.0</ele><time>2026-05-02T13:24:12.999Z</time></trkpt><trkpt lat="45.82629298600464" lon="11.36263771889561"><ele>580.0</ele><time>2026-05-02T13:24:13.999Z</time></trkpt><trkpt lat="45.82617892372372" lon="11.362740597172214"><ele>580.0</ele><time>2026-05-02T13:24:14.999Z</time></trkpt><trkpt lat="45.826091441212135" lon="11.362887320741608"><ele>572.75</ele><time>2026-05-02T13:24:15.999Z</time></trkpt><trkpt lat="45.826038835709205" lon="11.363063865883129"><ele>565.5</ele><time>2026-05-02T13:24:16.999Z</time></trkpt><trkpt lat="45.825997351483245" lon="11.363241739604783"><ele>558.25</ele><time>2026-05-02T13:24:17.999Z</time></trkpt><trkpt lat="45.825946603469326" lon="11.363403527144563"><ele>551.0</ele><time>2026-05-02T13:24:18.999Z</time></trkpt><trkpt lat="45.8258706182702" lon="11.3635359277771"><ele>551.0</ele><time>2026-05-02T13:24:19.999Z</time></trkpt><trkpt lat="45.8257682178853" lon="11.363603082222507"><ele>551.0</ele><time>2026-05-02T13:24:20.999Z</time></trkpt><trkpt lat="45.82564352358667" lon="11.36363208538112"><ele>551.0</ele><time>2026-05-02T13:24:21.999Z</time></trkpt><trkpt lat="45.825499018938466" lon="11.363629569519397"><ele>551.0</ele><time>2026-05-02T13:24:22.999Z</time></trkpt><trkpt lat="45.82534296797678" lon="11.363638115914169"><ele>551.0</ele><time>2026-05-02T13:24:23.999Z</time></trkpt><trkpt lat="45.825171261136504" lon="11.363612237900782"><ele>551.0</ele><time>2026-05-02T13:24:24.999Z</time></trkpt><trkpt lat="45.82500447531899" lon="11.363634365275445"><ele>551.0</ele><time>2026-05-02T13:24:25.999Z</time></trkpt><trkpt lat="45.82484615366378" lon="11.363655941181284"><ele>552.75</ele><time>2026-05-02T13:24:26.999Z</time></trkpt><trkpt lat="45.82470125311335" lon="11.363675688080004"><ele>554.5</ele><time>2026-05-02T13:24:27.999Z</time></trkpt><trkpt lat="45.82456602474705" lon="11.363716061688548"><ele>556.25</ele><time>2026-05-02T13:24:28.999Z</time></trkpt><trkpt lat="45.824437927436975" lon="11.363733329810398"><ele>558.0</ele><time>2026-05-02T13:24:29.999Z</time></trkpt><trkpt lat="45.82432289072328" lon="11.363722494498923"><ele>555.6</ele><time>2026-05-02T13:24:30.999Z</time></trkpt><trkpt lat="45.82422627119327" lon="11.363711673937246"><ele>553.1999999999999</ele><time>2026-05-02T13:24:31.999Z</time></trkpt><trkpt lat="45.82414039748196" lon="11.363656530344981"><ele>550.8</ele><time>2026-05-02T13:24:32.999Z</time></trkpt><trkpt lat="45.824108213022306" lon="11.363526473284665"><ele>548.4</ele><time>2026-05-02T13:24:33.999Z</time></trkpt><trkpt lat="45.824037691788845" lon="11.363411609118264"><ele>546.0</ele><time>2026-05-02T13:24:34.999Z</time></trkpt><trkpt lat="45.823975271618366" lon="11.363306007655538"><ele>546.0</ele><time>2026-05-02T13:24:35.999Z</time></trkpt><trkpt lat="45.823906460784954" lon="11.36318467595144"><ele>546.0</ele><time>2026-05-02T13:24:36.999Z</time></trkpt><trkpt lat="45.8238436873465" lon="11.363069828258915"><ele>546.0</ele><time>2026-05-02T13:24:37.999Z</time></trkpt><trkpt lat="45.82376875994324" lon="11.362835678345503"><ele>546.0</ele><time>2026-05-02T13:24:38.999Z</time></trkpt><trkpt lat="45.82373194994539" lon="11.362610477507488"><ele>551.75</ele><time>2026-05-02T13:24:39.999Z</time></trkpt><trkpt lat="45.82370122995863" lon="11.36241944481897"><ele>557.5</ele><time>2026-05-02T13:24:40.999Z</time></trkpt><trkpt lat="45.823652518453876" lon="11.362245344497204"><ele>563.25</ele><time>2026-05-02T13:24:41.999Z</time></trkpt><trkpt lat="45.823569551567154" lon="11.36215403756719"><ele>569.0</ele><time>2026-05-02T13:24:42.999Z</time></trkpt><trkpt lat="45.82345888602087" lon="11.362117067977138"><ele>575.25</ele><time>2026-05-02T13:24:43.999Z</time></trkpt><trkpt lat="45.823338739555616" lon="11.362107325226448"><ele>581.5</ele><time>2026-05-02T13:24:44.999Z</time></trkpt><trkpt lat="45.82321575608571" lon="11.362093677283259"><ele>587.75</ele><time>2026-05-02T13:24:45.999Z</time></trkpt><trkpt lat="45.82309977662701" lon="11.362017967575904"><ele>594.0</ele><time>2026-05-02T13:24:46.999Z</time></trkpt><trkpt lat="45.822980956481764" lon="11.362011185634374"><ele>594.0</ele><time>2026-05-02T13:24:47.998Z</time></trkpt><trkpt lat="45.822861125630766" lon="11.36205343383001"><ele>594.0</ele><time>2026-05-02T13:24:48.998Z</time></trkpt><trkpt lat="45.822746643328166" lon="11.362129791356754"><ele>594.0</ele><time>2026-05-02T13:24:49.998Z</time></trkpt><trkpt lat="45.822626535910025" lon="11.362137834198911"><ele>594.0</ele><time>2026-05-02T13:24:50.998Z</time></trkpt><trkpt lat="45.822499057370145" lon="11.362097960866507"><ele>587.75</ele><time>2026-05-02T13:24:51.998Z</time></trkpt><trkpt lat="45.82236967625313" lon="11.362051615428758"><ele>581.5</ele><time>2026-05-02T13:24:52.998Z</time></trkpt><trkpt lat="45.82224490644055" lon="11.362008312505742"><ele>575.25</ele><time>2026-05-02T13:24:53.998Z</time></trkpt><trkpt lat="45.82210635306016" lon="11.361977394430264"><ele>569.0</ele><time>2026-05-02T13:24:54.998Z</time></trkpt><trkpt lat="45.82189055510673" lon="11.362085552936419"><ele>568.5</ele><time>2026-05-02T13:24:56.998Z</time></trkpt><trkpt lat="45.82178221362956" lon="11.362160728710284"><ele>568.0</ele><time>2026-05-02T13:24:57.998Z</time></trkpt><trkpt lat="45.821674678068966" lon="11.36222836168182"><ele>567.5</ele><time>2026-05-02T13:24:58.998Z</time></trkpt><trkpt lat="45.82156129670859" lon="11.362270765069102"><ele>567.0</ele><time>2026-05-02T13:24:59.998Z</time></trkpt><trkpt lat="45.82144506441674" lon="11.362263777821404"><ele>567.0</ele><time>2026-05-02T13:25:00.998Z</time></trkpt><trkpt lat="45.82131435380448" lon="11.362240753792609"><ele>567.0</ele><time>2026-05-02T13:25:01.998Z</time></trkpt><trkpt lat="45.82116973533837" lon="11.362193691332207"><ele>567.0</ele><time>2026-05-02T13:25:02.998Z</time></trkpt><trkpt lat="45.82101387527242" lon="11.362147205764584"><ele>567.0</ele><time>2026-05-02T13:25:03.998Z</time></trkpt><trkpt lat="45.820870203615705" lon="11.36210167272809"><ele>567.0</ele><time>2026-05-02T13:25:04.998Z</time></trkpt><trkpt lat="45.820731422582604" lon="11.362044334516016"><ele>567.0</ele><time>2026-05-02T13:25:05.998Z</time></trkpt><trkpt lat="45.82058937558904" lon="11.361983279585786"><ele>567.0</ele><time>2026-05-02T13:25:06.998Z</time></trkpt><trkpt lat="45.82044169996367" lon="11.361919805291066"><ele>567.0</ele><time>2026-05-02T13:25:07.998Z</time></trkpt><trkpt lat="45.82029288007743" lon="11.36185583924011"><ele>561.6666666666666</ele><time>2026-05-02T13:25:09.02Z</time></trkpt><trkpt lat="45.820148449286556" lon="11.361793550431369"><ele>556.3333333333333</ele><time>2026-05-02T13:25:10.016Z</time></trkpt><trkpt lat="45.81999789507437" lon="11.361750725630154"><ele>551.0</ele><time>2026-05-02T13:25:11.015Z</time></trkpt><trkpt lat="45.81985257538989" lon="11.361686971614072"><ele>551.0</ele><time>2026-05-02T13:25:12.02Z</time></trkpt><trkpt lat="45.81957831123421" lon="11.361555986687152"><ele>551.0</ele><time>2026-05-02T13:25:13.998Z</time></trkpt><trkpt lat="45.819441181629315" lon="11.361584177014677"><ele>551.0</ele><time>2026-05-02T13:25:14.998Z</time></trkpt><trkpt lat="45.81932664554502" lon="11.361600041492403"><ele>540.5</ele><time>2026-05-02T13:25:15.998Z</time></trkpt><trkpt lat="45.81918835729708" lon="11.36160633435196"><ele>530.0</ele><time>2026-05-02T13:25:16.998Z</time></trkpt><trkpt lat="45.81903864615042" lon="11.36160745884392"><ele>519.5</ele><time>2026-05-02T13:25:17.998Z</time></trkpt><trkpt lat="45.81889057841677" lon="11.361561586429838"><ele>509.0</ele><time>2026-05-02T13:25:18.998Z</time></trkpt><trkpt lat="45.81874088342832" lon="11.361547587474737"><ele>509.0</ele><time>2026-05-02T13:25:19.998Z</time></trkpt><trkpt lat="45.818598292900624" lon="11.361520382561537"><ele>509.0</ele><time>2026-05-02T13:25:20.998Z</time></trkpt><trkpt lat="45.818457177627934" lon="11.361493818223263"><ele>509.0</ele><time>2026-05-02T13:25:21.998Z</time></trkpt><trkpt lat="45.81832570970551" lon="11.361435897138865"><ele>509.0</ele><time>2026-05-02T13:25:22.998Z</time></trkpt><trkpt lat="45.818192706166265" lon="11.361405396174051"><ele>516.4</ele><time>2026-05-02T13:25:23.998Z</time></trkpt><trkpt lat="45.818079669959864" lon="11.361356423445228"><ele>523.8</ele><time>2026-05-02T13:25:24.998Z</time></trkpt><trkpt lat="45.81799010885331" lon="11.36128427781688"><ele>531.2</ele><time>2026-05-02T13:25:25.998Z</time></trkpt><trkpt lat="45.81790422831922" lon="11.361250737325822"><ele>538.6</ele><time>2026-05-02T13:25:26.998Z</time></trkpt><trkpt lat="45.81785683991114" lon="11.361137432894296"><ele>546.0</ele><time>2026-05-02T13:25:27.998Z</time></trkpt><trkpt lat="45.81781703841234" lon="11.36100573982679"><ele>546.0</ele><time>2026-05-02T13:25:28.998Z</time></trkpt><trkpt lat="45.817763810288234" lon="11.36087523259388"><ele>546.0</ele><time>2026-05-02T13:25:29.998Z</time></trkpt><trkpt lat="45.8177280629577" lon="11.360743602655624"><ele>546.0</ele><time>2026-05-02T13:25:31Z</time></trkpt><trkpt lat="45.81765756323615" lon="11.360640523669376"><ele>546.0</ele><time>2026-05-02T13:25:32Z</time></trkpt><trkpt lat="45.81755524781195" lon="11.360564561627795"><ele>546.0</ele><time>2026-05-02T13:25:33Z</time></trkpt><trkpt lat="45.8174401450076" lon="11.36051991934985"><ele>545.0</ele><time>2026-05-02T13:25:34Z</time></trkpt><trkpt lat="45.8173218644618" lon="11.360494921401191"><ele>544.0</ele><time>2026-05-02T13:25:35Z</time></trkpt><trkpt lat="45.81720603243435" lon="11.360462618231091"><ele>543.0</ele><time>2026-05-02T13:25:36Z</time></trkpt><trkpt lat="45.817088207414514" lon="11.360422612295482"><ele>542.0</ele><time>2026-05-02T13:25:37Z</time></trkpt><trkpt lat="45.81697234794252" lon="11.360381246626808"><ele>542.0</ele><time>2026-05-02T13:25:38Z</time></trkpt><trkpt lat="45.81686014496329" lon="11.360330175938515"><ele>542.0</ele><time>2026-05-02T13:25:39Z</time></trkpt><trkpt lat="45.81675439389074" lon="11.360253513092708"><ele>542.0</ele><time>2026-05-02T13:25:40Z</time></trkpt><trkpt lat="45.81665891159921" lon="11.360131912123212"><ele>542.0</ele><time>2026-05-02T13:25:41Z</time></trkpt><trkpt lat="45.81659044631459" lon="11.35996231983361"><ele>532.0</ele><time>2026-05-02T13:25:42Z</time></trkpt><trkpt lat="45.81649713660723" lon="11.359812731342586"><ele>522.0</ele><time>2026-05-02T13:25:43Z</time></trkpt><trkpt lat="45.816427615241466" lon="11.359659418947011"><ele>512.0</ele><time>2026-05-02T13:25:44Z</time></trkpt><trkpt lat="45.816360755460316" lon="11.359530943115532"><ele>502.0</ele><time>2026-05-02T13:25:45Z</time></trkpt><trkpt lat="45.816312485959706" lon="11.359408943291477"><ele>502.0</ele><time>2026-05-02T13:25:46Z</time></trkpt><trkpt lat="45.81629415140588" lon="11.359266363306661"><ele>502.00000000000006</ele><time>2026-05-02T13:25:47Z</time></trkpt><trkpt lat="45.81631941338984" lon="11.359127599376345"><ele>502.00000000000006</ele><time>2026-05-02T13:25:48Z</time></trkpt><trkpt lat="45.81639063122079" lon="11.359019706921707"><ele>502.0</ele><time>2026-05-02T13:25:49Z</time></trkpt><trkpt lat="45.81648061812015" lon="11.358930656052953"><ele>502.0</ele><time>2026-05-02T13:25:50Z</time></trkpt><trkpt lat="45.81658967722228" lon="11.358807167353026"><ele>508.20000000000005</ele><time>2026-05-02T13:25:51Z</time></trkpt><trkpt lat="45.81668059032555" lon="11.358686717464852"><ele>514.4000000000001</ele><time>2026-05-02T13:25:52Z</time></trkpt><trkpt lat="45.81677186508641" lon="11.358589053109755"><ele>520.5999999999999</ele><time>2026-05-02T13:25:53Z</time></trkpt><trkpt lat="45.81685311461319" lon="11.358504655576331"><ele>526.8</ele><time>2026-05-02T13:25:54Z</time></trkpt><trkpt lat="45.81690553172744" lon="11.358385617643778"><ele>533.0</ele><time>2026-05-02T13:25:55Z</time></trkpt><trkpt lat="45.81692682907792" lon="11.358249268259868"><ele>540.4</ele><time>2026-05-02T13:25:56Z</time></trkpt><trkpt lat="45.816896739407774" lon="11.358101160795567"><ele>547.8</ele><time>2026-05-02T13:25:57Z</time></trkpt><trkpt lat="45.81683235763363" lon="11.357977127276335"><ele>555.2</ele><time>2026-05-02T13:25:58Z</time></trkpt><trkpt lat="45.816739864391494" lon="11.357896952172144"><ele>562.6</ele><time>2026-05-02T13:25:59Z</time></trkpt><trkpt lat="45.816624260327345" lon="11.357876552738038"><ele>570.0</ele><time>2026-05-02T13:26:00Z</time></trkpt><trkpt lat="45.816503362343596" lon="11.357899819134712"><ele>557.6666666666666</ele><time>2026-05-02T13:26:01Z</time></trkpt><trkpt lat="45.8163687989755" lon="11.35796436906229"><ele>545.3333333333333</ele><time>2026-05-02T13:26:02Z</time></trkpt><trkpt lat="45.816210855683735" lon="11.357998090056714"><ele>533.0</ele><time>2026-05-02T13:26:03Z</time></trkpt><trkpt lat="45.81605692991673" lon="11.358042374170816"><ele>504.66666666666663</ele><time>2026-05-02T13:26:04Z</time></trkpt><trkpt lat="45.81588420095895" lon="11.358086594998406"><ele>476.33333333333337</ele><time>2026-05-02T13:26:05Z</time></trkpt><trkpt lat="45.81572706221244" lon="11.358127650022213"><ele>448.0</ele><time>2026-05-02T13:26:06Z</time></trkpt><trkpt lat="45.81557325842957" lon="11.358193764623158"><ele>448.0</ele><time>2026-05-02T13:26:07Z</time></trkpt><trkpt lat="45.815426798571394" lon="11.358264659121563"><ele>448.0</ele><time>2026-05-02T13:26:08Z</time></trkpt><trkpt lat="45.81528309907553" lon="11.358337071591237"><ele>448.0</ele><time>2026-05-02T13:26:09Z</time></trkpt><trkpt lat="45.81515148512221" lon="11.35839978959419"><ele>448.0</ele><time>2026-05-02T13:26:10Z</time></trkpt><trkpt lat="45.81502875234094" lon="11.358457541078913"><ele>446.25</ele><time>2026-05-02T13:26:10.999Z</time></trkpt><trkpt lat="45.81491279441239" lon="11.358518727586643"><ele>444.5</ele><time>2026-05-02T13:26:11.999Z</time></trkpt><trkpt lat="45.81480020453804" lon="11.358554811458534"><ele>442.75</ele><time>2026-05-02T13:26:12.999Z</time></trkpt><trkpt lat="45.814689533533794" lon="11.358531277113704"><ele>441.0</ele><time>2026-05-02T13:26:13.999Z</time></trkpt><trkpt lat="45.81456986203588" lon="11.358507311811817"><ele>441.0</ele><time>2026-05-02T13:26:14.999Z</time></trkpt><trkpt lat="45.814448020583114" lon="11.358447138949533"><ele>441.0</ele><time>2026-05-02T13:26:15.999Z</time></trkpt><trkpt lat="45.81432527764955" lon="11.358405125768517"><ele>441.0</ele><time>2026-05-02T13:26:16.999Z</time></trkpt><trkpt lat="45.81419487021788" lon="11.358356521858543"><ele>441.0</ele><time>2026-05-02T13:26:17.999Z</time></trkpt><trkpt lat="45.81406436829714" lon="11.3583035052081"><ele>439.25</ele><time>2026-05-02T13:26:18.999Z</time></trkpt><trkpt lat="45.813939658470076" lon="11.358255525378627"><ele>437.5</ele><time>2026-05-02T13:26:19.999Z</time></trkpt><trkpt lat="45.81380872530393" lon="11.358251574757679"><ele>435.75</ele><time>2026-05-02T13:26:20.999Z</time></trkpt><trkpt lat="45.81366754566783" lon="11.35829396540233"><ele>434.0</ele><time>2026-05-02T13:26:21.999Z</time></trkpt><trkpt lat="45.81352497761216" lon="11.358366498801276"><ele>435.5</ele><time>2026-05-02T13:26:22.999Z</time></trkpt><trkpt lat="45.81338847492422" lon="11.35842992625213"><ele>437.0</ele><time>2026-05-02T13:26:23.999Z</time></trkpt><trkpt lat="45.81325343628144" lon="11.358499536630974"><ele>438.5</ele><time>2026-05-02T13:26:24.999Z</time></trkpt><trkpt lat="45.81311579038126" lon="11.358554783174752"><ele>440.0</ele><time>2026-05-02T13:26:25.999Z</time></trkpt><trkpt lat="45.8129651312792" lon="11.358616007354408"><ele>440.0</ele><time>2026-05-02T13:26:26.999Z</time></trkpt><trkpt lat="45.81281225089329" lon="11.358665018479044"><ele>440.0</ele><time>2026-05-02T13:26:27.999Z</time></trkpt><trkpt lat="45.81266530117035" lon="11.358683491203047"><ele>440.0</ele><time>2026-05-02T13:26:28.999Z</time></trkpt><trkpt lat="45.81251994601716" lon="11.35868070518449"><ele>440.75</ele><time>2026-05-02T13:26:29.999Z</time></trkpt><trkpt lat="45.81237683100843" lon="11.3586554908758"><ele>441.5</ele><time>2026-05-02T13:26:30.999Z</time></trkpt><trkpt lat="45.812236756451135" lon="11.358612013140862"><ele>442.25</ele><time>2026-05-02T13:26:31.999Z</time></trkpt><trkpt lat="45.81210381013521" lon="11.358567851273376"><ele>443.0</ele><time>2026-05-02T13:26:32.999Z</time></trkpt><trkpt lat="45.811976367763904" lon="11.358518610569556"><ele>443.0</ele><time>2026-05-02T13:26:33.999Z</time></trkpt><trkpt lat="45.81186132690514" lon="11.358444662288461"><ele>443.0</ele><time>2026-05-02T13:26:34.999Z</time></trkpt><trkpt lat="45.81175366669537" lon="11.358362810397066"><ele>443.0</ele><time>2026-05-02T13:26:35.999Z</time></trkpt><trkpt lat="45.811640689971235" lon="11.358313501071004"><ele>443.0</ele><time>2026-05-02T13:26:36.999Z</time></trkpt><trkpt lat="45.81152059000252" lon="11.358311465789834"><ele>435.75</ele><time>2026-05-02T13:26:37.999Z</time></trkpt><trkpt lat="45.81139659822314" lon="11.35834694273298"><ele>428.5</ele><time>2026-05-02T13:26:38.999Z</time></trkpt><trkpt lat="45.811267431490975" lon="11.358376456581272"><ele>421.25</ele><time>2026-05-02T13:26:39.999Z</time></trkpt><trkpt lat="45.811135896545025" lon="11.35834478237748"><ele>414.0</ele><time>2026-05-02T13:26:40.999Z</time></trkpt><trkpt lat="45.81099971947742" lon="11.358288036184726"><ele>408.25</ele><time>2026-05-02T13:26:41.999Z</time></trkpt><trkpt lat="45.810857953279616" lon="11.35823164594376"><ele>402.5</ele><time>2026-05-02T13:26:42.999Z</time></trkpt><trkpt lat="45.81071713142085" lon="11.35818570592396"><ele>396.75</ele><time>2026-05-02T13:26:43.999Z</time></trkpt><trkpt lat="45.810583139361746" lon="11.358143576944958"><ele>391.0</ele><time>2026-05-02T13:26:44.999Z</time></trkpt><trkpt lat="45.810452014508805" lon="11.35809429277467"><ele>391.0</ele><time>2026-05-02T13:26:45.999Z</time></trkpt><trkpt lat="45.81032436569531" lon="11.358043215552971"><ele>391.0</ele><time>2026-05-02T13:26:46.999Z</time></trkpt><trkpt lat="45.8101966169925" lon="11.357981917525313"><ele>391.0</ele><time>2026-05-02T13:26:47.999Z</time></trkpt><trkpt lat="45.81006807429981" lon="11.35792692655484"><ele>391.0</ele><time>2026-05-02T13:26:48.999Z</time></trkpt><trkpt lat="45.80993734920557" lon="11.357865833100087"><ele>396.75</ele><time>2026-05-02T13:26:49.999Z</time></trkpt><trkpt lat="45.80980468892601" lon="11.35777153678581"><ele>402.5</ele><time>2026-05-02T13:26:50.999Z</time></trkpt><trkpt lat="45.80968228658776" lon="11.357659478875373"><ele>408.25</ele><time>2026-05-02T13:26:51.999Z</time></trkpt><trkpt lat="45.80956610195955" lon="11.357540097036551"><ele>414.0</ele><time>2026-05-02T13:26:52.998Z</time></trkpt><trkpt lat="45.80944447284725" lon="11.357427364971077"><ele>417.5</ele><time>2026-05-02T13:26:53.998Z</time></trkpt><trkpt lat="45.80932426021353" lon="11.357329262690754"><ele>421.0</ele><time>2026-05-02T13:26:54.998Z</time></trkpt><trkpt lat="45.80920699109732" lon="11.357244836514647"><ele>424.5</ele><time>2026-05-02T13:26:55.998Z</time></trkpt><trkpt lat="45.8090901968323" lon="11.357174371744463"><ele>428.0</ele><time>2026-05-02T13:26:56.998Z</time></trkpt><trkpt lat="45.80897696948107" lon="11.357109886758918"><ele>428.0</ele><time>2026-05-02T13:26:57.998Z</time></trkpt><trkpt lat="45.80887500523698" lon="11.357040672199114"><ele>428.0</ele><time>2026-05-02T13:26:58.998Z</time></trkpt><trkpt lat="45.808774209810096" lon="11.356959244514762"><ele>428.0</ele><time>2026-05-02T13:26:59.998Z</time></trkpt><trkpt lat="45.80869169266452" lon="11.35682358193518"><ele>428.0</ele><time>2026-05-02T13:27:00.998Z</time></trkpt><trkpt lat="45.808605363469844" lon="11.356692804055744"><ele>428.0</ele><time>2026-05-02T13:27:01.998Z</time></trkpt><trkpt lat="45.808515080290384" lon="11.356553710896707"><ele>428.0</ele><time>2026-05-02T13:27:02.998Z</time></trkpt><trkpt lat="45.808411411053925" lon="11.35642795475394"><ele>428.0</ele><time>2026-05-02T13:27:03.998Z</time></trkpt><trkpt lat="45.80831507155239" lon="11.356288523242595"><ele>428.0</ele><time>2026-05-02T13:27:04.998Z</time></trkpt><trkpt lat="45.80821421732339" lon="11.356169637335112"><ele>423.5</ele><time>2026-05-02T13:27:05.998Z</time></trkpt><trkpt lat="45.808103572330204" lon="11.356059787882245"><ele>419.0</ele><time>2026-05-02T13:27:06.998Z</time></trkpt><trkpt lat="45.80799871010096" lon="11.355938724575259"><ele>414.5</ele><time>2026-05-02T13:27:07.998Z</time></trkpt><trkpt lat="45.80788523425804" lon="11.35583190754915"><ele>410.0</ele><time>2026-05-02T13:27:08.998Z</time></trkpt><trkpt lat="45.80777731775399" lon="11.355720570265836"><ele>410.0</ele><time>2026-05-02T13:27:09.998Z</time></trkpt><trkpt lat="45.80767506146386" lon="11.355614868574804"><ele>410.0</ele><time>2026-05-02T13:27:10.998Z</time></trkpt><trkpt lat="45.807586245383185" lon="11.355505853406344"><ele>410.0</ele><time>2026-05-02T13:27:11.998Z</time></trkpt><trkpt lat="45.8074995565166" lon="11.35538933547559"><ele>410.0</ele><time>2026-05-02T13:27:12.998Z</time></trkpt><trkpt lat="45.80741875082581" lon="11.355262585067875"><ele>406.25</ele><time>2026-05-02T13:27:13.998Z</time></trkpt><trkpt lat="45.80734931886365" lon="11.355124871107313"><ele>402.5</ele><time>2026-05-02T13:27:14.998Z</time></trkpt><trkpt lat="45.80727802718762" lon="11.354982193765704"><ele>398.75</ele><time>2026-05-02T13:27:15.998Z</time></trkpt><trkpt lat="45.80720909622417" lon="11.354841946529836"><ele>395.0</ele><time>2026-05-02T13:27:16.998Z</time></trkpt><trkpt lat="45.80713530998798" lon="11.35469371858571"><ele>395.0</ele><time>2026-05-02T13:27:17.998Z</time></trkpt><trkpt lat="45.807065345826544" lon="11.354542110226147"><ele>395.0</ele><time>2026-05-02T13:27:18.998Z</time></trkpt><trkpt lat="45.806993962204395" lon="11.354388502373746"><ele>395.0</ele><time>2026-05-02T13:27:19.998Z</time></trkpt><trkpt lat="45.80692099092054" lon="11.35423229470211"><ele>395.0</ele><time>2026-05-02T13:27:20.998Z</time></trkpt><trkpt lat="45.80684878135303" lon="11.35407788946063"><ele>387.5</ele><time>2026-05-02T13:27:21.998Z</time></trkpt><trkpt lat="45.806780365848354" lon="11.353926313305747"><ele>380.0</ele><time>2026-05-02T13:27:22.998Z</time></trkpt><trkpt lat="45.806709641823886" lon="11.353774819269038"><ele>372.5</ele><time>2026-05-02T13:27:23.998Z</time></trkpt><trkpt lat="45.806637282552586" lon="11.353624019317111"><ele>365.0</ele><time>2026-05-02T13:27:24.998Z</time></trkpt><trkpt lat="45.80656736051617" lon="11.353468271054819"><ele>365.0</ele><time>2026-05-02T13:27:25.998Z</time></trkpt><trkpt lat="45.80651060220391" lon="11.353304176224947"><ele>365.0</ele><time>2026-05-02T13:27:26.998Z</time></trkpt><trkpt lat="45.80644462713716" lon="11.3531572062551"><ele>365.0</ele><time>2026-05-02T13:27:27.998Z</time></trkpt><trkpt lat="45.806384915618644" lon="11.35302136608673"><ele>365.0</ele><time>2026-05-02T13:27:28.998Z</time></trkpt><trkpt lat="45.80632928339161" lon="11.352894986165202"><ele>366.5</ele><time>2026-05-02T13:27:29.998Z</time></trkpt><trkpt lat="45.806270547293565" lon="11.352761556230089"><ele>368.0</ele><time>2026-05-02T13:27:30.998Z</time></trkpt><trkpt lat="45.806210471733706" lon="11.352624244190233"><ele>369.5</ele><time>2026-05-02T13:27:31.998Z</time></trkpt><trkpt lat="45.80614674597603" lon="11.352480656962165"><ele>371.0</ele><time>2026-05-02T13:27:32.998Z</time></trkpt><trkpt lat="45.80599948497689" lon="11.352213279975238"><ele>366.5</ele><time>2026-05-02T13:27:33.998Z</time></trkpt><trkpt lat="45.80591261455813" lon="11.352072303042474"><ele>362.0</ele><time>2026-05-02T13:27:34.997Z</time></trkpt><trkpt lat="45.80581787802008" lon="11.351939682694029"><ele>357.5</ele><time>2026-05-02T13:27:35.997Z</time></trkpt><trkpt lat="45.80571265021765" lon="11.351825601152797"><ele>353.0</ele><time>2026-05-02T13:27:37Z</time></trkpt><trkpt lat="45.805596680717805" lon="11.351723773942343"><ele>353.0</ele><time>2026-05-02T13:27:38Z</time></trkpt><trkpt lat="45.80548136792884" lon="11.35164146090336"><ele>353.0</ele><time>2026-05-02T13:27:39Z</time></trkpt><trkpt lat="45.80536795424475" lon="11.35156263416005"><ele>353.0</ele><time>2026-05-02T13:27:40Z</time></trkpt><trkpt lat="45.80525893965408" lon="11.351482696490034"><ele>353.0</ele><time>2026-05-02T13:27:41Z</time></trkpt><trkpt lat="45.80514742303969" lon="11.351415513398562"><ele>352.79999999999995</ele><time>2026-05-02T13:27:42Z</time></trkpt><trkpt lat="45.80504843171458" lon="11.351349959529667"><ele>352.6</ele><time>2026-05-02T13:27:43Z</time></trkpt><trkpt lat="45.804953154960046" lon="11.351285230619649"><ele>352.4</ele><time>2026-05-02T13:27:44Z</time></trkpt><trkpt lat="45.80486414300442" lon="11.35119637209154"><ele>352.20000000000005</ele><time>2026-05-02T13:27:45Z</time></trkpt><trkpt lat="45.80478642877365" lon="11.351124895360776"><ele>352.0</ele><time>2026-05-02T13:27:46Z</time></trkpt><trkpt lat="45.80470650553448" lon="11.351057713540522"><ele>352.0</ele><time>2026-05-02T13:27:47Z</time></trkpt><trkpt lat="45.80463231865677" lon="11.3509974118659"><ele>352.0</ele><time>2026-05-02T13:27:48Z</time></trkpt><trkpt lat="45.80455903718861" lon="11.350927575213953"><ele>352.0</ele><time>2026-05-02T13:27:49Z</time></trkpt><trkpt lat="45.80448465471723" lon="11.350850496363128"><ele>352.0</ele><time>2026-05-02T13:27:50Z</time></trkpt><trkpt lat="45.804411400502445" lon="11.350769366460556"><ele>352.0</ele><time>2026-05-02T13:27:51Z</time></trkpt><trkpt lat="45.804334281792215" lon="11.350676401841143"><ele>351.40000000000003</ele><time>2026-05-02T13:27:52Z</time></trkpt><trkpt lat="45.804249147086274" lon="11.350586097994887"><ele>350.8</ele><time>2026-05-02T13:27:53Z</time></trkpt><trkpt lat="45.80415730349615" lon="11.350504934518517"><ele>350.2</ele><time>2026-05-02T13:27:54Z</time></trkpt><trkpt lat="45.804063128794915" lon="11.350448748410908"><ele>349.6</ele><time>2026-05-02T13:27:55Z</time></trkpt><trkpt lat="45.803979824504225" lon="11.350410615863813"><ele>349.0</ele><time>2026-05-02T13:27:56Z</time></trkpt><trkpt lat="45.8038545053202" lon="11.350352934844986"><ele>349.0</ele><time>2026-05-02T13:27:58Z</time></trkpt><trkpt lat="45.80379334534574" lon="11.350326861536074"><ele>349.0</ele><time>2026-05-02T13:27:59Z</time></trkpt><trkpt lat="45.803709455242924" lon="11.350271420239109"><ele>349.0</ele><time>2026-05-02T13:28:01Z</time></trkpt><trkpt lat="45.803640536045826" lon="11.35022123345059"><ele>349.0</ele><time>2026-05-02T13:28:04Z</time></trkpt><trkpt lat="45.80353859801598" lon="11.35037990160382"><ele>349.0</ele><time>2026-05-02T13:28:06Z</time></trkpt><trkpt lat="45.80350184637753" lon="11.350456051700956"><ele>349.0</ele><time>2026-05-02T13:28:07Z</time></trkpt><trkpt lat="45.8034369828034" lon="11.350612832627174"><ele>348.0</ele><time>2026-05-02T13:28:09Z</time></trkpt><trkpt lat="45.8033861903371" lon="11.350677040888186"><ele>347.0</ele><time>2026-05-02T13:28:10Z</time></trkpt><trkpt lat="45.80335684884217" lon="11.350778227384396"><ele>346.0</ele><time>2026-05-02T13:28:11Z</time></trkpt><trkpt lat="45.80330982024835" lon="11.350877333973239"><ele>345.0</ele><time>2026-05-02T13:28:11.999Z</time></trkpt><trkpt lat="45.803257291709734" lon="11.350972915485626"><ele>344.0</ele><time>2026-05-02T13:28:12.999Z</time></trkpt><trkpt lat="45.803209782152635" lon="11.351069872151474"><ele>343.0</ele><time>2026-05-02T13:28:13.999Z</time></trkpt><trkpt lat="45.80314716305203" lon="11.351147682970842"><ele>343.0</ele><time>2026-05-02T13:28:14.999Z</time></trkpt><trkpt lat="45.80311201145371" lon="11.351246074640608"><ele>343.0</ele><time>2026-05-02T13:28:15.999Z</time></trkpt><trkpt lat="45.80311292001575" lon="11.351368956349312"><ele>343.0</ele><time>2026-05-02T13:28:16.999Z</time></trkpt><trkpt lat="45.803122393951575" lon="11.351479066344039"><ele>343.0</ele><time>2026-05-02T13:28:17.999Z</time></trkpt><trkpt lat="45.80313362593757" lon="11.351599997454368"><ele>343.0</ele><time>2026-05-02T13:28:18.999Z</time></trkpt><trkpt lat="45.803145895446505" lon="11.351719444511458"><ele>343.0</ele><time>2026-05-02T13:28:19.999Z</time></trkpt><trkpt lat="45.803166274315345" lon="11.35184590199973"><ele>341.79999999999995</ele><time>2026-05-02T13:28:20.999Z</time></trkpt><trkpt lat="45.803177478565004" lon="11.351978908966398"><ele>340.6</ele><time>2026-05-02T13:28:21.999Z</time></trkpt><trkpt lat="45.80323222893918" lon="11.352111524315799"><ele>339.4</ele><time>2026-05-02T13:28:22.999Z</time></trkpt><trkpt lat="45.80328071152509" lon="11.352237164101275"><ele>338.20000000000005</ele><time>2026-05-02T13:28:23.999Z</time></trkpt><trkpt lat="45.80334412031884" lon="11.352359394775426"><ele>337.0</ele><time>2026-05-02T13:28:24.999Z</time></trkpt><trkpt lat="45.80340975525224" lon="11.352472142769047"><ele>336.0</ele><time>2026-05-02T13:28:25.999Z</time></trkpt><trkpt lat="45.80347511063609" lon="11.352573883097007"><ele>335.0</ele><time>2026-05-02T13:28:26.999Z</time></trkpt><trkpt lat="45.803540326441535" lon="11.352683995646471"><ele>334.0</ele><time>2026-05-02T13:28:27.999Z</time></trkpt><trkpt lat="45.80360057013657" lon="11.35279611054866"><ele>333.0</ele><time>2026-05-02T13:28:28.999Z</time></trkpt><trkpt lat="45.803656324326006" lon="11.352923799884941"><ele>332.0</ele><time>2026-05-02T13:28:29.999Z</time></trkpt><trkpt lat="45.80370047423562" lon="11.353058949361591"><ele>330.8</ele><time>2026-05-02T13:28:30.999Z</time></trkpt><trkpt lat="45.803729062778565" lon="11.353196676064936"><ele>329.6</ele><time>2026-05-02T13:28:31.999Z</time></trkpt><trkpt lat="45.8037431104146" lon="11.35333831378866"><ele>328.40000000000003</ele><time>2026-05-02T13:28:32.999Z</time></trkpt><trkpt lat="45.80374848609754" lon="11.3534893208017"><ele>327.20000000000005</ele><time>2026-05-02T13:28:33.999Z</time></trkpt><trkpt lat="45.803732299356014" lon="11.353641867621038"><ele>326.0</ele><time>2026-05-02T13:28:34.999Z</time></trkpt><trkpt lat="45.80370726412458" lon="11.353794395711752"><ele>323.25</ele><time>2026-05-02T13:28:35.999Z</time></trkpt><trkpt lat="45.80366290453181" lon="11.353945456336996"><ele>320.5</ele><time>2026-05-02T13:28:36.999Z</time></trkpt><trkpt lat="45.80359850452661" lon="11.35408543664636"><ele>317.75</ele><time>2026-05-02T13:28:37.999Z</time></trkpt><trkpt lat="45.803561453299906" lon="11.354233591040975"><ele>315.0</ele><time>2026-05-02T13:28:38.999Z</time></trkpt><trkpt lat="45.803511244067714" lon="11.354377652058545"><ele>315.0</ele><time>2026-05-02T13:28:39.999Z</time></trkpt><trkpt lat="45.80345678329376" lon="11.354519956602912"><ele>315.0</ele><time>2026-05-02T13:28:40.999Z</time></trkpt><trkpt lat="45.80341050746208" lon="11.354658034197202"><ele>315.0</ele><time>2026-05-02T13:28:41.999Z</time></trkpt><trkpt lat="45.80336321371771" lon="11.354788146241441"><ele>315.0</ele><time>2026-05-02T13:28:42.999Z</time></trkpt><trkpt lat="45.80331623327017" lon="11.354920313867677"><ele>315.0</ele><time>2026-05-02T13:28:43.999Z</time></trkpt><trkpt lat="45.80326921684534" lon="11.355052033565514"><ele>315.0</ele><time>2026-05-02T13:28:44.999Z</time></trkpt><trkpt lat="45.803228557258336" lon="11.355181713106967"><ele>315.0</ele><time>2026-05-02T13:28:45.999Z</time></trkpt><trkpt lat="45.803199208346236" lon="11.355312580649809"><ele>315.0</ele><time>2026-05-02T13:28:46.999Z</time></trkpt><trkpt lat="45.80318963995455" lon="11.35544532066236"><ele>315.0</ele><time>2026-05-02T13:28:47.999Z</time></trkpt><trkpt lat="45.80320821276378" lon="11.355571516680719"><ele>315.0</ele><time>2026-05-02T13:28:48.999Z</time></trkpt><trkpt lat="45.803245093613036" lon="11.3556841927091"><ele>315.1666666666667</ele><time>2026-05-02T13:28:49.999Z</time></trkpt><trkpt lat="45.803305943975964" lon="11.355784198842809"><ele>315.3333333333333</ele><time>2026-05-02T13:28:50.999Z</time></trkpt><trkpt lat="45.8033734358565" lon="11.355870067634923"><ele>315.5</ele><time>2026-05-02T13:28:51.999Z</time></trkpt><trkpt lat="45.80344730320126" lon="11.355942807648848"><ele>315.66666666666663</ele><time>2026-05-02T13:28:52.999Z</time></trkpt><trkpt lat="45.80351649056326" lon="11.356005040325487"><ele>315.8333333333333</ele><time>2026-05-02T13:28:53.999Z</time></trkpt><trkpt lat="45.80359238029272" lon="11.356077618931623"><ele>316.0</ele><time>2026-05-02T13:28:54.998Z</time></trkpt><trkpt lat="45.803673826685554" lon="11.356157405741664"><ele>315.6</ele><time>2026-05-02T13:28:55.998Z</time></trkpt><trkpt lat="45.803750890594976" lon="11.35622534874856"><ele>315.20000000000005</ele><time>2026-05-02T13:28:56.998Z</time></trkpt><trkpt lat="45.80383886142382" lon="11.35630161371417"><ele>314.79999999999995</ele><time>2026-05-02T13:28:57.998Z</time></trkpt><trkpt lat="45.803921595534334" lon="11.356383711504028"><ele>314.4</ele><time>2026-05-02T13:28:58.998Z</time></trkpt><trkpt lat="45.80400978164704" lon="11.356463927425994"><ele>314.0</ele><time>2026-05-02T13:28:59.998Z</time></trkpt><trkpt lat="45.804099779538205" lon="11.356549611970289"><ele>313.75</ele><time>2026-05-02T13:29:00.998Z</time></trkpt><trkpt lat="45.80419566583028" lon="11.356638666626115"><ele>313.5</ele><time>2026-05-02T13:29:01.998Z</time></trkpt><trkpt lat="45.80429233892009" lon="11.356726196122148"><ele>313.25</ele><time>2026-05-02T13:29:02.998Z</time></trkpt><trkpt lat="45.80438629420547" lon="11.35681518616251"><ele>313.0</ele><time>2026-05-02T13:29:03.998Z</time></trkpt><trkpt lat="45.804477641064686" lon="11.35690102319568"><ele>312.6</ele><time>2026-05-02T13:29:04.998Z</time></trkpt><trkpt lat="45.80456142364705" lon="11.356979832770218"><ele>312.20000000000005</ele><time>2026-05-02T13:29:05.998Z</time></trkpt><trkpt lat="45.80465020827497" lon="11.357058996355352"><ele>311.8</ele><time>2026-05-02T13:29:06.998Z</time></trkpt><trkpt lat="45.80474721838611" lon="11.357147539534735"><ele>311.40000000000003</ele><time>2026-05-02T13:29:07.998Z</time></trkpt><trkpt lat="45.80485081080121" lon="11.35724063896914"><ele>311.0</ele><time>2026-05-02T13:29:08.998Z</time></trkpt><trkpt lat="45.80494740034027" lon="11.357328977308443"><ele>310.6</ele><time>2026-05-02T13:29:09.998Z</time></trkpt><trkpt lat="45.8050373047362" lon="11.357406838951709"><ele>310.20000000000005</ele><time>2026-05-02T13:29:10.998Z</time></trkpt><trkpt lat="45.805122336043695" lon="11.357494500286858"><ele>309.79999999999995</ele><time>2026-05-02T13:29:11.998Z</time></trkpt><trkpt lat="45.80522548489997" lon="11.357582991373384"><ele>309.4</ele><time>2026-05-02T13:29:12.998Z</time></trkpt><trkpt lat="45.8053175879719" lon="11.357675020951651"><ele>309.0</ele><time>2026-05-02T13:29:13.998Z</time></trkpt><trkpt lat="45.80540694387614" lon="11.357762497542948"><ele>308.8</ele><time>2026-05-02T13:29:14.998Z</time></trkpt><trkpt lat="45.80550033302233" lon="11.357853218165868"><ele>308.59999999999997</ele><time>2026-05-02T13:29:15.998Z</time></trkpt><trkpt lat="45.80559278324893" lon="11.357946075287657"><ele>308.4</ele><time>2026-05-02T13:29:16.998Z</time></trkpt><trkpt lat="45.8056715867341" lon="11.35805536348401"><ele>308.2</ele><time>2026-05-02T13:29:17.998Z</time></trkpt><trkpt lat="45.80572760860954" lon="11.358178267702836"><ele>308.0</ele><time>2026-05-02T13:29:18.998Z</time></trkpt><trkpt lat="45.805770357273694" lon="11.358306236371831"><ele>308.33333333333337</ele><time>2026-05-02T13:29:19.998Z</time></trkpt><trkpt lat="45.80579481061076" lon="11.358445488135636"><ele>308.6666666666667</ele><time>2026-05-02T13:29:20.998Z</time></trkpt><trkpt lat="45.80580867268698" lon="11.35857840169867"><ele>309.0</ele><time>2026-05-02T13:29:21.998Z</time></trkpt><trkpt lat="45.805806923570465" lon="11.358703358170729"><ele>309.3333333333333</ele><time>2026-05-02T13:29:22.998Z</time></trkpt><trkpt lat="45.8057994384054" lon="11.35882316703455"><ele>309.66666666666663</ele><time>2026-05-02T13:29:23.998Z</time></trkpt><trkpt lat="45.80577993721578" lon="11.358932296019853"><ele>310.0</ele><time>2026-05-02T13:29:24.998Z</time></trkpt><trkpt lat="45.80575684663291" lon="11.359026611524676"><ele>310.0</ele><time>2026-05-02T13:29:25.998Z</time></trkpt><trkpt lat="45.80571339656804" lon="11.359140085018645"><ele>310.0</ele><time>2026-05-02T13:29:27.998Z</time></trkpt><trkpt lat="45.80568318058069" lon="11.35922143640032"><ele>310.0</ele><time>2026-05-02T13:29:38.997Z</time></trkpt><trkpt lat="45.80564272192058" lon="11.359295733245473"><ele>310.0</ele><time>2026-05-02T13:29:40.997Z</time></trkpt><trkpt lat="45.80554732487939" lon="11.35939820755054"><ele>310.0</ele><time>2026-05-02T13:29:43Z</time></trkpt><trkpt lat="45.80548500794427" lon="11.359451795837366"><ele>310.0</ele><time>2026-05-02T13:29:44Z</time></trkpt><trkpt lat="45.80541693313426" lon="11.359508094913954"><ele>310.0</ele><time>2026-05-02T13:29:45Z</time></trkpt><trkpt lat="45.8053603221696" lon="11.359562055089155"><ele>310.0</ele><time>2026-05-02T13:29:46Z</time></trkpt><trkpt lat="45.80526249362356" lon="11.359616140667448"><ele>310.0</ele><time>2026-05-02T13:29:48Z</time></trkpt><trkpt lat="45.80528970685" lon="11.359748655880038"><ele>310.0</ele><time>2026-05-02T13:29:49Z</time></trkpt><trkpt lat="45.805388108932064" lon="11.35969326983234"><ele>310.0</ele><time>2026-05-02T13:29:54Z</time></trkpt><trkpt lat="45.80542196725108" lon="11.359570878404424"><ele>310.0</ele><time>2026-05-02T13:29:59Z</time></trkpt><trkpt lat="45.8054772309817" lon="11.359517963304155"><ele>310.0</ele><time>2026-05-02T13:30:00Z</time></trkpt><trkpt lat="45.80554382769184" lon="11.359469307429919"><ele>310.0</ele><time>2026-05-02T13:30:01Z</time></trkpt><trkpt lat="45.8056191829304" lon="11.359422949005022"><ele>310.0</ele><time>2026-05-02T13:30:02Z</time></trkpt><trkpt lat="45.805705509175404" lon="11.359376277880036"><ele>310.0</ele><time>2026-05-02T13:30:03Z</time></trkpt><trkpt lat="45.80580124910998" lon="11.359331001903602"><ele>310.0</ele><time>2026-05-02T13:30:04Z</time></trkpt><trkpt lat="45.80590960980054" lon="11.359305647784165"><ele>310.25</ele><time>2026-05-02T13:30:05Z</time></trkpt><trkpt lat="45.80602829209566" lon="11.359295970115285"><ele>310.5</ele><time>2026-05-02T13:30:06Z</time></trkpt><trkpt lat="45.806154489097565" lon="11.359297136042999"><ele>310.75</ele><time>2026-05-02T13:30:07Z</time></trkpt><trkpt lat="45.80626960738281" lon="11.359304354126998"><ele>311.0</ele><time>2026-05-02T13:30:08Z</time></trkpt><trkpt lat="45.80639455152675" lon="11.359328477617193"><ele>311.0</ele><time>2026-05-02T13:30:08.999Z</time></trkpt><trkpt lat="45.80652210850594" lon="11.359367197251839"><ele>311.0</ele><time>2026-05-02T13:30:09.999Z</time></trkpt><trkpt lat="45.80665087999574" lon="11.359416728970341"><ele>311.0</ele><time>2026-05-02T13:30:10.999Z</time></trkpt><trkpt lat="45.80678596601638" lon="11.35947481073779"><ele>311.0</ele><time>2026-05-02T13:30:11.999Z</time></trkpt><trkpt lat="45.8069224011018" lon="11.359542499291095"><ele>311.0</ele><time>2026-05-02T13:30:12.999Z</time></trkpt><trkpt lat="45.807056883483526" lon="11.35961566316255"><ele>311.0</ele><time>2026-05-02T13:30:13.999Z</time></trkpt><trkpt lat="45.80719142216532" lon="11.359694114760584"><ele>311.0</ele><time>2026-05-02T13:30:14.999Z</time></trkpt><trkpt lat="45.807331252007174" lon="11.359775103666983"><ele>311.0</ele><time>2026-05-02T13:30:15.999Z</time></trkpt><trkpt lat="45.80749372967457" lon="11.359858219003472"><ele>310.6666666666667</ele><time>2026-05-02T13:30:16.999Z</time></trkpt><trkpt lat="45.80765175412037" lon="11.359937081292278"><ele>310.3333333333333</ele><time>2026-05-02T13:30:17.999Z</time></trkpt><trkpt lat="45.80781400735962" lon="11.360013799251194"><ele>310.0</ele><time>2026-05-02T13:30:18.999Z</time></trkpt><trkpt lat="45.807997729229015" lon="11.360104781953906"><ele>310.0</ele><time>2026-05-02T13:30:19.999Z</time></trkpt><trkpt lat="45.80818564408971" lon="11.360202360245886"><ele>310.0</ele><time>2026-05-02T13:30:20.999Z</time></trkpt><trkpt lat="45.80837346915395" lon="11.360352359568934"><ele>310.0</ele><time>2026-05-02T13:30:21.999Z</time></trkpt><trkpt lat="45.80858053299555" lon="11.360468710654217"><ele>310.3333333333333</ele><time>2026-05-02T13:30:22.999Z</time></trkpt><trkpt lat="45.80879426702874" lon="11.360582600746978"><ele>310.6666666666667</ele><time>2026-05-02T13:30:24.999Z</time></trkpt><trkpt lat="45.80896197688227" lon="11.360676759201235"><ele>311.0</ele><time>2026-05-02T13:30:25.999Z</time></trkpt><trkpt lat="45.809126534627325" lon="11.360769765621589"><ele>311.0</ele><time>2026-05-02T13:30:26.999Z</time></trkpt><trkpt lat="45.80929532343134" lon="11.360858927198016"><ele>311.0</ele><time>2026-05-02T13:30:27.999Z</time></trkpt><trkpt lat="45.80945985576786" lon="11.360954817394278"><ele>311.0</ele><time>2026-05-02T13:30:28.999Z</time></trkpt><trkpt lat="45.80963187086505" lon="11.361042959357631"><ele>312.0</ele><time>2026-05-02T13:30:29.999Z</time></trkpt><trkpt lat="45.8098058548686" lon="11.361135970603785"><ele>313.0</ele><time>2026-05-02T13:30:30.999Z</time></trkpt><trkpt lat="45.80997561110697" lon="11.36125387554977"><ele>314.0</ele><time>2026-05-02T13:30:31.999Z</time></trkpt><trkpt lat="45.810161457570175" lon="11.361338193351664"><ele>314.0</ele><time>2026-05-02T13:30:32.999Z</time></trkpt><trkpt lat="45.810347412936345" lon="11.36144095592766"><ele>314.0</ele><time>2026-05-02T13:30:33.999Z</time></trkpt><trkpt lat="45.81053610863605" lon="11.361544271002824"><ele>314.0</ele><time>2026-05-02T13:30:34.999Z</time></trkpt><trkpt lat="45.81073060249875" lon="11.361648743026048"><ele>314.0</ele><time>2026-05-02T13:30:35.999Z</time></trkpt><trkpt lat="45.810921303858414" lon="11.361755050691208"><ele>314.0</ele><time>2026-05-02T13:30:36.999Z</time></trkpt><trkpt lat="45.8111066862742" lon="11.361859462155598"><ele>314.0</ele><time>2026-05-02T13:30:37.999Z</time></trkpt><trkpt lat="45.81129112803065" lon="11.36196417421254"><ele>314.0</ele><time>2026-05-02T13:30:38.999Z</time></trkpt><trkpt lat="45.811478727154366" lon="11.36206721259283"><ele>314.0</ele><time>2026-05-02T13:30:39.999Z</time></trkpt><trkpt lat="45.8116677647599" lon="11.362172332395449"><ele>314.0</ele><time>2026-05-02T13:30:40.999Z</time></trkpt><trkpt lat="45.81185697508716" lon="11.36227850696429"><ele>314.0</ele><time>2026-05-02T13:30:41.999Z</time></trkpt><trkpt lat="45.812044561453604" lon="11.362386039719661"><ele>314.0</ele><time>2026-05-02T13:30:42.999Z</time></trkpt><trkpt lat="45.81223182470744" lon="11.362492311732785"><ele>314.0</ele><time>2026-05-02T13:30:43.999Z</time></trkpt><trkpt lat="45.81241880471646" lon="11.362601963290357"><ele>314.0</ele><time>2026-05-02T13:30:44.999Z</time></trkpt><trkpt lat="45.81260585125559" lon="11.362707419735836"><ele>314.0</ele><time>2026-05-02T13:30:45.999Z</time></trkpt><trkpt lat="45.812785173649424" lon="11.362802476511725"><ele>314.0</ele><time>2026-05-02T13:30:46.999Z</time></trkpt><trkpt lat="45.81296748318978" lon="11.36290325090856"><ele>315.6666666666667</ele><time>2026-05-02T13:30:47.999Z</time></trkpt><trkpt lat="45.81315218805946" lon="11.363005651224983"><ele>317.3333333333333</ele><time>2026-05-02T13:30:48.999Z</time></trkpt><trkpt lat="45.813338569945394" lon="11.363115096355445"><ele>319.0</ele><time>2026-05-02T13:30:49.999Z</time></trkpt><trkpt lat="45.81352954262508" lon="11.363227814126631"><ele>320.0</ele><time>2026-05-02T13:30:50.999Z</time></trkpt><trkpt lat="45.81371386520583" lon="11.363323726805262"><ele>321.0</ele><time>2026-05-02T13:30:51.999Z</time></trkpt><trkpt lat="45.813904192010476" lon="11.363412326367612"><ele>322.0</ele><time>2026-05-02T13:30:52.999Z</time></trkpt><trkpt lat="45.814098731401586" lon="11.363482053131477"><ele>322.0</ele><time>2026-05-02T13:30:53.999Z</time></trkpt><trkpt lat="45.81429493831044" lon="11.363514358696307"><ele>322.0</ele><time>2026-05-02T13:30:54.998Z</time></trkpt><trkpt lat="45.814498196061216" lon="11.363513337568982"><ele>322.0</ele><time>2026-05-02T13:30:55.998Z</time></trkpt><trkpt lat="45.81469884591346" lon="11.363468347066954"><ele>322.66666666666663</ele><time>2026-05-02T13:30:56.998Z</time></trkpt><trkpt lat="45.814889283342886" lon="11.36340379437858"><ele>323.3333333333333</ele><time>2026-05-02T13:30:57.998Z</time></trkpt><trkpt lat="45.815081056666735" lon="11.363326030828928"><ele>324.0</ele><time>2026-05-02T13:30:58.998Z</time></trkpt><trkpt lat="45.815270922535085" lon="11.363258184779584"><ele>324.0</ele><time>2026-05-02T13:30:59.998Z</time></trkpt><trkpt lat="45.81545706492336" lon="11.363198436169553"><ele>324.0</ele><time>2026-05-02T13:31:00.998Z</time></trkpt><trkpt lat="45.815643224133986" lon="11.363143632739899"><ele>324.0</ele><time>2026-05-02T13:31:01.998Z</time></trkpt><trkpt lat="45.81582465474868" lon="11.363096668660932"><ele>325.0</ele><time>2026-05-02T13:31:02.998Z</time></trkpt><trkpt lat="45.81600938806105" lon="11.363063920848624"><ele>326.0</ele><time>2026-05-02T13:31:03.998Z</time></trkpt><trkpt lat="45.81619973547489" lon="11.36304643639654"><ele>327.0</ele><time>2026-05-02T13:31:04.998Z</time></trkpt><trkpt lat="45.81639503701523" lon="11.363044334318888"><ele>327.0</ele><time>2026-05-02T13:31:05.998Z</time></trkpt><trkpt lat="45.81658421614847" lon="11.363066847475272"><ele>327.0</ele><time>2026-05-02T13:31:06.998Z</time></trkpt><trkpt lat="45.81677744902309" lon="11.363110469243122"><ele>327.0</ele><time>2026-05-02T13:31:07.998Z</time></trkpt><trkpt lat="45.816976482936774" lon="11.363170410171499"><ele>329.6666666666667</ele><time>2026-05-02T13:31:08.998Z</time></trkpt><trkpt lat="45.81717189823421" lon="11.363243417956884"><ele>332.33333333333337</ele><time>2026-05-02T13:31:09.998Z</time></trkpt><trkpt lat="45.817362516530245" lon="11.363312249654186"><ele>335.0</ele><time>2026-05-02T13:31:10.998Z</time></trkpt><trkpt lat="45.81754931220103" lon="11.363365925491332"><ele>338.6666666666667</ele><time>2026-05-02T13:31:11.998Z</time></trkpt><trkpt lat="45.81773239982931" lon="11.36339298205577"><ele>342.3333333333333</ele><time>2026-05-02T13:31:12.998Z</time></trkpt><trkpt lat="45.817900239718675" lon="11.36340815678671"><ele>346.0</ele><time>2026-05-02T13:31:13.998Z</time></trkpt><trkpt lat="45.818064537854646" lon="11.363389884980739"><ele>346.0</ele><time>2026-05-02T13:31:14.998Z</time></trkpt><trkpt lat="45.81823078426675" lon="11.363401302472866"><ele>346.0</ele><time>2026-05-02T13:31:15.998Z</time></trkpt><trkpt lat="45.81836854105098" lon="11.363479364542567"><ele>346.0</ele><time>2026-05-02T13:31:16.998Z</time></trkpt><trkpt lat="45.818505725304334" lon="11.36355712732448"><ele>349.75</ele><time>2026-05-02T13:31:17.998Z</time></trkpt><trkpt lat="45.818638175036334" lon="11.36365359468243"><ele>353.5</ele><time>2026-05-02T13:31:18.998Z</time></trkpt><trkpt lat="45.818764106359446" lon="11.363734619195066"><ele>357.25</ele><time>2026-05-02T13:31:19.998Z</time></trkpt><trkpt lat="45.81886071551714" lon="11.363833215124194"><ele>361.0</ele><time>2026-05-02T13:31:20.998Z</time></trkpt><trkpt lat="45.81894872294721" lon="11.3639073125273"><ele>355.20000000000005</ele><time>2026-05-02T13:31:21.998Z</time></trkpt><trkpt lat="45.81901268106357" lon="11.3639638810889"><ele>349.40000000000003</ele><time>2026-05-02T13:31:22.998Z</time></trkpt><trkpt lat="45.8190770557736" lon="11.36408665593175"><ele>343.6</ele><time>2026-05-02T13:31:24.998Z</time></trkpt><trkpt lat="45.819193546632974" lon="11.364148968038954"><ele>337.8</ele><time>2026-05-02T13:31:26.998Z</time></trkpt><trkpt lat="45.81926804971647" lon="11.364183329849176"><ele>332.0</ele><time>2026-05-02T13:31:27.998Z</time></trkpt><trkpt lat="45.81934901751876" lon="11.364219104945432"><ele>332.0</ele><time>2026-05-02T13:31:28.998Z</time></trkpt><trkpt lat="45.819426667693925" lon="11.364252659769894"><ele>332.0</ele><time>2026-05-02T13:31:29.998Z</time></trkpt><trkpt lat="45.819503875537194" lon="11.364280997118737"><ele>332.0</ele><time>2026-05-02T13:31:30.998Z</time></trkpt><trkpt lat="45.81957059388939" lon="11.364332213002388"><ele>332.0</ele><time>2026-05-02T13:31:31.998Z</time></trkpt><trkpt lat="45.81964261618107" lon="11.36436401729181"><ele>332.0</ele><time>2026-05-02T13:31:32.998Z</time></trkpt><trkpt lat="45.81971567918943" lon="11.364389179031594"><ele>332.0</ele><time>2026-05-02T13:31:33.998Z</time></trkpt><trkpt lat="45.819783402304964" lon="11.36442177903832"><ele>332.0</ele><time>2026-05-02T13:31:34.998Z</time></trkpt><trkpt lat="45.81984097540297" lon="11.364476166728076"><ele>332.0</ele><time>2026-05-02T13:31:35.998Z</time></trkpt><trkpt lat="45.819877339185055" lon="11.364557429903359"><ele>332.0</ele><time>2026-05-02T13:31:36.998Z</time></trkpt><trkpt lat="45.819834113570145" lon="11.36467704131876"><ele>332.0</ele><time>2026-05-02T13:31:37.998Z</time></trkpt><trkpt lat="45.819850425344434" lon="11.36477901957068"><ele>332.0</ele><time>2026-05-02T13:31:38.997Z</time></trkpt><trkpt lat="45.81986881421153" lon="11.364879158262514"><ele>332.0</ele><time>2026-05-02T13:31:39.997Z</time></trkpt><trkpt lat="45.819978424302924" lon="11.364923304301454"><ele>331.20000000000005</ele><time>2026-05-02T13:31:40.997Z</time></trkpt><trkpt lat="45.820067755346976" lon="11.364972025474342"><ele>330.4</ele><time>2026-05-02T13:31:41.997Z</time></trkpt><trkpt lat="45.82016089129567" lon="11.365030577329915"><ele>329.6</ele><time>2026-05-02T13:31:42.997Z</time></trkpt><trkpt lat="45.820257813858376" lon="11.36508818467085"><ele>328.79999999999995</ele><time>2026-05-02T13:31:43.997Z</time></trkpt><trkpt lat="45.82034983655205" lon="11.365139028668652"><ele>328.0</ele><time>2026-05-02T13:31:44.997Z</time></trkpt><trkpt lat="45.82041246539152" lon="11.365220103562555"><ele>328.0</ele><time>2026-05-02T13:31:45.997Z</time></trkpt><trkpt lat="45.82047127699963" lon="11.36527597255949"><ele>328.0</ele><time>2026-05-02T13:31:46.997Z</time></trkpt><trkpt lat="45.82051787356732" lon="11.365397568435906"><ele>328.0</ele><time>2026-05-02T13:31:48.999Z</time></trkpt><trkpt lat="45.82039711128091" lon="11.365449878691107"><ele>328.0</ele><time>2026-05-02T13:31:50.999Z</time></trkpt><trkpt lat="45.82032992321448" lon="11.365367490937818"><ele>328.0</ele><time>2026-05-02T13:31:51.999Z</time></trkpt><trkpt lat="45.82024339536525" lon="11.36533113928473"><ele>325.79999999999995</ele><time>2026-05-02T13:31:52.999Z</time></trkpt><trkpt lat="45.82014666720753" lon="11.365281981055174"><ele>323.59999999999997</ele><time>2026-05-02T13:31:53.999Z</time></trkpt><trkpt lat="45.82004257502038" lon="11.365243346137927"><ele>321.4</ele><time>2026-05-02T13:31:54.999Z</time></trkpt><trkpt lat="45.81994498581937" lon="11.365211117642499"><ele>319.2</ele><time>2026-05-02T13:31:55.999Z</time></trkpt><trkpt lat="45.819853536398995" lon="11.36519469377611"><ele>317.0</ele><time>2026-05-02T13:31:56.999Z</time></trkpt><trkpt lat="45.819774571042764" lon="11.365177450443676"><ele>317.0</ele><time>2026-05-02T13:31:57.999Z</time></trkpt><trkpt lat="45.81971302712832" lon="11.365135210220192"><ele>317.0</ele><time>2026-05-02T13:31:58.999Z</time></trkpt><trkpt lat="45.81969980814675" lon="11.365011040764522"><ele>317.0</ele><time>2026-05-02T13:31:59.999Z</time></trkpt><trkpt lat="45.81963886268709" lon="11.364945835178814"><ele>317.0</ele><time>2026-05-02T13:32:00.999Z</time></trkpt><trkpt lat="45.81957271129254" lon="11.364869266934752"><ele>317.0</ele><time>2026-05-02T13:32:01.999Z</time></trkpt><trkpt lat="45.81947584702864" lon="11.364834703488198"><ele>317.0</ele><time>2026-05-02T13:32:02.999Z</time></trkpt><trkpt lat="45.819384031701915" lon="11.364795044365442"><ele>313.8</ele><time>2026-05-02T13:32:03.999Z</time></trkpt><trkpt lat="45.81929908798659" lon="11.364780414826136"><ele>310.6</ele><time>2026-05-02T13:32:04.999Z</time></trkpt><trkpt lat="45.81923480474608" lon="11.364751560412664"><ele>307.40000000000003</ele><time>2026-05-02T13:32:05.999Z</time></trkpt><trkpt lat="45.81915349793261" lon="11.364737407627546"><ele>304.2</ele><time>2026-05-02T13:32:07.999Z</time></trkpt><trkpt lat="45.819182661151245" lon="11.364921272871879"><ele>301.0</ele><time>2026-05-02T13:32:09.999Z</time></trkpt><trkpt lat="45.81926465888518" lon="11.364946410780577"><ele>303.66666666666663</ele><time>2026-05-02T13:32:10.999Z</time></trkpt><trkpt lat="45.819344162464425" lon="11.364971676096559"><ele>306.3333333333333</ele><time>2026-05-02T13:32:11.999Z</time></trkpt><trkpt lat="45.819420348877514" lon="11.365034633105674"><ele>309.0</ele><time>2026-05-02T13:32:12.999Z</time></trkpt><trkpt lat="45.819497729957995" lon="11.365071243675159"><ele>311.6666666666667</ele><time>2026-05-02T13:32:13.999Z</time></trkpt><trkpt lat="45.81951603497646" lon="11.365191070088345"><ele>314.33333333333337</ele><time>2026-05-02T13:32:14.999Z</time></trkpt><trkpt lat="45.81951205446865" lon="11.365295490106611"><ele>317.0</ele><time>2026-05-02T13:32:15.999Z</time></trkpt><trkpt lat="45.81956745416346" lon="11.365374630282167"><ele>317.0</ele><time>2026-05-02T13:32:16.999Z</time></trkpt><trkpt lat="45.819662152631615" lon="11.365387007732762"><ele>317.0</ele><time>2026-05-02T13:32:17.999Z</time></trkpt><trkpt lat="45.819748804332114" lon="11.365384296690003"><ele>317.0</ele><time>2026-05-02T13:32:18.999Z</time></trkpt><trkpt lat="45.8198381255508" lon="11.365403977948938"><ele>317.0</ele><time>2026-05-02T13:32:19.999Z</time></trkpt><trkpt lat="45.81991231592277" lon="11.365475234540177"><ele>317.0</ele><time>2026-05-02T13:32:20.999Z</time></trkpt><trkpt lat="45.819996563183146" lon="11.365544470070093"><ele>316.6</ele><time>2026-05-02T13:32:21.999Z</time></trkpt><trkpt lat="45.820085310752596" lon="11.36562164263564"><ele>316.2</ele><time>2026-05-02T13:32:22.999Z</time></trkpt><trkpt lat="45.820175329651754" lon="11.365681795701423"><ele>315.8</ele><time>2026-05-02T13:32:23.999Z</time></trkpt><trkpt lat="45.820265418607676" lon="11.365759362274419"><ele>315.4</ele><time>2026-05-02T13:32:24.999Z</time></trkpt><trkpt lat="45.82035242177624" lon="11.365837310590864"><ele>315.0</ele><time>2026-05-02T13:32:25.999Z</time></trkpt><trkpt lat="45.82043396883389" lon="11.36592169216698"><ele>315.0</ele><time>2026-05-02T13:32:26.999Z</time></trkpt><trkpt lat="45.82050985770548" lon="11.366000301461986"><ele>315.0</ele><time>2026-05-02T13:32:27.999Z</time></trkpt><trkpt lat="45.82057949411355" lon="11.36607035199784"><ele>315.0</ele><time>2026-05-02T13:32:28.999Z</time></trkpt><trkpt lat="45.820647839852974" lon="11.366144198109238"><ele>315.0</ele><time>2026-05-02T13:32:29.999Z</time></trkpt><trkpt lat="45.82071104496029" lon="11.366214287515522"><ele>315.0</ele><time>2026-05-02T13:32:30.999Z</time></trkpt><trkpt lat="45.82076154750559" lon="11.36628514562891"><ele>315.0</ele><time>2026-05-02T13:32:31.999Z</time></trkpt><trkpt lat="45.82080069039219" lon="11.366373185026198"><ele>314.5</ele><time>2026-05-02T13:32:32.999Z</time></trkpt><trkpt lat="45.82084971175624" lon="11.366463572809455"><ele>314.0</ele><time>2026-05-02T13:32:33.999Z</time></trkpt><trkpt lat="45.82090725663012" lon="11.366549340289694"><ele>313.5</ele><time>2026-05-02T13:32:34.999Z</time></trkpt><trkpt lat="45.82095092270823" lon="11.366652041368996"><ele>313.0</ele><time>2026-05-02T13:32:35.999Z</time></trkpt><trkpt lat="45.82100702570693" lon="11.366725940307449"><ele>312.5</ele><time>2026-05-02T13:32:36.999Z</time></trkpt><trkpt lat="45.821048223220956" lon="11.366810925253128"><ele>312.0</ele><time>2026-05-02T13:32:37.999Z</time></trkpt><trkpt lat="45.82108108919376" lon="11.366891391836406"><ele>312.0</ele><time>2026-05-02T13:32:38.999Z</time></trkpt><trkpt lat="45.8211081735027" lon="11.366982117940388"><ele>312.0</ele><time>2026-05-02T13:32:39.999Z</time></trkpt><trkpt lat="45.82111308240376" lon="11.367079635185773"><ele>312.0</ele><time>2026-05-02T13:32:40.999Z</time></trkpt><trkpt lat="45.82112301950516" lon="11.367205120568569"><ele>312.0</ele><time>2026-05-02T13:32:42.999Z</time></trkpt><trkpt lat="45.82107515353398" lon="11.367329828329948"><ele>312.0</ele><time>2026-05-02T13:32:45.999Z</time></trkpt><trkpt lat="45.82097234260928" lon="11.367392065302425"><ele>312.0</ele><time>2026-05-02T13:32:47.999Z</time></trkpt><trkpt lat="45.82086332676412" lon="11.36747401173687"><ele>306.6</ele><time>2026-05-02T13:32:49.999Z</time></trkpt><trkpt lat="45.820801022248475" lon="11.36749881077709"><ele>301.2</ele><time>2026-05-02T13:32:50.999Z</time></trkpt><trkpt lat="45.82069458333147" lon="11.36758098510683"><ele>295.8</ele><time>2026-05-02T13:32:52.999Z</time></trkpt><trkpt lat="45.820596176996034" lon="11.367644135246227"><ele>290.4</ele><time>2026-05-02T13:32:54.999Z</time></trkpt><trkpt lat="45.820482546922335" lon="11.367680097296875"><ele>285.0</ele><time>2026-05-02T13:32:56.998Z</time></trkpt><trkpt lat="45.8204171412357" lon="11.367694023720643"><ele>285.0</ele><time>2026-05-02T13:32:57.998Z</time></trkpt><trkpt lat="45.820353179869336" lon="11.36770156288409"><ele>285.0</ele><time>2026-05-02T13:32:58.998Z</time></trkpt><trkpt lat="45.82023745034171" lon="11.367704625813886"><ele>285.0</ele><time>2026-05-02T13:33:00.998Z</time></trkpt><trkpt lat="45.82012808193695" lon="11.367676437813829"><ele>285.0</ele><time>2026-05-02T13:33:02.998Z</time></trkpt><trkpt lat="45.82005149435069" lon="11.367734594819934"><ele>285.0</ele><time>2026-05-02T13:33:04.998Z</time></trkpt><trkpt lat="45.82001004929214" lon="11.367830555575464"><ele>280.0</ele><time>2026-05-02T13:33:09.998Z</time></trkpt><trkpt lat="45.82013182912385" lon="11.367780891555494"><ele>280.0</ele><time>2026-05-02T13:33:12.998Z</time></trkpt><trkpt lat="45.820152029818104" lon="11.36768938876885"><ele>285.0</ele><time>2026-05-02T13:33:16.998Z</time></trkpt><trkpt lat="45.82005564095657" lon="11.367629541408329"><ele>280.0</ele><time>2026-05-02T13:33:19.998Z</time></trkpt><trkpt lat="45.82000230090376" lon="11.36758027996685"><ele>280.0</ele><time>2026-05-02T13:33:22.998Z</time></trkpt><trkpt lat="45.8199412135829" lon="11.367512237083039"><ele>280.0</ele><time>2026-05-02T13:33:26.998Z</time></trkpt></trkseg></trk></gpx>